[[{"header":{"parameterUnit":"m.s-1","parameterCategory":1,"la1":30.6,"la2":28.766,"lo1":-90.7593,"lo2":-88.6598,"dx":0.0162,"dy":0.0183,"nx":116,"ny":114,"refTime":"2022-11-18T18:00:00:Z","depth":0,"parameterNumber":2,"parameterNumberName":"U-component_of_WINDS"},"data":[0.0,0.0,0.0,0.0,0.0,0.0,0.0,0.0,0.0,0.0,0.0,0.0,0.0,0.0,0.0,0.0,0.0,0.0,0.0,0.0,0.0,0.0,0.0,0.0,0.0,0.0,0.0,0.0,0.0,0.0,0.0,0.0,0.0,0.0,0.0,0.0,0.0,0.0,0.0,0.0,0.0,0.0,0.0,0.0,0.0,0.0,0.0,0.0,0.0,0.0,0.0,0.0,0.0,0.0,0.0,0.0,0.0,0.0,0.0,0.0,0.0,0.0,0.0,0.0,0.0,0.0,0.0,0.0,0.0,0.0,0.0,0.0,0.0,0.0,0.0,0.0,0.0,0.0,0.0,0.0,0.0,0.0,0.0,0.0,0.0,0.0,0.0,0.0,0.0,0.0,0.0,0.0,0.0,0.0,0.0,0.0,0.0,0.0,0.0,0.0,0.0,0.0,0.0,0.0,0.0,0.0,0.0,0.0,0.0,0.0,0.0,0.0,0.0,0.0,0.0,0.0,0.0,0.0,0.0,0.0,0.0,0.0,0.0,0.0,0.0,0.0,0.0,0.0,0.0,0.0,0.0,0.0,0.0,0.0,0.0,0.0,0.0,0.0,0.0,0.0,0.0,0.0,0.0,0.0,0.0,0.0,0.0,0.0,0.0,0.0,0.0,0.0,0.0,0.0,0.0,0.0,0.0,0.0,0.0,0.0,0.0,0.0,0.0,0.0,0.0,0.0,0.0,0.0,0.0,0.0,0.0,0.0,0.0,0.0,0.0,0.0,0.0,0.0,0.0,0.0,0.0,0.0,0.0,0.0,0.0,0.0,0.0,0.0,0.0,0.0,0.0,0.0,0.0,0.0,0.0,0.0,0.0,0.0,0.0,0.0,0.0,0.0,0.0,0.0,0.0,0.0,0.0,0.0,0.0,0.0,0.0,0.0,0.0,0.0,0.0,0.0,0.0,0.0,0.0,0.0,0.0,0.0,0.0,0.0,0.0,0.0,0.0,0.0,0.0,0.0,0.0,0.0,0.0,0.0,0.0,0.0,0.0,0.0,0.0,0.0,0.0,0.0,0.0,0.0,0.0,0.0,0.0,0.0,0.0,0.0,0.0,0.0,0.0,0.0,0.0,0.0,0.0,0.0,0.0,0.0,0.0,0.0,0.0,0.0,0.0,0.0,0.0,0.0,0.0,0.0,0.0,0.0,0.0,0.0,0.0,0.0,0.0,0.0,0.0,0.0,0.0,0.0,0.0,0.0,0.0,0.0,0.0,0.0,0.0,0.0,0.0,0.0,0.0,0.0,0.0,0.0,0.0,0.0,0.0,0.0,0.0,0.0,0.0,0.0,0.0,0.0,0.0,0.0,0.0,0.0,0.0,0.0,0.0,0.0,0.0,0.0,0.0,0.0,0.0,0.0,0.0,0.0,0.0,0.0,0.0,0.0,0.0,0.0,0.0,0.0,0.0,0.0,0.0,0.0,0.0,0.0,0.0,0.0,0.0,0.0,0.0,0.0,0.0,0.0,0.0,0.0,0.0,0.0,0.0,0.0,0.0,0.0,0.0,0.0,0.0,0.0,0.0,0.0,0.0,0.0,0.0,0.0,0.0,0.0,0.0,0.0,0.0,0.0,0.0,0.0,0.0,0.0,0.0,0.0,0.0,0.0,0.0,0.0,0.0,0.0,0.0,0.0,0.0,0.0,0.0,0.0,0.0,0.0,0.0,0.0,0.0,0.0,0.0,0.0,0.0,0.0,0.0,0.0,0.0,0.0,0.0,0.0,0.0,0.0,0.0,0.0,0.0,0.0,0.0,0.0,0.0,0.0,0.0,0.0,0.0,0.0,0.0,0.0,0.0,0.0,0.0,0.0,0.0,0.0,0.0,0.0,0.0,0.0,0.0,0.0,0.0,0.0,0.0,0.0,0.0,0.0,0.0,0.0,0.0,0.0,0.0,0.0,0.0,0.0,0.0,0.0,0.0,0.0,0.0,0.0,0.0,0.0,0.0,0.0,0.0,0.0,0.0,0.0,0.0,0.0,0.0,0.0,0.0,0.0,0.0,0.0,0.0,0.0,0.0,0.0,0.0,0.0,0.0,0.0,0.0,0.0,0.0,0.0,0.0,0.0,0.0,0.0,0.0,0.0,0.0,0.0,0.0,0.0,0.0,0.0,0.0,0.0,0.0,0.0,0.0,0.0,0.0,0.0,0.0,0.0,0.0,0.0,0.0,0.0,0.0,0.0,0.0,0.0,0.0,0.0,0.0,0.0,0.0,0.0,0.0,0.0,0.0,0.0,0.0,0.0,0.0,0.0,0.0,0.0,0.0,0.0,0.0,0.0,0.0,0.0,0.0,0.0,0.0,0.0,0.0,0.0,0.0,0.0,0.0,0.0,0.0,0.0,0.0,0.0,0.0,0.0,0.0,0.0,0.0,0.0,0.0,0.0,0.0,0.0,0.0,0.0,0.0,0.0,0.0,0.0,0.0,0.0,0.0,0.0,0.0,0.0,0.0,0.0,0.0,0.0,0.0,0.0,0.0,0.0,0.0,0.0,0.0,0.0,0.0,0.0,0.0,0.0,0.0,0.0,0.0,0.0,0.0,0.0,0.0,0.0,0.0,0.0,0.0,0.0,0.0,0.0,0.0,0.0,0.0,0.0,0.0,0.0,0.0,0.0,0.0,0.0,0.0,0.0,0.0,0.0,0.0,0.0,0.0,0.0,0.0,0.0,0.0,0.0,0.0,0.0,0.0,0.0,0.0,0.0,0.0,0.0,0.0,0.0,0.0,0.0,0.0,0.0,0.0,0.0,0.0,0.0,0.0,0.0,0.0,0.0,0.0,0.0,0.0,0.0,0.0,0.0,0.0,0.0,0.0,0.0,0.0,0.0,0.0,0.0,0.0,0.0,0.0,0.0,0.0,0.0,0.0,0.0,0.0,0.0,0.0,0.0,0.0,0.0,0.0,0.0,0.0,0.0,0.0,0.0,0.0,0.0,0.0,0.0,0.0,0.0,0.0,0.0,0.0,0.0,0.0,0.0,0.0,0.0,0.0,0.0,0.0,0.0,0.0,0.0,0.0,0.0,0.0,0.0,0.0,0.0,0.0,0.0,0.0,0.0,0.0,0.0,0.0,0.0,0.0,0.0,0.0,0.0,0.0,0.0,0.0,0.0,0.0,0.0,0.0,0.0,0.0,0.0,0.0,0.0,0.0,0.0,0.0,0.0,0.0,0.0,0.0,0.0,0.0,0.0,0.0,0.0,0.0,0.0,0.0,0.0,0.0,0.0,0.0,0.0,0.0,0.0,0.0,0.0,0.0,0.0,0.0,0.0,0.0,0.0,0.0,0.0,0.0,0.0,0.0,0.0,0.0,0.0,0.0,0.0,0.0,0.0,0.0,0.0,0.0,0.0,0.0,0.0,0.0,0.0,0.0,0.0,0.0,0.0,0.0,0.0,0.0,0.0,0.0,0.0,0.0,0.0,0.0,0.0,0.0,0.0,0.0,0.0,0.0,0.0,0.0,0.0,0.0,0.0,0.0,0.0,0.0,0.0,0.0,0.0,0.0,0.0,0.0,0.0,0.0,0.0,0.0,0.0,0.0,0.0,0.0,0.0,0.0,0.0,0.0,0.0,0.0,0.0,0.0,0.0,0.0,0.0,0.0,0.0,0.0,0.0,0.0,0.0,0.0,0.0,0.0,0.0,0.0,0.0,0.0,0.0,0.0,0.0,0.0,0.0,0.0,0.0,0.0,0.0,0.0,0.0,0.0,0.0,0.0,0.0,0.0,0.0,0.0,0.0,0.0,0.0,0.0,0.0,0.0,0.0,0.0,0.0,0.0,0.0,0.0,0.0,0.0,0.0,0.0,0.0,0.0,0.0,0.0,0.0,0.0,0.0,0.0,0.0,0.0,0.0,0.0,0.0,0.0,0.0,0.0,0.0,0.0,0.0,0.0,0.0,0.0,0.0,0.0,0.0,0.0,0.0,0.0,0.0,0.0,0.0,0.0,0.0,0.0,0.0,0.0,0.0,0.0,0.0,0.0,0.0,0.0,0.0,0.0,0.0,0.0,0.0,0.0,0.0,0.0,0.0,0.0,0.0,0.0,0.0,0.0,0.0,0.0,0.0,0.0,0.0,0.0,0.0,0.0,0.0,0.0,0.0,0.0,0.0,0.0,0.0,0.0,0.0,0.0,0.0,0.0,0.0,0.0,0.0,0.0,0.0,0.0,0.0,0.0,0.0,0.0,0.0,0.0,0.0,0.0,0.0,0.0,0.0,0.0,0.0,0.0,0.0,0.0,0.0,0.0,0.0,0.0,0.0,0.0,0.0,0.0,0.0,0.0,0.0,0.0,0.0,0.0,0.0,0.0,0.0,0.0,0.0,0.0,0.0,0.0,0.0,0.0,0.0,0.0,0.0,0.0,0.0,0.0,0.0,0.0,0.0,0.0,0.0,0.0,0.0,0.0,0.0,0.0,0.0,0.0,0.0,0.0,0.0,0.0,0.0,0.0,0.0,0.0,0.0,0.0,0.0,0.0,0.0,0.0,0.0,0.0,0.0,0.0,0.0,0.0,0.0,0.0,0.0,0.0,0.0,0.0,0.0,0.0,0.0,0.0,0.0,0.0,0.0,0.0,0.0,0.0,0.0,0.0,0.0,0.0,0.0,0.0,0.0,0.0,0.0,0.0,0.0,0.0,0.0,0.0,0.0,0.0,0.0,0.0,0.0,0.0,0.0,0.0,0.0,0.0,0.0,0.0,0.0,0.0,0.0,0.0,0.0,0.0,0.0,0.0,0.0,0.0,0.0,0.0,0.0,0.0,0.0,0.0,0.0,0.0,0.0,0.0,0.0,0.0,0.0,0.0,0.0,0.0,0.0,0.0,0.0,0.0,0.0,0.0,0.0,0.0,0.0,0.0,0.0,0.0,0.0,0.0,0.0,0.0,0.0,0.0,0.0,0.0,0.0,0.0,0.0,0.0,0.0,0.0,0.0,0.0,0.0,0.0,0.0,0.0,0.0,0.0,0.0,0.0,0.0,0.0,0.0,0.0,0.0,0.0,0.0,0.0,0.0,0.0,0.0,0.0,0.0,0.0,0.0,0.0,0.0,0.0,0.0,0.0,0.0,0.0,0.0,0.0,0.0,0.0,0.0,0.0,0.0,0.0,0.0,0.0,0.0,0.0,0.0,0.0,0.0,0.0,0.0,0.0,0.0,0.0,0.0,0.0,0.0,0.0,0.0,0.0,0.0,0.0,0.0,0.0,0.0,0.0,0.0,0.0,0.0,0.0,0.0,0.0,0.0,0.0,0.0,0.0,0.0,0.0,0.0,0.0,0.0,0.0,0.0,0.0,0.0,0.0,0.0,0.0,0.0,0.0,0.0,0.0,0.0,0.0,0.0,0.0,0.0,0.0,0.0,0.0,0.0,0.0,0.0,0.0,0.0,0.0,0.0,0.0,0.0,0.0,0.0,0.0,0.0,0.0,0.0,0.0,0.0,0.0,0.0,0.0,0.0,0.0,0.0,0.0,0.0,0.0,0.0,0.0,0.0,0.0,0.0,0.0,0.0,0.0,0.0,0.0,0.0,0.0,0.0,0.0,0.0,0.0,0.0,0.0,0.0,0.0,0.0,0.0,0.0,0.0,0.0,0.0,0.0,0.0,0.0,0.0,0.0,0.0,0.0,0.0,0.0,0.0,0.0,0.0,0.0,0.0,0.0,0.0,0.0,0.0,0.0,0.0,0.0,0.0,0.0,0.0,0.0,0.0,0.0,0.0,0.0,0.0,0.0,0.0,0.0,0.0,0.0,0.0,0.0,0.0,0.0,0.0,0.0,0.0,0.0,0.0,0.0,0.0,0.0,0.0,0.0,0.0,0.0,0.0,0.0,0.0,0.0,0.0,0.0,0.0,0.0,0.0,0.0,0.0,0.0,0.0,0.0,0.0,0.0,0.0,0.0,0.0,0.0,0.0,0.0,0.0,0.0,0.0,0.0,0.0,0.0,0.0,0.0,0.0,0.0,0.0,0.0,0.0,0.0,0.0,0.0,0.0,0.0,0.0,0.0,0.0,0.0,0.0,0.0,0.0,0.0,0.0,0.0,0.0,0.0,2.3975,2.2249,0.0,0.0,0.0,0.0,0.0,0.0,0.0,0.0,0.0,0.0,0.0,0.0,0.0,0.0,0.0,0.0,0.0,0.0,0.0,0.0,0.0,0.0,0.0,0.5419,0.5446,0.5314,0.5419,0.0,0.0,0.0,0.0,0.0,0.0,0.0,0.6132,0.6132,0.6337,0.6753,0.6807,0.7151,0.7761,0.849,0.858,0.8157,0.0,0.0,0.0,0.0,0.0,0.0,0.0,0.0,0.0,0.0,0.0,0.0,0.0,0.0,0.0,0.0,0.0,0.0,0.0,0.0,0.0,0.0,0.0,0.0,0.0,0.0,0.0,0.0,0.0,0.0,0.0,0.0,0.0,0.0,0.0,0.0,0.0,0.0,0.0,0.0,0.0,0.0,0.0,0.0,0.0,0.0,0.0,0.0,0.0,0.0,0.0,0.0,0.0,0.0,0.0,0.0,0.0,0.0,0.0,0.0,0.0,0.0,0.0,0.0,0.0,0.0,0.0,0.0,0.0,0.0,2.5841,2.4823,0.0,0.0,0.0,0.0,0.0,0.0,0.0,0.0,0.0,0.0,0.0,0.0,0.0,0.0,0.0,0.0,0.0,0.0,0.0,0.0,0.0,0.5521,0.5521,0.5772,0.583,0.5615,0.5798,0.5927,0.5927,0.5927,0.0,0.0,0.0,0.0,0.6754,0.681,0.7214,0.7979,0.7961,0.8399,0.9299,1.0292,0.9928,0.8431,0.8203,0.0,0.0,0.0,0.0,0.0,0.0,0.0,0.0,0.0,0.0,0.0,0.0,0.0,0.0,0.0,0.0,0.0,0.0,0.0,0.0,0.0,0.0,0.0,0.0,0.0,0.0,0.0,0.0,0.0,0.0,0.0,0.0,0.0,0.0,0.0,0.0,0.0,0.0,0.0,0.0,0.0,0.0,0.0,0.0,0.0,0.0,0.0,0.0,0.0,0.0,0.0,0.0,0.0,0.0,0.0,0.0,0.0,0.0,0.0,0.0,0.0,0.0,0.0,2.6325,2.6373,2.4935,2.6643,2.7344,2.7243,2.6698,2.6594,2.6701,2.4899,0.0,0.0,0.0,0.0,0.0,0.0,0.0,0.0,0.0,0.0,0.0,0.0,0.0,0.0,0.0,0.0,0.0,0.0,0.0,0.6422,0.6422,0.667,0.6807,0.678,0.6807,0.6833,0.6833,0.6833,0.0,0.0,0.0,0.7041,0.7381,0.7604,0.7924,0.8322,0.9285,0.997,1.0397,1.0783,1.083,1.0589,1.05,1.063,1.0866,0.0,0.0,0.0,0.0,0.0,0.0,0.0,0.0,0.0,0.0,0.0,0.0,0.0,0.0,0.0,0.0,0.0,0.0,0.0,0.0,0.0,0.0,0.0,0.0,0.0,0.0,0.0,0.0,0.0,0.0,0.0,0.0,0.0,0.0,0.0,0.0,0.0,0.0,0.0,0.0,0.0,1.8182,1.9269,0.0,0.0,0.0,0.0,0.0,0.0,0.0,0.0,0.0,0.0,0.0,0.0,0.0,2.4239,2.3778,2.4933,2.583,2.6527,2.7723,2.8315,2.8372,2.9104,2.918,2.8675,2.7852,0.0,2.7002,2.7398,0.0,0.0,0.0,0.0,0.0,0.0,0.0,0.0,0.0,0.0,0.0,0.0,0.0,0.0,0.0,0.0,0.0,0.0,0.0,0.0,0.0,0.7337,0.7513,0.7513,0.7671,0.7709,0.7526,0.7513,0.0,0.0,0.7869,0.8082,0.8724,0.8858,0.9618,1.1048,1.1761,1.2229,1.2458,1.2156,1.1908,1.1721,1.1551,1.1406,1.1274,1.052,0.0,0.0,0.0,0.0,0.0,0.0,0.0,0.0,0.0,0.0,0.0,0.0,0.0,0.0,0.0,0.0,0.0,0.0,0.0,0.0,0.0,0.0,0.0,0.0,0.0,0.0,0.0,0.0,0.0,0.0,0.0,0.0,0.0,0.0,0.0,0.0,0.0,0.0,0.0,1.8528,1.9649,2.1093,2.1476,2.1733,0.0,0.0,0.0,0.0,0.0,0.0,0.0,0.0,0.0,2.5435,2.5636,2.5912,2.6314,2.6465,2.6746,2.7139,2.731,2.7281,2.7105,2.7334,2.7492,2.7571,2.7196,2.7092,2.7193,2.7554,2.7262,2.659,0.0,0.0,0.0,0.0,2.5682,2.6304,0.0,0.0,0.0,0.0,0.0,0.0,0.0,0.0,0.0,0.0,0.0,0.0,0.7759,0.8204,0.8472,0.8472,0.8777,0.8858,0.8604,0.8591,0.8791,0.9232,0.8991,0.9179,0.9901,1.0142,1.1133,1.29,1.3353,1.3619,1.3711,1.3082,1.2703,1.2518,1.2163,1.1992,1.1944,1.1478,1.1416,1.1561,0.0,0.0,0.0,0.0,0.0,0.0,0.0,0.0,0.0,0.0,0.0,0.0,0.0,0.0,0.0,0.0,0.0,0.0,0.0,0.0,0.0,0.0,0.0,0.0,0.0,0.0,0.0,0.0,0.0,0.0,0.0,0.0,0.0,0.0,0.0,0.0,0.0,2.0565,2.1345,2.266,2.3018,2.3286,0.0,0.0,0.0,0.0,0.0,0.0,2.5619,2.5519,2.6063,2.7462,2.711,2.7361,2.8298,2.777,2.7663,2.7939,2.7555,2.7035,2.6465,2.659,2.6758,2.6927,2.7035,2.7336,2.7731,2.7812,2.7901,2.7997,2.8137,2.7994,2.7645,2.7412,2.7427,2.79,0.0,0.0,0.0,0.0,0.0,0.0,0.0,0.0,0.0,0.0,0.0,0.8697,0.8738,0.9485,0.9992,0.9992,1.0289,1.0479,1.0481,1.0466,1.0481,1.0506,1.0194,1.018,1.0562,1.1363,1.1971,1.2343,1.2924,1.3219,1.3239,1.2937,1.2931,1.3133,1.2545,1.3035,1.4226,1.2893,1.3115,1.4202,1.1959,0.0,0.0,0.0,0.0,0.0,0.0,0.0,0.0,0.0,0.0,0.0,0.0,0.0,0.0,0.0,0.0,0.0,0.0,0.0,0.0,0.0,0.0,0.0,0.0,0.0,0.0,0.0,0.0,0.0,0.0,0.0,0.0,0.0,0.0,0.0,0.0,0.0,0.0,2.39,2.484,0.0,0.0,0.0,0.0,2.706,2.665,2.6826,2.7871,2.7444,2.7462,2.8047,2.8047,2.8279,2.8838,2.8348,2.8599,2.9654,2.9648,2.9327,2.8737,2.9327,2.9001,2.8047,2.8555,2.8787,2.8837,2.9165,2.8222,2.6729,2.7988,2.7679,2.6625,2.711,2.7763,2.8531,0.0,0.0,0.0,0.5734,0.568,0.5728,0.5854,0.6142,0.6606,0.7337,0.8083,0.8818,0.9552,0.9912,1.0259,1.0648,1.0798,1.0691,1.0301,1.0808,1.1116,1.1116,1.0992,1.1166,1.1694,1.2807,1.3651,1.4229,1.4356,1.4471,1.4536,1.37,1.3367,1.3447,1.3047,1.3633,1.4816,1.3606,1.3345,1.372,1.3219,1.2078,0.0,0.0,0.0,0.0,0.0,0.0,0.0,0.0,0.0,0.0,0.0,0.0,0.0,0.0,0.0,0.0,0.0,0.0,0.0,0.0,0.0,0.0,0.0,0.0,0.0,0.0,0.0,0.0,0.0,0.0,0.0,0.0,0.0,0.0,0.0,0.0,0.0,2.4515,2.5502,0.0,2.6658,2.6884,2.7236,2.777,2.7638,2.7846,2.858,2.843,2.8756,2.9684,2.971,2.998,3.0507,2.998,2.991,3.0306,3.0306,3.0186,3.0011,3.0583,3.0809,3.0738,3.0939,3.1014,3.106,3.1574,3.0519,2.8755,2.9916,2.9866,2.9202,2.9748,3.0118,3.0484,0.0,0.0,0.0,0.6144,0.6098,0.6243,0.6673,0.6921,0.7366,0.8278,0.8853,0.9412,1.0035,1.0272,1.0552,1.0972,1.1186,1.1129,1.0728,1.1326,1.1699,1.1699,1.1824,1.2051,1.2457,1.3472,1.4232,1.473,1.4764,1.4807,1.4889,1.4008,1.3653,1.3754,1.3367,1.3981,1.5256,1.446,1.4366,1.4782,1.4706,1.3884,1.2734,0.0,0.0,0.0,0.0,0.0,0.0,0.0,0.0,0.0,0.0,0.0,0.0,0.0,0.0,0.0,0.0,0.0,0.0,0.0,0.0,0.0,0.0,0.0,0.0,0.0,0.0,0.0,0.0,0.0,0.0,0.0,0.0,0.0,0.0,2.433,2.5385,2.5385,2.6356,2.7185,2.7537,2.772,2.8072,2.8624,2.885,2.9176,2.971,2.9735,3.0086,3.0859,3.106,3.1411,3.1984,3.1612,3.1637,3.1968,3.1792,3.1692,3.1738,3.2089,3.234,3.2516,3.2692,3.2767,3.2817,3.3395,3.2667,3.1235,3.1783,3.1738,3.1486,3.1838,3.1984,3.2067,0.0,0.0,0.6533,0.6526,0.6542,0.684,0.7687,0.8331,0.8872,0.9372,1.017,1.0538,1.0174,1.0661,1.1025,1.1039,1.156,1.1899,1.1886,1.2158,1.2331,1.2345,1.2663,1.2843,1.283,1.3327,1.3613,1.3613,1.3948,1.4103,1.4082,1.3767,1.3794,1.4055,1.3494,1.414,1.564,1.5408,1.6238,1.7579,1.6363,1.6051,1.616,0.0,0.0,0.0,0.0,0.0,0.0,0.0,0.0,0.0,0.0,0.0,0.0,0.0,0.0,0.0,0.0,0.0,0.0,0.0,0.0,0.0,0.0,0.0,0.0,0.0,0.0,0.0,0.0,0.0,0.0,0.0,0.0,0.0,2.4155,2.5477,2.6524,2.6549,2.7487,2.8147,2.8147,2.8631,2.9208,2.9804,3.0331,3.0884,3.1411,3.1436,3.1482,3.1486,3.2014,3.2566,3.314,3.314,3.3671,3.4703,3.4198,3.3947,3.3947,3.3972,3.3696,3.3266,3.3771,3.3997,3.4073,3.4577,3.4477,3.3972,3.3391,3.314,3.3115,3.314,3.314,3.314,0.7539,0.7451,0.7277,0.6984,0.7456,0.8018,0.8396,0.868,0.9147,0.995,1.018,1.0394,1.0717,1.1072,1.1396,1.1627,1.1788,1.1801,1.1539,1.2438,1.3033,1.3227,1.3561,1.3634,1.338,1.3754,1.3961,1.3961,1.4041,1.4103,1.4103,1.4001,1.4015,1.4082,1.3921,1.4109,1.4594,1.5292,1.629,1.742,1.755,1.7347,1.6987,0.0,0.0,0.0,0.0,0.0,0.0,0.0,0.0,0.0,0.0,0.0,0.0,0.0,0.0,0.0,0.0,0.0,0.0,0.0,0.0,0.0,0.0,0.0,0.0,0.0,0.0,0.0,0.0,0.0,0.0,0.0,2.6532,2.6432,2.5896,2.6532,2.7211,2.7595,2.8254,2.8856,2.9277,2.981,3.0362,3.0909,3.1085,3.1607,3.2587,3.2638,3.2993,3.3749,3.3925,3.4076,3.4274,3.4274,3.4402,3.4703,3.4931,3.5079,3.5079,3.5504,3.5854,3.608,3.623,3.6508,3.6885,3.7036,3.701,3.6709,3.4951,3.4022,3.3721,3.4123,3.4274,3.4274,0.7705,0.7705,0.762,0.7395,0.8074,0.8809,0.9302,0.9505,0.9911,1.0781,1.0668,1.061,1.0803,1.1076,1.1316,1.1507,1.1748,1.1868,1.1779,1.266,1.3327,1.3586,1.3794,1.386,1.3807,1.4001,1.417,1.4269,1.4269,1.4335,1.4477,1.4477,1.4477,1.4477,1.4477,1.4655,1.4986,1.5591,1.6417,1.7378,1.8252,1.8483,1.8357,1.8749,1.8322,1.7467,1.7308,1.68,1.625,1.6344,0.0,0.0,0.0,0.0,0.0,0.0,0.0,0.0,0.0,0.0,0.0,0.0,0.0,0.0,0.0,0.0,0.0,0.0,0.0,0.0,0.0,0.0,0.0,0.0,2.7487,2.7688,2.7864,2.814,2.8448,2.8775,2.9478,3.0105,3.0432,3.0959,3.1512,3.2085,3.2315,3.2817,3.3721,3.3771,3.4048,3.4678,3.4929,3.5054,3.5054,3.5506,3.5755,3.5755,3.6284,3.656,3.656,3.691,3.7261,3.7538,3.7538,3.7713,3.8015,3.8015,3.8015,3.7889,0.0,0.0,0.0,0.0,3.6083,3.6083,0.7705,0.7705,0.7705,0.7705,0.8461,0.9327,1.0107,1.0372,1.0776,1.1532,1.1265,1.0907,1.0663,1.0918,1.1106,1.1106,1.1641,1.2136,1.2478,1.2973,1.3367,1.364,1.3653,1.3794,1.4082,1.4103,1.4229,1.4501,1.4501,1.4669,1.5008,1.5008,1.5008,1.5008,1.5008,1.5364,1.5992,1.6076,1.6577,1.7461,1.8556,1.9326,1.9772,1.9533,1.916,1.8695,1.8342,1.7949,1.7556,1.7191,0.0,0.0,0.0,0.0,0.0,0.0,0.0,0.0,0.0,0.0,0.0,0.0,0.0,0.0,0.0,0.0,0.0,0.0,0.0,0.0,0.0,0.0,0.0,0.0,2.7971,2.8699,2.9804,3.003,3.0055,2.9999,3.0859,3.1532,3.1607,3.2089,3.2641,3.3241,3.3721,3.4201,3.4753,3.4803,0.0,0.0,0.0,3.5708,3.5784,3.6784,3.7311,3.7311,3.7764,3.8015,3.8015,3.8015,3.804,3.809,3.809,3.814,3.8191,3.8191,3.8191,3.8191,3.8065,3.8015,3.8015,3.8015,3.8015,3.8015,0.7705,0.7705,0.7705,0.7705,0.8686,0.9543,0.9708,0.9824,1.02,1.1112,1.0668,1.0453,1.0881,1.14,1.1739,1.1739,1.2275,1.2945,1.3694,1.3607,1.3674,1.3988,1.4001,1.4028,1.4103,1.4103,1.4229,1.4501,1.4501,1.4669,1.5008,1.5008,1.5008,1.5008,1.5008,1.508,1.5243,1.5857,1.6717,1.7767,1.8642,1.9079,1.9262,2.0043,2.0077,1.9649,1.9552,1.9277,1.8983,1.9201,1.8771,1.8186,1.8555,1.8301,0.0,0.0,0.0,0.0,0.0,0.0,0.0,0.0,0.0,0.0,0.0,0.0,0.0,0.0,0.0,0.0,0.0,0.0,0.0,2.912,2.9402,2.9854,3.0954,3.1461,3.1587,3.1135,3.1662,3.224,3.2713,3.3244,3.3796,3.4327,3.4477,3.4778,3.5307,3.5332,3.5782,3.6684,3.681,3.7086,3.7488,3.7739,3.7839,3.7839,3.7965,0.0,3.8015,3.8015,3.8266,3.8743,3.8743,3.8969,3.9371,3.9371,3.9371,3.927,3.8366,3.8015,3.8015,3.8015,3.8015,3.8015,0.7705,0.7705,0.7705,0.7705,0.8425,0.9103,0.9403,0.9255,0.9483,1.0563,1.0222,1.0074,1.0501,1.1209,1.1721,1.1886,1.2564,1.3227,1.3807,1.368,1.3754,1.4089,1.4103,1.4103,1.4103,1.4103,1.4295,1.4736,1.4736,1.4963,1.5391,1.5391,1.5391,1.5391,1.5391,1.5347,1.5255,1.6009,1.6575,1.707,1.8458,1.8997,1.9116,2.0177,2.0449,2.0253,2.0253,2.0117,1.9941,1.9922,1.961,1.9298,1.9531,1.9142,1.8598,0.0,0.0,0.0,0.0,0.0,0.0,0.0,0.0,0.0,0.0,0.0,0.0,0.0,0.0,2.6389,2.7494,0.0,2.8844,2.9654,3.0251,3.0884,3.1687,3.229,3.2541,3.2286,3.2717,3.3269,3.3847,3.4148,3.4527,3.5079,3.5104,3.5481,3.6309,3.6334,3.671,3.7563,3.7588,3.7739,3.8015,3.8291,3.8442,3.8442,3.8718,3.8843,3.8843,3.8843,3.9019,3.9296,3.9296,3.9446,3.9697,3.9697,3.9697,3.9647,3.9069,3.8843,3.8843,3.8843,3.8843,3.8843,0.7705,0.7705,0.7683,0.7598,0.7977,0.8432,0.8904,0.8581,0.8701,0.984,0.9715,0.9646,0.9978,1.0805,1.153,1.2033,1.2759,1.3313,1.3586,1.36,1.3727,1.3988,1.4076,1.4103,1.4103,1.4103,1.437,1.4905,1.4981,1.5253,1.5728,1.5781,1.5808,1.5808,1.5808,1.5752,1.5755,1.6343,1.6692,1.6979,1.8502,1.9243,1.954,2.0486,2.0762,2.0605,2.0605,2.0605,2.0527,2.0156,2.0079,2.0157,2.0157,1.9786,1.9475,2.0117,2.0059,0.0,0.0,0.0,0.0,0.0,0.0,0.0,0.0,2.5217,2.498,2.7037,2.7462,2.7663,2.8323,2.9176,2.9905,3.0206,3.0984,3.1788,3.2441,3.2943,3.3341,3.352,3.3847,3.4274,3.4803,3.4853,3.513,3.5782,3.5832,3.6284,3.7287,3.7361,3.7588,3.8165,3.8165,3.8216,3.8341,3.8818,3.9044,3.907,3.9471,3.9697,3.9697,3.9697,3.9697,3.9697,3.9697,3.9697,3.9697,3.9697,3.9697,3.9697,3.9697,3.9697,3.9697,3.9697,3.9697,3.9697,0.7705,0.7705,0.7583,0.7222,0.7545,0.7853,0.7803,0.763,0.7854,0.8759,0.8895,0.9112,0.9687,1.0514,1.1494,1.2615,1.3006,1.3313,1.3586,1.36,1.3613,1.3653,1.3948,1.4103,1.4103,1.4103,1.4242,1.4563,1.4852,1.5146,1.5444,1.5688,1.5808,1.5808,1.5808,1.6183,1.6807,1.6662,1.7748,1.9562,1.9542,2.0108,2.1011,2.1541,2.127,2.0605,2.0605,2.0605,2.0605,2.0546,2.0762,2.1054,2.1054,2.1523,2.201,2.1738,2.1621,2.1544,2.1273,2.2536,2.3959,2.4096,2.5373,2.6791,0.0,2.734,2.7104,2.7853,2.8021,2.8348,2.9402,2.9704,3.0256,3.1712,3.2018,3.247,3.3571,3.3771,3.4173,3.513,3.4853,3.4828,3.5357,3.5408,3.5857,3.6935,3.701,3.7262,3.7889,3.7914,3.8191,3.8793,3.8793,3.9044,3.9496,3.9572,3.9597,3.9597,3.9672,3.9697,3.9697,3.9697,3.9697,3.9697,3.9697,3.9697,3.9697,3.9697,3.9697,3.9697,3.9697,3.9697,3.9697,3.9697,3.9697,3.9697,0.7705,0.7705,0.7576,0.717,0.7073,0.7204,0.7646,0.7144,0.7067,0.8101,0.842,0.8778,0.9351,1.0499,1.1516,1.2221,1.2524,1.2812,1.3106,1.312,1.328,1.3586,1.372,1.3908,1.4103,1.4103,1.4229,1.4501,1.4643,1.4879,1.5173,1.5271,1.5324,1.5324,1.5324,1.5868,1.6795,1.7141,1.8199,1.9688,2.0038,2.0579,2.121,2.1425,2.1445,2.1329,2.1055,2.0957,0.0,2.0957,2.1054,2.1249,2.1503,2.1659,2.1718,2.1542,2.1484,2.1767,2.305,2.4276,2.5447,2.6665,2.7385,2.7996,2.8875,2.8398,2.8021,2.89,2.9076,2.9327,3.0131,3.0783,3.1411,3.2093,3.2767,3.337,3.3822,3.4427,3.5004,3.5433,3.5882,3.6257,3.6483,3.6761,3.7312,3.814,3.8492,3.8894,3.9446,3.9445,3.9572,3.9823,4.0149,4.0249,4.0174,4.0474,4.0625,4.0625,4.0299,4.0174,4.0149,3.9848,3.9697,3.9722,4.0023,4.0174,4.0199,4.0499,4.0625,4.06,4.03,4.0174,4.0124,3.9823,3.9697,3.9697,0.7705,0.7705,0.7605,0.7322,0.6932,0.6858,0.7429,0.6859,0.6676,0.7548,0.7936,0.8456,0.9258,1.0512,1.1423,1.1734,1.2091,1.2377,1.2529,1.277,1.3086,1.3467,1.366,1.3847,1.4082,1.4103,1.4188,1.4381,1.4461,1.4629,1.4865,1.4946,1.5008,1.5008,1.5008,1.5542,1.6533,1.7424,1.8441,1.9536,2.0424,2.1016,2.1405,2.1523,2.1698,2.1857,2.1366,2.119,2.119,2.119,2.119,2.1268,2.1758,2.166,2.1405,2.1542,2.1562,2.1987,2.3979,2.5256,2.6396,2.7873,2.8515,2.9026,2.9829,2.9377,2.9126,3.0231,3.0457,3.0633,3.1185,3.1913,3.2516,3.2641,3.337,3.3997,3.4276,3.5029,3.5608,3.5932,3.6835,3.7538,3.7864,3.809,3.8542,3.9296,3.9697,4.0149,4.0675,4.0725,4.0725,4.0725,4.1102,4.1127,4.0725,4.1127,4.1302,4.1302,4.0901,4.0725,4.07,4.0325,4.0149,4.0174,4.0549,4.0725,4.075,4.1152,4.1302,4.1277,4.0876,4.0725,4.0675,4.03,3.9948,3.9697,0.7705,0.7705,0.7705,0.769,0.7351,0.7033,0.6852,0.6804,0.6843,0.7016,0.7319,0.8079,0.9527,1.049,1.1129,1.1392,1.1953,1.2184,1.1953,1.2705,1.32,1.3207,1.3774,1.4082,1.4103,1.4103,1.4095,1.4095,1.4367,1.4501,1.4514,1.4852,1.5008,1.5008,1.5008,1.5417,1.6189,1.7312,1.8483,1.9677,2.0749,2.1464,2.1935,2.2324,2.2227,2.1857,2.1366,2.119,2.119,2.119,2.119,2.1268,2.1758,2.1896,2.1974,2.2363,2.2459,2.258,2.3116,2.4893,2.658,2.6562,2.8569,3.0538,3.0563,3.0538,3.0814,3.1893,3.2139,3.2315,3.2914,3.304,3.3241,3.3746,3.3872,3.4274,3.5307,3.5483,3.5907,3.701,3.7638,3.8417,3.9521,3.917,3.9321,4.0349,4.0449,4.07,4.1252,4.1277,4.1277,4.1277,4.1275,4.1275,4.1277,4.1275,4.1302,4.1302,4.1275,4.1277,4.1277,4.1277,4.1252,4.1252,4.1277,4.1277,4.1277,4.1275,4.1302,4.1302,4.1275,4.1277,4.125,4.1277,4.0575,3.9697,0.7705,0.7705,0.7705,0.7705,0.7844,0.7908,0.7748,0.7194,0.6988,0.7527,0.7703,0.0,0.0,0.0,0.0,0.0,1.1226,1.1574,1.1886,1.2331,1.2786,1.3167,1.3567,1.386,1.4103,1.4103,1.4103,1.4103,1.4188,1.4229,1.4242,1.4357,1.441,1.441,1.441,1.495,1.586,1.6236,1.7495,1.9236,1.9594,2.0416,2.1484,2.1934,2.2012,2.1896,0.0,2.166,2.1621,2.1308,2.158,2.2088,2.2246,2.2479,2.2674,2.2537,2.2693,2.3101,2.4018,2.5018,2.6131,2.7522,2.8279,2.9187,3.1139,3.1022,3.1016,3.2943,3.2367,3.1964,3.3389,3.298,3.2983,3.469,3.5303,3.5803,3.6533,3.6634,3.7036,3.819,3.8492,3.917,4.0625,4.06,4.0802,4.1582,4.1959,4.2233,4.2409,4.2434,4.2258,4.1909,4.2233,4.2258,4.1909,4.2233,4.2434,4.2434,4.2057,4.1681,4.1302,4.1302,4.1302,4.1327,4.1731,4.1909,4.1934,4.2283,4.2434,4.2384,4.206,4.1909,4.1831,4.1453,4.1076,4.07,0.7705,0.7837,0.7942,0.7942,0.832,0.0,0.0,0.0,0.0,0.0,0.0,0.0,0.0,0.0,0.0,0.0,0.0,1.1156,1.1547,1.2024,1.2478,1.2866,1.3333,1.366,1.3774,1.3975,1.4041,1.3935,1.4041,1.4103,1.4103,1.4103,1.4103,1.4103,1.4103,1.4468,1.5171,1.5944,1.7054,1.8358,1.9219,2.0172,2.1129,2.1513,2.166,0.0,2.166,2.166,2.1602,2.1308,2.1484,2.1855,2.1991,2.244,2.2927,2.3123,2.3357,2.3786,2.4844,2.5521,2.6307,2.7866,2.8385,2.915,3.1544,3.1266,3.1126,3.3327,3.2333,3.1456,3.2611,3.2735,3.2978,3.3932,3.5541,3.6691,3.6702,3.7344,3.814,3.9095,3.9521,4.0249,4.1505,4.1779,4.2082,4.2462,4.2813,4.3014,4.3014,4.3014,4.2838,4.2487,4.2813,4.2838,4.2487,4.2838,4.3014,4.2989,4.2637,4.2286,4.1904,4.1904,4.1904,4.193,4.2336,4.2487,4.2512,4.2864,4.3014,4.2964,4.2612,4.2487,4.2436,4.2057,4.203,4.2055,0.7771,0.8125,0.8434,0.0,0.0,0.0,0.0,0.0,0.0,0.0,0.0,0.0,0.0,0.0,0.0,0.0,0.0,0.0,1.1012,1.1819,1.2301,1.2278,1.31,1.3447,1.32,1.3748,1.3908,1.3586,1.3908,1.4041,1.4041,1.4041,1.4055,1.4089,1.4153,1.4174,1.4313,1.6412,1.7191,1.722,1.9512,2.0583,2.0828,2.1043,2.1131,2.1171,2.119,2.1191,2.1171,2.1171,2.0937,2.0742,2.121,2.1932,2.283,2.4059,2.4449,2.4645,2.5464,2.6229,2.694,2.7421,2.8675,3.0182,3.1644,3.1294,3.1199,3.3052,3.2054,3.0869,3.0964,3.2412,3.3194,3.195,3.4822,3.6948,3.611,3.7685,3.9145,3.9697,4.0675,4.1528,4.216,4.2688,4.3014,4.3014,4.3014,4.3014,4.3014,4.3014,4.3014,4.3014,4.293,4.293,4.3014,4.3014,4.3014,4.3014,4.3014,4.3014,4.3014,4.3014,4.3014,4.3014,4.3014,4.3014,4.3014,4.3014,4.3014,4.3014,4.3039,4.3039,4.3039,4.309,4.3388,4.3614,0.0,0.0,0.0,0.0,0.0,0.0,0.0,0.0,0.0,0.0,0.0,0.0,0.0,0.0,0.0,0.0,0.0,0.0,1.1051,1.1992,1.241,1.2024,0.0,0.0,1.2904,1.326,1.34,1.33,1.34,1.344,1.344,1.344,1.3547,1.3761,1.4615,1.5119,1.5379,1.6723,1.7274,1.7293,1.7897,1.8687,1.9511,1.9879,2.0318,2.0801,2.1093,2.1016,2.0762,2.0762,2.1114,2.1817,2.3142,2.3728,2.4062,2.4707,2.5137,2.5347,2.5273,2.563,2.6123,2.6585,2.701,2.7824,2.9851,3.0113,3.0453,3.2239,3.1224,3.0406,3.1706,3.2092,3.2789,3.4573,3.6503,3.8016,3.861,3.9166,3.9848,4.0775,4.1152,4.1679,4.2713,4.2914,4.3014,4.3014,4.3014,4.3014,4.3014,4.3014,4.3014,4.3014,4.1842,4.1785,4.2986,4.3014,4.3014,4.3014,4.3014,4.3014,4.3014,4.3014,4.3014,4.3014,4.3014,4.3014,4.3014,4.3014,4.3014,4.3039,4.3438,4.3589,4.3639,4.4041,4.4292,4.4313,0.0,0.0,0.0,0.0,0.0,0.0,0.0,0.0,0.0,0.0,0.0,0.0,0.0,0.0,0.0,0.0,0.0,0.0,0.0,1.1947,1.2181,1.1528,1.2087,0.0,1.2189,1.2738,1.2946,1.2812,1.308,1.326,1.338,1.338,1.354,1.3883,1.4973,1.5457,1.5548,1.7083,1.7587,0.0,0.0,1.8129,1.8992,1.8905,1.9444,2.0312,2.0547,2.0723,2.0898,2.1094,2.1485,2.2148,2.3672,2.4141,2.4297,2.5117,2.5523,2.5659,2.543,2.5523,2.5815,2.6289,2.6523,2.7195,2.9236,2.9368,2.9544,3.1094,3.0027,2.9127,3.0099,3.1246,3.2464,3.3656,3.5854,3.7732,3.8617,3.9157,3.9911,4.1146,4.1729,4.2308,4.2939,4.3014,4.3014,4.3014,4.3014,4.3014,4.3014,4.3014,4.3014,4.3014,4.2121,4.1757,4.1927,4.2653,4.2653,4.1955,4.2653,4.3014,4.3014,4.3014,4.3014,4.3014,4.3014,4.314,4.3338,4.3338,4.3489,4.374,4.4041,4.4166,4.4192,4.4489,4.4765,4.4995,0.0,0.0,0.0,0.0,0.0,0.0,0.0,0.0,0.0,1.1356,1.1076,1.0923,0.0,0.0,0.0,0.0,0.0,0.0,0.0,0.0,0.0,1.1219,1.1676,1.1849,1.1676,1.2508,1.281,1.2513,1.2974,1.3376,1.3721,1.3521,1.375,1.4331,1.5292,1.561,1.558,1.7579,1.8057,1.7458,1.7689,1.8154,1.866,0.0,1.8545,1.9747,1.9864,2.0469,2.1288,2.1738,2.1954,2.2187,2.3477,2.3867,2.4121,2.5347,2.5693,2.5693,2.5693,2.5693,2.5815,2.6289,2.666,2.7317,2.8904,2.8661,2.843,2.9559,2.8655,2.7702,2.7702,3.0172,3.2031,3.1581,3.4376,3.6866,3.7673,3.8707,3.987,4.1141,4.2308,4.3014,4.3014,4.2793,4.2681,4.2681,4.246,4.246,4.2681,4.2877,4.2793,4.2375,4.2569,4.1814,3.996,4.1785,4.1984,4.0621,4.2234,4.3014,4.3014,4.309,4.3115,4.3115,4.319,4.3463,4.3915,4.3915,4.4192,4.4614,4.469,4.4715,4.4715,4.479,4.5171,4.5598,0.0,0.0,0.0,0.0,0.0,0.0,0.0,0.0,0.0,0.0,1.2332,1.1588,0.0,0.0,0.0,0.0,0.0,0.0,0.0,0.0,0.0,0.0,1.2142,1.244,1.3043,1.3484,1.3688,1.3625,1.3281,1.3543,1.4318,1.3101,1.3516,1.5342,1.5662,1.6319,1.7329,1.8601,1.8546,1.762,1.7276,1.7223,1.7293,1.6848,0.0,0.0,1.9649,2.0469,2.1288,2.1738,2.2109,2.2637,2.3884,2.4316,2.4469,2.5425,2.5693,2.5693,2.5693,2.5693,2.5815,2.6289,2.6445,2.6599,2.6908,2.7111,2.7206,2.7105,2.7432,2.7702,2.7702,2.9337,3.1288,3.3204,3.4958,3.6872,3.9031,4.023,4.1033,4.1275,4.2308,4.3014,4.3014,4.1814,4.1019,4.1019,3.9785,3.961,4.0961,4.2291,4.1785,3.9111,4.0332,3.961,3.6669,3.9552,4.088,4.0621,4.2234,4.3014,4.3014,4.3438,4.3664,4.3689,4.4141,4.4364,4.4464,4.4464,4.4514,4.464,4.5146,4.5347,4.5397,4.5849,4.6075,4.6175,0.0,0.0,0.0,0.0,0.0,0.0,0.0,1.3431,1.401,1.5284,1.4752,1.4082,1.36,1.2969,1.259,0.0,0.0,0.0,0.0,0.0,0.0,0.0,0.0,0.0,0.0,1.3492,1.3639,1.3639,0.0,1.3817,1.4387,1.3658,1.3989,1.5202,1.5833,1.6333,1.6723,1.7848,1.7872,1.7109,1.641,1.6404,1.676,0.0,0.0,0.0,1.9337,2.0274,2.1229,2.1464,2.1973,2.2695,2.375,2.4238,2.4528,2.5195,2.5523,2.5693,2.5693,2.5693,2.5815,2.6289,2.6562,2.6719,2.6719,2.7051,2.7226,2.6797,2.7051,2.7324,2.7324,2.8783,3.0465,3.1954,3.3682,3.5653,3.7889,3.8593,3.9489,4.1114,4.1568,4.1757,4.1757,4.1047,4.0245,3.9405,3.8639,3.8905,4.0505,4.1334,4.065,3.8283,3.8964,3.8587,3.7062,3.9405,4.0592,4.0621,4.2506,4.3413,4.3413,4.3966,4.4242,4.4242,4.4489,4.4765,4.507,4.507,4.5246,4.5493,4.5799,4.5924,4.5949,4.6225,4.6301,4.6301,0.0,0.0,0.0,0.0,0.0,0.0,0.0,1.4877,1.5449,1.6921,1.7038,1.6566,1.5483,1.4134,1.3196,0.0,0.0,0.0,0.0,0.0,0.0,0.0,0.0,0.0,0.0,0.0,0.0,1.3828,1.3978,0.0,0.0,0.0,0.0,0.0,1.5877,1.6075,1.5971,1.6884,1.7051,0.0,0.0,1.5898,0.0,0.0,0.0,0.0,0.0,1.998,2.1093,2.1171,2.1659,2.2362,2.3242,2.3926,2.4492,2.4965,2.5391,2.5693,2.5693,2.5752,2.5932,2.6309,2.6699,2.6947,2.6752,2.707,2.7272,2.6699,2.6738,2.6875,2.6875,2.8188,2.9527,3.0247,3.2049,3.4155,3.6376,3.6978,3.8241,4.0979,4.0901,4.0592,4.0592,4.0303,3.9434,3.7805,3.7686,3.8402,3.9989,4.01,3.9493,3.8253,3.855,3.855,3.8194,3.9902,4.0758,4.0787,4.2951,4.3966,4.3991,4.4543,4.4765,4.4819,4.4916,4.5246,4.5673,4.5673,4.5924,4.6301,4.6301,4.6301,4.6301,4.6301,4.6059,4.5732,0.0,0.0,0.0,0.0,0.0,0.0,0.0,1.5117,1.6098,1.8149,1.8108,1.7695,1.7223,1.564,1.4154,0.0,0.0,0.0,0.0,0.0,0.0,0.0,0.0,0.0,0.0,0.0,0.0,1.522,1.4818,0.0,0.0,0.0,0.0,0.0,0.0,1.585,1.6603,1.6733,0.0,0.0,0.0,0.0,0.0,0.0,0.0,0.0,0.0,1.9531,2.0703,2.1074,2.1249,2.1463,2.2342,2.3435,2.4492,2.4965,2.5391,2.5693,2.5693,2.601,2.6348,2.6412,2.6699,2.6791,2.601,2.6191,2.6269,2.5454,2.5903,2.647,2.647,2.7237,2.8333,2.9719,3.1095,3.2984,3.5851,3.7765,3.9489,4.1114,4.0901,4.0592,4.0592,3.9288,3.7753,3.6142,3.602,3.6699,3.8342,3.8432,3.8342,3.8194,3.961,3.9668,3.8223,4.0281,4.1335,4.1335,4.3519,4.4514,4.4539,4.5146,4.5422,4.5422,4.5924,4.6175,4.6225,4.6225,4.6276,4.6301,4.6301,4.6301,4.6301,4.6301,4.5312,4.3948,0.0,0.0,0.0,0.0,0.0,0.0,1.5165,1.5268,1.6074,1.9005,1.9043,1.8711,1.8572,1.7243,1.5522,1.3437,0.0,0.0,0.0,0.0,0.0,0.0,0.0,0.0,0.0,0.0,1.5396,1.5396,1.5197,0.0,0.0,0.0,0.0,0.0,0.0,1.5571,1.5922,1.5922,0.0,0.0,0.0,0.0,0.0,0.0,0.0,0.0,0.0,0.0,2.0195,2.0352,2.0781,2.1249,2.162,2.2617,2.3811,2.4473,2.5152,2.5776,2.603,2.6445,2.6758,2.6758,2.6894,2.6771,2.5913,2.5854,2.582,2.5219,2.5375,2.563,2.563,2.6333,2.7024,2.7321,2.9622,3.1779,3.2971,3.4952,3.683,3.8353,3.8034,3.8082,3.9053,3.7694,3.6081,3.4456,3.5242,3.6081,3.6721,3.7686,3.8194,3.8194,3.8817,3.9478,4.0134,4.0964,4.2043,4.3344,4.4552,4.5146,4.5171,4.5723,4.5974,4.5999,4.6225,4.6301,4.6301,4.6301,4.6301,4.621,4.5135,4.4737,4.459,4.3606,4.2769,4.2201,0.0,0.0,0.0,0.0,0.0,1.2535,1.5283,1.542,1.6187,1.8966,1.9316,1.9315,1.9315,1.7927,1.6265,1.4434,1.3431,0.0,0.0,0.0,0.0,0.0,0.0,0.0,0.0,0.0,1.5083,1.5215,1.5215,1.5278,0.0,0.0,1.5396,1.5396,0.0,0.0,0.0,0.0,0.0,0.0,0.0,0.0,0.0,0.0,0.0,0.0,0.0,0.0,0.0,0.0,0.0,2.1035,2.1151,2.1835,2.2793,2.3728,2.482,2.5776,2.6113,2.6699,2.7207,2.7207,2.7109,2.6771,2.5913,2.5503,2.5191,2.4809,2.4809,2.4887,2.4887,2.5605,2.6094,2.5757,2.8258,3.0455,3.1005,3.3022,3.4979,3.6515,3.6169,3.6265,3.7385,3.602,3.4995,3.4829,3.5427,3.6213,3.7183,3.7968,3.8627,3.911,3.9607,4.0658,4.2321,4.2519,4.337,4.4895,4.5472,4.5723,4.5748,4.6125,4.6301,4.6301,4.6301,4.6301,4.624,4.5732,4.5525,4.5373,4.3638,4.2958,4.2801,4.1629,4.086,4.044,0.0,0.0,0.0,0.0,0.0,0.0,1.4486,1.5537,1.6555,1.7852,1.8769,1.9315,1.9315,1.7396,1.6105,1.6081,1.4128,0.0,0.0,0.0,0.0,0.0,0.0,0.0,0.0,0.0,1.4342,1.4799,1.4799,1.5014,1.5396,1.5396,1.5396,1.5396,0.0,0.0,0.0,0.0,0.0,0.0,0.0,0.0,0.0,0.0,0.0,0.0,0.0,0.0,0.0,0.0,0.0,0.0,0.0,2.121,2.1463,2.273,2.4329,2.5693,2.5718,2.668,2.7682,2.7682,2.7324,2.6771,2.5913,2.5035,2.4316,2.3887,2.4141,2.4391,2.4391,2.5113,2.5718,2.5693,2.7168,2.898,3.0831,3.3057,3.5037,3.6515,3.6169,3.5806,3.5837,3.4383,3.4736,3.7925,3.669,3.7183,4.039,3.9503,3.9658,4.1294,4.291,4.4009,4.456,4.5167,4.5472,4.5497,4.605,4.6301,4.6301,4.6301,4.6301,4.6301,4.6301,4.6301,4.618,4.4436,4.3731,4.3575,4.1884,4.1245,4.1213,4.1213,4.0116,3.863,0.0,0.0,0.0,0.0,0.0,0.0,0.0,1.39,1.4578,1.6457,1.666,1.7191,1.8654,1.6914,1.5757,1.6065,1.4148,0.0,0.0,0.0,0.0,0.0,0.0,0.0,0.0,0.0,1.5215,1.5694,1.5957,1.6176,1.6278,1.6278,1.6278,1.6293,1.5996,1.5889,0.0,0.0,0.0,0.0,0.0,0.0,0.0,0.0,0.0,0.0,0.0,0.0,0.0,0.0,0.0,0.0,0.0,0.0,0.0,2.1678,2.3045,2.4531,2.5117,2.5801,2.6323,2.6323,2.6016,2.5469,2.4609,2.3942,2.3493,2.3357,2.3691,2.4082,2.4332,2.5367,2.6069,2.5757,2.7396,2.9031,2.9939,3.2633,3.439,3.4063,3.5084,3.5806,3.5806,3.6325,3.7114,3.8134,3.8735,3.919,3.9437,4.1223,4.1957,4.1265,4.1001,4.1687,4.3403,4.3627,4.4492,4.605,4.6225,4.5702,4.4528,4.4528,4.3886,4.2801,4.2801,4.2801,4.2769,4.2233,4.1979,4.182,4.0083,3.9398,3.9289,3.8088,3.751,3.7283,0.0,0.0,0.0,0.0,0.0,0.0,0.0,1.3196,1.3665,1.5151,1.5083,1.5669,1.7662,1.5981,1.4986,1.5757,1.405,0.0,0.0,0.0,0.0,0.0,0.0,0.0,0.0,1.4543,1.5293,1.6085,1.6488,1.6785,1.6957,1.7132,1.7035,1.6687,1.6445,1.6226,0.0,0.0,0.0,0.0,0.0,0.0,1.5396,0.0,0.0,0.0,0.0,0.0,0.0,0.0,0.0,0.0,0.0,0.0,0.0,0.0,2.1971,2.3086,2.4281,2.5156,2.5693,2.5693,2.5249,2.4648,2.3968,2.3435,2.3101,2.3101,2.3591,2.4102,2.4352,2.5347,2.6152,2.6186,2.7572,2.9223,3.0774,3.2528,3.3698,3.39,3.5577,3.6721,3.6721,3.7626,3.8461,3.9053,3.9649,3.9903,3.9785,4.1496,4.1977,4.0903,4.1441,4.2556,4.4166,4.4166,4.4549,4.5312,4.5312,4.4405,4.2769,4.2769,4.2201,4.1213,4.1213,4.1213,0.0,4.0505,4.0213,4.0051,3.832,3.7608,3.7495,3.6601,3.6445,3.6714,0.0,0.0,0.0,0.0,0.0,0.0,0.0,1.3203,1.36,1.3958,1.4016,1.464,1.6297,1.4674,1.3945,1.5161,0.0,0.0,0.0,0.0,0.0,0.0,0.0,0.0,0.0,1.4036,1.4869,1.6183,1.6602,1.7035,1.7497,1.791,1.764,1.6824,1.6804,1.6523,0.0,0.0,0.0,0.0,1.5371,1.5376,0.0,0.0,0.0,0.0,0.0,0.0,0.0,0.0,0.0,0.0,0.0,0.0,0.0,0.0,0.0,0.0,0.0,2.4508,2.5484,2.5499,2.4918,2.4196,2.3828,2.3376,0.0,2.3251,2.3963,2.4552,2.4568,2.5425,2.633,2.6959,2.7852,2.9613,3.2868,3.2917,3.3447,3.5701,3.7295,3.8194,3.8194,3.8313,3.9046,4.0697,3.9854,3.9861,4.1241,4.0915,4.0599,4.0369,4.3626,4.5535,4.5914,4.5823,4.5013,4.3544,4.3544,4.2643,4.102,4.102,4.0956,4.0827,4.0827,4.0827,4.0698,3.9092,3.842,3.8254,3.666,3.604,3.6113,3.6562,3.6753,3.6753,0.0,0.0,0.0,0.0,0.0,0.0,0.0,0.0,0.0,0.0,1.3184,1.3457,1.4166,1.3516,1.3294,0.0,0.0,0.0,0.0,0.0,0.0,0.0,0.0,0.0,0.0,1.5405,1.6109,1.7086,1.75,1.7913,1.8342,1.8789,1.8693,1.8149,1.7835,1.6898,0.0,0.0,0.0,0.0,1.4955,1.5137,0.0,0.0,0.0,0.0,1.7109,1.7637,0.0,0.0,0.0,0.0,0.0,0.0,0.0,0.0,2.0977,2.1288,2.1698,0.0,2.3318,2.3627,2.3549,2.3396,0.0,2.2947,2.309,2.4688,2.5551,2.6073,2.6266,2.8495,2.9689,2.7849,2.913,3.1152,3.3436,3.5521,3.6995,3.7574,3.7985,3.8194,3.8194,3.9317,4.0874,4.2913,4.2778,4.2613,4.2488,4.3639,4.3259,4.1043,4.3044,4.3581,4.2391,4.1085,4.0892,4.1788,4.1788,4.0892,3.9223,3.9223,3.8465,3.7206,3.7206,3.7206,3.7193,3.6755,3.6606,3.6612,3.6558,3.6558,3.6597,3.6992,3.7148,3.7187,0.0,0.0,0.0,0.0,0.0,0.0,0.0,0.0,0.0,0.0,0.0,1.2981,1.3203,1.304,0.0,0.0,0.0,0.0,0.0,0.0,0.0,0.0,0.0,0.0,0.0,1.5968,1.6613,1.7692,1.8069,1.8401,1.8617,1.9259,1.9043,1.801,1.7402,1.6598,0.0,0.0,0.0,1.4478,1.4478,0.0,0.0,0.0,0.0,0.0,1.7227,1.7656,0.0,1.8457,1.875,1.8986,0.0,0.0,0.0,0.0,2.0605,2.0957,2.1152,2.1991,2.2812,2.283,2.3123,2.3415,2.3415,2.4023,2.4989,2.63,2.7131,2.7889,2.8641,3.0093,3.0665,2.914,3.1243,3.3396,3.4352,3.6631,3.8194,3.8194,3.8641,3.9326,4.0308,4.1191,4.2262,4.3708,4.3523,4.2891,4.1769,4.2853,4.2459,4.0083,4.0869,4.1309,4.1213,4.0246,3.9856,4.0018,4.0018,3.9092,3.7408,3.7408,3.689,3.5982,3.5982,3.5982,3.6001,3.623,3.6309,3.6367,3.6797,3.6988,3.6992,3.7207,3.7305,3.7324,0.0,0.0,0.0,0.0,0.0,0.0,0.0,0.0,0.0,0.0,0.0,0.0,0.0,0.0,0.0,0.0,0.0,0.0,0.0,0.0,0.0,0.0,0.0,0.0,0.0,0.0,1.6832,1.791,1.8422,1.8734,1.8812,1.9688,1.9238,1.7653,1.6637,1.6163,0.0,0.0,1.4459,1.4081,1.4023,0.0,0.0,0.0,0.0,0.0,0.0,0.0,0.0,1.8848,1.9141,1.9258,1.9687,0.0,0.0,0.0,0.0,0.0,2.1211,2.2538,2.3604,2.2722,2.3105,2.3775,2.4117,2.5567,2.7144,2.8174,2.8969,2.9864,3.1181,3.1404,3.1278,3.0912,3.3785,3.6022,3.5849,3.7629,3.8846,3.8609,3.9515,4.0809,4.2466,4.2849,4.3212,4.3765,4.3244,4.2225,4.0683,4.0927,4.0254,3.8453,3.845,3.9084,4.0298,4.0364,3.966,3.8221,3.8221,3.7441,3.5982,3.5982,3.5982,3.5982,3.5982,3.6055,3.6152,3.6558,3.6753,3.6851,3.7226,3.7402,3.7402,3.7402,3.7402,3.7402,0.0,0.0,0.0,0.0,0.0,0.0,0.0,0.0,0.0,0.0,0.0,0.0,0.0,0.0,0.0,0.0,0.0,0.0,0.0,0.0,0.0,0.0,0.0,0.0,0.0,0.0,0.0,1.7497,1.8633,1.9375,1.9727,2.0605,2.0293,1.8944,1.7327,1.6426,1.6022,1.4746,1.4172,1.4062,1.3737,0.0,0.0,0.0,0.0,0.0,0.0,0.0,0.0,1.8147,1.842,1.8791,1.9258,0.0,0.0,0.0,0.0,0.0,2.1787,2.4179,2.6,2.3208,2.2849,2.3683,2.5499,2.5878,2.6886,3.065,3.1573,3.2018,3.3078,3.4486,3.504,3.3663,3.631,3.8579,3.8671,4.0757,4.1757,4.039,4.1184,4.1589,4.1028,4.2206,4.3212,4.3765,4.3244,4.2634,4.2026,4.1096,3.9658,3.7582,3.7832,3.7443,3.6283,3.6609,3.6674,3.6403,3.6403,3.6253,3.5982,3.5982,3.5982,3.5982,3.5982,3.623,3.6616,3.6675,3.691,3.7246,3.7656,3.7832,3.7832,3.7832,3.7832,3.7832,0.0,0.0,0.0,0.0,0.0,0.0,0.0,0.0,0.0,0.0,0.0,0.0,0.0,0.0,0.0,0.0,0.0,0.0,0.0,0.0,0.0,0.0,0.0,0.0,0.0,0.0,0.0,1.8049,1.9571,2.0312,2.0273,1.9708,1.9162,1.8535,1.7031,1.6265,1.6046,1.5176,1.4523,1.4081,0.0,0.0,0.0,0.0,0.0,0.0,0.0,0.0,0.0,0.0,1.8442,1.8725,1.9414,0.0,0.0,0.0,0.0,0.0,2.3038,2.4394,2.5566,2.5274,2.634,2.7741,2.8728,2.9755,3.0997,3.2628,3.284,3.3307,3.5234,3.5547,3.6173,3.811,3.8158,3.8404,3.9807,4.0226,4.0353,4.0183,4.0596,4.1048,4.1405,4.2423,4.2878,4.2543,4.2561,4.1703,3.9702,3.906,3.788,3.5949,3.6054,3.5923,3.5424,3.5586,3.5801,3.5982,3.5982,3.6352,3.6963,3.6305,3.6471,3.726,3.666,3.6621,3.7031,3.7246,3.7461,3.7676,3.8105,3.8281,3.8242,3.7972,3.7894,3.7855,0.0,0.0,0.0,0.0,0.0,0.0,0.0,0.0,0.0,0.0,0.0,0.0,0.0,0.0,0.0,0.0,0.0,0.0,0.0,0.0,0.0,0.0,0.0,0.0,0.0,0.0,1.8498,1.8909,2.0644,2.1309,2.0859,1.9316,1.8496,1.8262,1.7067,1.6496,1.6359,1.5684,1.5011,1.4387,0.0,0.0,0.0,0.0,0.0,0.0,0.0,0.0,0.0,0.0,0.0,0.0,0.0,0.0,0.0,2.1752,2.2484,2.3376,2.409,2.5048,2.6319,2.8138,2.9533,3.0692,3.1454,3.3053,3.4366,3.451,3.4424,3.5007,3.7195,3.6797,3.7254,4.075,3.9531,3.8802,4.0706,3.9912,3.943,4.0274,4.0242,4.0741,4.2226,4.2763,4.2492,4.1309,4.1864,4.0868,3.7672,3.7266,3.6621,3.5549,3.5251,3.5491,3.6224,3.6426,3.6549,3.6606,3.6473,3.6977,3.7963,3.6897,3.7018,3.794,3.7088,3.6973,3.7461,3.7757,3.7952,3.8105,3.8437,3.8552,3.8398,3.8164,3.7913,3.7718,0.0,0.0,0.0,0.0,0.0,0.0,0.0,0.0,0.0,0.0,0.0,0.0,0.0,0.0,0.0,0.0,0.0,0.0,0.0,0.0,0.0,0.0,0.0,0.0,0.0,1.8965,1.9394,1.9805,2.1542,2.2207,2.1798,2.084,1.998,1.9178,1.8262,0.0,0.0,0.0,1.5357,1.5239,1.4426,0.0,0.0,0.0,0.0,0.0,0.0,0.0,0.0,0.0,0.0,0.0,0.0,0.0,2.1782,2.1376,2.296,2.4755,2.4318,2.7466,3.1004,3.1614,3.0024,2.9145,3.2248,3.3073,3.3928,3.6423,3.7317,3.7867,3.8642,3.9518,3.9766,3.8764,4.0403,4.1888,4.2046,4.1988,4.1936,4.2021,4.1543,4.1645,4.2811,4.2989,4.2344,4.0779,4.1561,4.0958,3.8291,3.7136,3.6962,3.7916,3.691,3.7082,3.8617,3.9503,3.9443,3.8399,3.7916,3.7981,3.8501,3.796,3.7345,3.6828,3.6729,3.7129,3.7835,3.7874,3.8164,3.8535,3.8591,3.832,3.7991,3.8398,3.8027,3.7461,0.0,0.0,0.0,0.0,0.0,0.0,0.0,0.0,0.0,0.0,0.0,0.0,0.0,0.0,0.0,0.0,0.0,0.0,0.0,0.0,0.0,0.0,0.0,1.6602,1.8559,1.959,2.0449,2.1133,2.2303,2.2401,2.1445,2.0566,1.957,1.8477,0.0,0.0,0.0,0.0,0.0,1.5777,1.5161,1.4908,0.0,0.0,0.0,0.0,0.0,0.0,0.0,0.0,1.8327,1.8924,1.999,2.0897,2.1823,2.3054,2.4626,2.6178,2.7352,2.9251,3.1354,3.3236,3.2963,3.2805,3.5125,3.6207,3.6898,3.7565,3.7739,3.7988,3.8548,3.9947,4.0789,4.0254,4.1004,4.1656,4.1656,4.1959,4.206,4.1681,4.2057,4.2384,4.2487,4.2813,4.2319,4.0707,4.0972,4.0293,3.8305,3.7802,3.7764,3.8194,3.7772,3.7984,3.8902,3.8264,3.8515,3.9657,3.874,3.8954,3.9996,3.7703,3.7381,3.8519,3.7485,3.7539,3.832,3.832,3.8418,3.8611,3.8611,3.8476,3.8359,3.8516,3.8415,3.818,0.0,0.0,0.0,0.0,0.0,0.0,0.0,0.0,0.0,0.0,0.0,0.0,0.0,0.0,0.0,0.0,0.0,0.0,0.0,0.0,0.0,0.0,0.0,1.6445,1.8186,1.9511,2.0742,2.1915,2.244,2.2069,2.0781,1.9903,1.9103,0.0,0.0,0.0,0.0,0.0,0.0,0.0,1.5586,1.5396,0.0,0.0,0.0,0.0,0.0,0.0,0.0,0.0,1.8411,1.863,1.9814,2.0815,2.192,2.3679,2.5524,2.7427,2.9332,3.0842,3.2399,3.4447,3.523,3.5881,3.7411,3.8341,3.8894,3.8793,3.8675,3.8626,3.8701,3.9967,4.0891,4.0411,4.0881,4.1302,4.1302,4.1656,4.1831,4.163,4.2258,4.2663,4.2462,4.2788,4.2319,4.0707,4.1076,4.065,3.9053,3.8491,3.8432,3.8935,3.8461,3.844,3.8902,3.8477,3.8962,4.0293,3.913,3.919,4.0159,3.7678,3.7354,3.8697,3.7698,3.7695,3.8379,3.8552,3.8611,3.8611,3.8611,3.8611,3.8611,3.8611,3.8611,3.8611,0.0,0.0,0.0,0.0,0.0,0.0,0.0,0.0,0.0,0.0,0.0,0.0,0.0,0.0,0.0,0.0,0.0,0.0,1.2915,1.3659,0.0,0.0,0.0,1.6496,1.736,1.865,2.0156,2.1896,2.1915,2.1211,1.9864,1.9007,0.0,0.0,0.0,0.0,0.0,0.0,0.0,0.0,1.5586,1.5396,1.5396,0.0,0.0,0.0,0.0,0.0,0.0,0.0,1.9293,1.9293,1.9309,2.0494,2.2028,2.2707,2.5379,2.8369,2.958,3.2258,3.4828,3.5357,3.6359,3.7512,3.8642,3.8894,3.9195,4.03,4.0499,4.0227,3.9286,3.9891,4.0026,3.856,3.9991,4.1275,4.1275,4.1302,4.1528,4.211,4.2185,4.2439,4.2964,4.3014,4.2347,4.0736,4.2121,4.2291,4.0678,3.9082,3.8964,4.0534,3.9023,3.844,3.8902,4.1001,4.1459,4.0262,3.9097,3.8564,3.8597,3.8038,3.7412,3.6734,3.7109,3.7539,3.7933,3.8398,3.8611,3.8611,3.8611,3.8611,3.8611,3.8611,3.8611,3.8611,0.0,0.0,0.0,0.0,0.0,0.0,0.0,0.0,0.0,0.0,0.0,0.0,0.0,0.0,0.0,0.0,0.0,0.0,1.2915,1.3659,1.41,1.41,0.0,0.0,0.0,0.0,1.9669,2.1405,2.1738,2.1075,1.9473,0.0,0.0,0.0,0.0,0.0,0.0,0.0,0.0,0.0,0.0,1.5684,1.5435,0.0,0.0,0.0,0.0,0.0,0.0,0.0,0.0,0.0,1.983,2.0837,2.1973,2.4155,2.6364,2.8518,3.0442,3.2504,3.4449,3.5803,3.6683,3.7612,3.912,3.917,3.9195,4.03,4.0499,4.0419,4.0143,4.031,4.0217,3.94,4.0086,4.0725,4.0725,4.143,4.2009,4.2187,4.2537,4.2838,4.2989,4.3014,4.2793,4.2319,4.2737,4.2291,4.0678,4.0158,3.9581,3.8935,3.8769,3.8768,3.8902,3.8684,3.8568,3.8519,3.7044,3.7265,3.8959,3.7273,3.6748,3.7109,3.6934,3.7266,3.7933,3.8398,3.8611,3.8611,3.8611,3.8611,3.8611,3.8611,3.8611,3.8611,0.0,0.0,0.0,0.0,0.0,0.0,0.0,0.0,1.0293,1.0293,1.0293,1.0381,0.0,0.0,0.0,1.1922,1.2363,0.0,1.2895,1.3503,1.3938,1.4081,1.4771,1.5464,1.61,1.7598,1.881,1.9688,2.0644,2.0312,0.0,0.0,0.0,0.0,0.0,0.0,0.0,0.0,0.0,0.0,0.0,1.6055,1.5718,0.0,0.0,0.0,0.0,0.0,0.0,0.0,0.0,0.0,1.9748,2.0927,2.2462,2.5268,2.7517,2.971,3.2616,3.4274,3.5604,3.7286,3.7788,3.819,3.9421,3.9772,4.0099,4.0978,4.0827,4.0499,4.0499,4.035,4.0149,4.0049,4.03,4.0676,4.1103,4.1758,4.2288,4.2487,4.2788,4.3014,4.3014,4.3014,4.3014,4.3014,4.2404,4.1615,4.065,3.9405,3.832,3.7549,3.8442,3.849,3.7508,3.807,3.7942,3.7067,3.6095,3.6453,3.7895,3.659,3.6309,3.6797,3.6875,3.7305,3.7933,3.8398,3.8611,3.8611,3.8611,3.8611,3.8611,3.8611,3.8611,3.8611,0.0,0.0,0.0,0.0,0.0,0.0,0.0,1.0293,1.0293,1.0293,1.0293,1.0293,0.0,0.0,0.0,1.1497,1.1942,1.2391,1.2805,1.3242,1.3659,1.4036,1.4531,1.5204,1.6026,1.7246,1.7715,1.7399,1.9043,0.0,0.0,0.0,0.0,0.0,0.0,0.0,0.0,0.0,0.0,0.0,0.0,1.6465,1.6105,1.6144,0.0,0.0,0.0,0.0,0.0,0.0,0.0,0.0,1.9502,2.0992,2.3244,2.5967,2.8511,3.1265,3.5077,3.6533,3.7411,3.9094,3.9346,3.9245,3.9672,4.0549,4.1428,4.1884,4.1155,4.0424,4.0424,4.0074,3.9923,4.0399,4.0601,4.1028,4.2034,4.2263,4.2436,4.2939,4.3014,4.3014,4.3014,4.3014,4.3014,4.3014,4.1643,4.076,4.0692,3.776,3.6316,3.6801,3.8002,3.7676,3.5638,3.8476,3.858,3.5982,3.5982,3.5982,3.5982,3.5982,3.5982,3.604,3.6894,3.7461,3.7851,3.832,3.8552,3.8552,3.8591,3.8611,3.8611,3.8611,3.8611,3.8611,0.0,0.0,0.0,0.0,0.0,0.0,1.0293,1.0293,1.0293,1.0293,1.0293,1.0293,1.0293,1.0664,0.0,1.1035,1.1766,1.2231,1.234,1.3074,1.3542,1.362,1.4375,1.5034,1.5547,1.6488,1.7113,1.7399,1.8768,0.0,0.0,0.0,0.0,0.0,0.0,0.0,0.0,0.0,0.0,0.0,0.0,1.6465,1.6124,1.6445,1.6426,0.0,0.0,0.0,0.0,0.0,0.0,0.0,2.1116,2.198,2.3215,2.581,2.7844,2.9935,3.2968,3.45,3.5732,3.7839,3.9571,4.07,4.04,4.0826,4.1102,4.0375,4.0049,3.9873,3.9873,4.0124,4.0375,4.0474,4.1229,4.1909,4.2187,4.2562,4.2864,4.2989,4.3014,4.3014,4.3014,4.3014,4.3014,4.3014,4.2681,4.2123,4.1274,3.9295,3.8511,3.913,3.7197,3.6554,3.7339,3.7082,3.6608,3.5982,3.5982,3.5982,3.5982,3.5982,3.5982,3.6021,3.6582,3.689,3.6992,3.7754,3.8066,3.8105,3.8474,3.8611,3.8611,3.8611,3.8611,3.8611,0.0,0.0,0.0,0.0,0.0,0.0,0.0,0.0,1.0518,1.0332,1.0293,1.0293,1.0293,1.0479,0.0,0.0,1.1317,1.1755,1.2172,1.2632,1.3074,1.3483,1.4121,1.4668,1.5098,1.5957,1.6539,1.6789,1.7849,0.0,0.0,0.0,0.0,0.0,0.0,0.0,0.0,0.0,0.0,0.0,0.0,0.0,0.0,1.7074,1.7306,1.7384,1.8072,0.0,0.0,0.0,0.0,0.0,0.0,0.0,2.3247,2.6058,2.7548,2.9155,3.3161,3.4452,3.523,3.7462,3.9671,4.1102,4.03,4.0725,4.1001,3.9923,3.9697,3.9772,4.0049,4.0325,4.0701,4.1229,4.1808,4.2313,4.2537,4.2813,4.3014,4.3014,4.3014,4.3014,4.3014,4.3014,4.3014,4.3014,4.2538,4.1986,4.1412,4.0127,3.9245,3.8949,3.823,3.7574,3.6996,3.7172,3.6823,3.5982,3.5982,3.5982,3.5982,3.5982,3.5982,3.6035,3.6519,3.6714,3.6773,3.7578,3.7894,3.7969,3.8398,3.8611,3.8611,3.8611,3.8611,3.865,0.0,0.0,0.0,0.0,0.0,0.0,0.0,0.0,0.0,1.0342,1.0293,1.0293,1.0293,1.0293,1.044,0.0,0.0,0.0,1.2187,1.2385,1.2771,1.3477,1.3835,1.4211,1.4682,1.5522,1.5987,1.5987,1.6774,0.0,0.0,0.0,0.0,0.0,0.0,0.0,0.0,0.0,0.0,0.0,0.0,0.0,0.0,0.0,0.0,0.0,1.9258,1.9916,2.0623,2.0767,0.0,0.0,0.0,0.0,2.3239,2.5975,2.7085,2.8497,3.3358,3.4967,3.5732,3.7663,3.9721,4.1051,4.0074,4.06,4.1026,4.0049,3.9747,3.9848,4.0399,4.0575,4.0978,4.2009,4.2288,4.2487,4.2939,4.3014,4.3014,4.3014,4.3014,4.3014,4.3014,4.3014,4.3039,4.314,4.2294,4.1913,4.2105,4.0753,3.9663,3.8927,3.9462,3.8655,3.6471,3.7575,3.7441,3.5982,3.5982,3.5982,3.5982,3.5982,3.5982,3.6001,3.6406,3.6636,3.6773,3.75,3.7816,3.7969,3.8398,3.8611,3.8611,3.8611,3.865,3.873,0.0,0.0,0.0,0.0,0.0,0.0,0.0,0.0,0.0,0.0,1.0293,1.0293,1.0293,1.0293,1.0332,1.0391,1.0703,1.1343,1.2392,0.0,0.0,1.3489,1.3542,1.3776,1.4192,1.5044,1.5493,1.5493,1.6026,0.0,0.0,0.0,0.0,0.0,0.0,0.0,0.0,0.0,0.0,0.0,0.0,0.0,0.0,0.0,0.0,0.0,0.0,2.0166,2.0719,2.1487,2.1799,0.0,0.0,0.0,2.2965,2.4243,2.5637,2.7426,3.0577,3.4433,3.7764,3.8592,4.0049,4.1152,4.0524,4.0851,4.1127,4.0499,4.0023,3.9848,4.0399,4.0876,4.1403,4.2085,4.2587,4.2914,4.2989,4.3014,4.3014,4.3014,4.3014,4.3014,4.3014,4.3014,4.319,4.3664,4.354,4.3929,4.4901,4.1954,4.1089,4.2872,3.8821,3.7112,3.8254,3.6991,3.6253,3.5982,3.5982,3.5982,3.5982,3.5982,3.5982,3.5982,3.6074,3.6328,3.6734,3.7187,3.7598,3.7969,3.8398,3.8611,3.8611,3.8611,3.8809,3.9121,0.0,0.0,0.0,0.0,0.0,0.0,0.0,0.0,0.0,0.0,0.0,1.0293,1.0293,1.0293,1.0293,1.0293,1.1005,1.2016,1.3302,1.3652,1.3766,1.3671,1.3343,1.3359,1.3756,1.4348,1.481,1.5059,0.0,0.0,0.0,1.7168,1.7285,0.0,0.0,0.0,0.0,0.0,0.0,0.0,0.0,0.0,0.0,0.0,0.0,0.0,0.0,0.0,2.1358,2.1459,2.182,2.2179,2.1808,0.0,0.0,0.0,2.3917,2.6004,3.079,3.4531,3.7386,3.8592,3.9647,4.0399,4.0501,4.0675,4.0775,4.0549,4.0074,3.9848,4.0399,4.0951,4.1503,4.2085,4.2637,4.3014,4.3014,4.3014,4.3014,4.3014,4.3014,4.3014,4.3014,4.3014,4.3212,4.3765,4.4091,4.4186,4.4037,4.2869,4.1791,4.0869,3.863,3.7341,3.7159,3.6369,3.5982,3.5982,3.5982,3.5982,3.5982,3.5982,3.5982,3.5982,3.5982,3.6269,3.6714,3.691,3.7324,3.7913,3.8144,3.8359,3.865,3.8828,3.9043,3.9277,0.0,0.0,0.0,0.0,0.0,0.0,0.0,0.0,0.0,0.0,0.0,1.0685,1.0845,0.0,0.0,0.0,1.181,1.2724,1.3772,1.3953,1.3886,1.3588,1.3286,1.3192,1.334,1.3737,1.4127,1.4467,0.0,0.0,1.6707,1.7168,1.7575,0.0,1.6969,0.0,0.0,0.0,0.0,0.0,0.0,0.0,0.0,0.0,0.0,0.0,0.0,0.0,2.2517,2.2094,2.1916,2.1724,2.112,2.1162,0.0,0.0,0.0,2.5554,3.0687,3.3792,3.6029,3.7989,3.8994,3.9697,4.0499,4.07,4.075,4.0902,4.0375,4.0023,4.0424,4.0826,4.1327,4.206,4.2537,4.2838,4.2989,4.3014,4.3014,4.3014,4.3014,4.3014,4.3014,4.3014,4.3291,4.3966,4.3991,4.3722,4.3143,4.2654,4.1223,3.8663,3.8154,3.7307,3.6016,3.5982,3.5982,3.5982,3.5982,3.5982,3.5982,3.5982,3.5982,3.5982,3.5982,3.6269,3.6714,3.6714,3.7168,3.7894,3.8047,3.8359,3.8789,3.9219,3.9453,3.9629,0.0,0.0,0.0,0.0,0.0,0.0,0.0,0.0,0.0,0.0,0.0,1.1744,1.231,1.2404,1.2614,1.3183,1.3299,1.3274,1.3156,1.4101,1.4153,1.2992,1.3457,0.0,1.2935,1.332,1.3542,0.0,0.0,0.0,1.6707,1.7168,1.8044,1.9159,1.8281,1.7734,1.7516,0.0,0.0,0.0,0.0,0.0,0.0,0.0,0.0,0.0,0.0,0.0,2.4327,2.412,2.2263,2.0249,2.1452,2.1985,2.2217,0.0,0.0,0.0,2.8802,3.1245,3.3919,3.6632,3.8115,3.9346,4.0901,4.1277,4.1428,4.1984,4.1229,4.0449,4.0474,4.0524,4.0902,4.2009,4.2238,4.2439,4.2939,4.3014,4.3014,4.3014,4.3014,4.3014,4.3014,4.3014,4.3413,4.4464,4.3109,4.2643,4.3605,4.0612,3.8795,3.8597,3.6991,3.6084,3.5982,3.5982,3.5982,3.5982,3.5982,3.5982,3.5982,3.5982,3.5982,3.5982,3.5982,3.6269,3.6714,3.6714,3.7168,3.7933,3.8379,3.8789,3.9219,3.9687,4.0117,4.043,0.0,0.0,0.0,0.0,0.0,0.0,0.0,0.0,0.0,0.0,0.0,0.0,0.0,0.0,0.0,0.0,0.0,0.0,0.0,1.3835,1.3476,1.305,1.2616,1.2411,1.2449,1.2593,0.0,0.0,0.0,1.4869,1.5883,1.6914,1.748,1.764,1.7874,1.793,1.7863,1.8944,0.0,0.0,0.0,0.0,0.0,0.0,0.0,0.0,0.0,0.0,0.0,2.4525,2.3348,2.1912,2.0938,2.1935,2.3577,2.4055,2.4636,2.5754,2.863,2.998,3.1333,3.4626,3.638,3.7713,3.9371,4.03,4.0951,4.153,4.1001,4.0499,4.0499,4.0499,4.0625,4.1028,4.1733,4.2288,4.2436,4.2788,4.3014,4.3014,4.3014,4.3014,4.3014,4.3014,4.2988,4.3006,4.2455,4.1614,4.0471,3.9289,3.8088,3.6958,3.6336,3.5982,3.5982,3.5982,3.5982,3.5982,3.5982,3.5982,3.5982,3.5982,3.5982,3.5982,3.5982,3.6269,3.6675,3.6367,3.707,3.834,3.8203,3.8769,3.9707,4.0137,4.0391,4.0528,0.0,0.0,0.0,0.0,0.0,0.0,0.0,0.0,0.0,0.0,0.0,0.0,0.0,0.0,0.0,0.0,1.3817,1.4205,1.4664,1.3691,1.3008,1.2815,1.222,1.199,1.2203,0.0,0.0,0.0,0.0,0.0,0.0,0.0,1.709,1.6957,1.7679,1.7835,0.0,0.0,0.0,1.9116,0.0,0.0,2.7674,0.0,0.0,0.0,3.1141,2.9481,2.7829,2.7337,2.6235,2.474,2.2623,2.2748,0.0,0.0,0.0,0.0,2.7455,2.8117,2.8826,3.2207,3.3935,3.5478,3.7961,3.9076,3.9947,4.1297,4.1152,4.0775,4.0775,4.0775,4.07,4.0524,4.1128,4.1708,4.1884,4.2386,4.2738,4.2738,4.2889,4.3014,4.3014,4.2513,4.2095,4.1858,4.0959,3.9842,3.8423,3.7972,3.7193,3.605,3.5982,3.5982,3.5982,3.5982,3.5982,3.5982,3.5982,3.5982,3.5982,3.5982,3.5982,3.5982,3.5982,3.6191,3.6445,3.6289,3.6992,3.8164,3.8301,3.8984,3.9961,4.0527,4.0742,4.0781,0.0,0.0,0.0,0.0,0.0,0.0,0.0,0.0,0.0,0.0,0.0,0.0,0.0,0.0,0.0,0.0,1.4502,1.406,1.4628,1.3678,1.2815,1.2227,0.0,0.0,0.0,0.0,0.0,0.0,0.0,0.0,0.0,0.0,1.6898,0.0,1.7793,1.7522,1.6863,0.0,1.9043,1.9179,0.0,2.778,2.7295,0.0,0.0,3.4542,3.2909,3.2756,3.3208,3.2632,3.0764,2.8369,2.6563,0.0,0.0,0.0,0.0,0.0,0.0,0.0,0.0,2.9374,3.0878,3.2719,3.6761,3.7719,3.857,4.1513,4.1681,4.1302,4.1302,4.1302,4.1127,4.06,4.0524,4.07,4.1227,4.1781,4.2187,4.2187,4.2637,4.2961,4.2933,4.1505,4.0777,4.1211,3.8671,3.7305,3.7819,3.6683,3.5982,3.5982,3.5982,3.5982,3.5982,3.5982,3.5982,3.5982,3.5982,3.5982,3.5982,3.5982,3.6035,3.6001,3.6001,3.6035,3.606,3.6538,3.6934,3.7461,3.8691,3.9492,4.0019,4.0878,4.1211,4.1211,0.0,0.0,0.0,0.0,0.0,1.36,1.388,0.0,0.0,0.0,0.0,0.0,0.0,0.0,0.0,0.0,1.4349,1.4125,1.385,1.2961,1.2368,1.2203,1.1975,1.1957,0.0,0.0,0.0,0.0,0.0,0.0,0.0,0.0,0.0,0.0,1.707,1.7773,1.813,1.8945,0.0,1.907,2.4404,2.7146,2.843,3.2133,3.4525,3.5857,3.5402,3.4326,3.3189,3.3405,3.1106,2.7823,2.6112,0.0,0.0,0.0,0.0,0.0,2.3633,0.0,0.0,0.0,0.0,0.0,3.4262,3.6637,3.8688,4.0113,4.0902,4.1302,4.1302,4.0976,4.08,4.1051,4.1076,4.1001,4.075,4.1202,4.1528,4.1528,4.2085,4.1972,4.0805,4.0636,3.9819,3.7995,3.7115,3.6502,3.611,3.6051,3.5982,3.5982,3.5982,3.5982,3.5982,3.5982,3.5982,3.5982,3.5982,3.5982,3.5982,3.5982,3.6191,3.6484,3.6484,3.666,3.6934,3.6792,3.732,3.8298,3.8613,3.9414,4.0333,4.0605,4.0898,4.1211,0.0,0.0,1.3381,1.4052,1.4235,1.4361,1.4615,1.5433,0.0,0.0,0.0,0.0,0.0,0.0,0.0,0.0,1.4544,1.4517,1.4419,1.3525,1.2925,1.2749,1.2168,1.1953,1.2192,0.0,0.0,0.0,0.0,0.0,0.0,0.0,0.0,0.0,0.0,0.0,1.8695,0.0,0.0,0.0,2.4974,2.7631,2.9029,3.2464,3.4867,3.6359,3.6106,3.5308,3.4534,3.5868,3.3339,2.9443,2.8208,0.0,0.0,0.0,0.0,0.0,0.0,0.0,0.0,0.0,0.0,0.0,3.2736,3.5303,3.7744,3.9937,4.0876,4.1302,4.1302,4.1227,4.1229,4.1302,4.1302,4.1202,4.0876,4.1329,4.1605,4.1327,4.1831,4.1558,3.9972,3.9468,3.8408,3.636,3.5778,3.5469,3.5399,3.5625,3.584,3.5982,3.5982,3.5982,3.5982,3.5982,3.5982,3.5982,3.5982,3.5982,3.6035,3.6211,3.6426,3.6714,3.689,3.7168,3.7539,3.7305,3.7637,3.8379,3.9101,3.9746,4.0312,4.0664,4.0957,4.1211,0.0,0.0,1.3878,1.5067,1.5474,1.5649,1.5679,1.6961,1.7323,0.0,0.0,0.0,0.0,0.0,0.0,0.0,0.0,1.5081,1.5629,1.4759,1.4036,1.3581,1.2827,1.2379,1.2281,1.2281,0.0,0.0,0.0,0.0,0.0,0.0,0.0,0.0,1.721,1.8303,1.8986,2.1347,2.2212,2.2328,2.6778,2.8787,2.9443,3.2794,3.5158,3.6589,3.6063,3.61,3.6704,3.8658,3.632,3.2365,3.1251,2.7503,0.0,0.0,2.1566,0.0,0.0,0.0,0.0,0.0,0.0,0.0,3.1673,3.3815,3.6076,3.9886,4.0799,4.0924,4.0924,4.143,4.1708,4.1277,4.1227,4.1227,4.1275,4.1756,4.1909,4.1378,4.1831,4.1533,3.9849,3.8332,3.6956,3.5793,3.4702,3.4466,3.5273,3.5371,3.5586,3.5982,3.5982,3.5982,3.5982,3.5982,3.5982,3.5982,3.5982,3.6035,3.6094,3.6484,3.6753,3.6871,3.7207,3.7598,3.7972,3.8047,3.8011,3.8108,3.9669,4.0098,3.9922,4.0723,4.1055,4.1152,1.4104,1.3859,1.4108,1.6056,1.6778,1.7181,1.7458,1.8128,0.0,0.0,0.0,0.0,0.0,0.0,0.0,0.0,0.0,0.0,1.5446,1.5272,1.481,1.4016,1.3821,1.3425,1.2785,1.2754,1.3125,0.0,0.0,0.0,0.0,0.0,0.0,0.0,1.721,1.8828,2.0273,2.1093,2.3438,2.6741,2.8393,2.9549,3.0605,3.3883,3.648,3.8391,3.8291,3.8564,3.8759,3.7353,3.6289,3.48,3.046,2.9359,2.8732,2.3981,0.0,0.0,0.0,0.0,0.0,0.0,0.0,0.0,2.964,3.2111,3.4366,3.6224,3.7714,3.8617,3.8617,3.912,3.9798,4.0524,4.065,4.08,4.1252,4.1403,4.1428,4.1327,4.1831,4.1384,3.9296,3.8154,3.6883,3.5281,3.451,3.4329,3.4805,3.5195,3.5586,3.5982,3.5982,3.5982,3.5982,3.5982,3.5982,3.5982,3.5982,3.6211,3.6577,3.6675,3.7031,3.7676,3.7773,3.8047,3.8476,3.8809,3.875,3.8513,3.8865,3.9121,3.9394,3.9941,4.0351,4.0703,1.519,1.502,1.5326,1.7363,1.7369,1.7297,1.791,1.8377,0.0,0.0,0.0,0.0,0.0,0.0,0.0,0.0,0.0,0.0,0.0,1.6996,1.6625,1.5786,1.5332,1.459,1.3522,1.3301,1.3398,1.3802,0.0,0.0,0.0,0.0,0.0,0.0,0.0,0.0,2.2879,2.2836,2.4354,2.6976,2.9063,3.1476,3.4039,3.6304,3.8213,3.9647,3.9371,3.9472,3.9416,3.7584,3.6154,3.4773,3.2418,3.1064,2.9515,2.5601,2.474,2.4489,0.0,0.0,0.0,2.1387,0.0,0.0,0.0,3.1403,3.4027,3.5267,3.661,3.7588,3.7588,3.7864,3.8316,3.912,3.9747,3.9864,3.9132,4.0626,4.1656,4.1352,4.1831,4.1458,3.9511,3.8246,3.6564,3.438,3.374,3.3711,3.4388,3.4805,3.5254,3.5703,3.5918,3.5982,3.5982,3.5982,3.5982,3.5982,3.623,3.6465,3.6714,3.7109,3.7519,3.7894,3.8164,3.8379,3.863,3.8809,3.8769,3.865,3.9062,3.9355,3.9609,4.0039,4.0488,4.0879,1.5938,1.5988,1.646,1.8244,1.7693,1.7264,1.8124,1.8443,0.0,0.0,0.0,0.0,0.0,0.0,0.0,0.0,0.0,0.0,0.0,1.9104,1.8732,1.7927,1.6969,1.5933,1.4757,1.4166,1.3913,1.4004,0.0,0.0,0.0,0.0,0.0,0.0,0.0,0.0,0.0,0.0,0.0,2.6652,2.9715,3.3069,3.6414,3.8096,3.9224,3.9876,3.9649,3.9764,3.979,3.8398,3.6537,3.4789,3.4432,3.2707,3.0192,2.7147,2.6064,0.0,0.0,0.0,0.0,0.0,0.0,2.678,0.0,0.0,0.0,3.4527,3.5506,3.6256,3.6256,3.6431,3.6584,3.6709,3.7864,3.8116,3.6348,3.8841,4.0699,4.0254,4.1484,4.1635,3.9714,3.8395,3.6436,3.3501,3.3223,3.3418,3.4075,3.4427,3.4824,3.5371,3.5723,3.5903,3.5982,3.5982,3.5982,3.6035,3.6465,3.6753,3.6851,3.7578,3.7933,3.8066,3.8418,3.8611,3.8611,3.8611,3.8611,3.8689,3.9355,3.9648,3.9707,4.0215,4.0625,4.0957,1.5143,1.5464,1.6363,1.7823,1.8041,1.828,1.9031,1.8938,0.0,0.0,0.0,0.0,0.0,0.0,0.0,0.0,0.0,0.0,2.0917,2.0898,0.0,1.9649,1.8437,1.7539,1.7047,1.582,1.5391,1.5791,0.0,0.0,0.0,0.0,0.0,0.0,2.1681,0.0,0.0,0.0,2.8719,2.8992,3.1302,3.2757,3.3886,3.699,3.7998,3.7896,3.8852,4.0,4.0887,3.9296,3.8342,3.7216,3.3758,3.4449,3.5132,2.7885,2.7844,0.0,0.0,0.0,0.0,0.0,2.5923,2.8179,2.8695,0.0,3.114,3.1738,0.0,3.2767,3.2767,0.0,0.0,3.2365,3.3922,3.4858,3.3695,3.4942,3.6066,3.6244,4.0189,4.1787,3.8899,3.8595,3.6966,3.3158,3.3867,3.4355,3.4114,3.4153,3.4564,3.5371,3.543,3.5644,3.6016,3.5982,3.5982,3.6035,3.6465,3.691,3.7246,3.7715,3.8144,3.8496,3.8591,3.8611,3.8611,3.8611,3.8611,3.863,3.8728,3.8767,3.8865,3.9668,4.0,4.0156,1.6985,1.6462,0.0,1.8365,1.8146,1.7999,1.8788,1.9208,0.0,0.0,0.0,0.0,0.0,0.0,0.0,0.0,2.2596,2.2615,2.2693,2.2715,0.0,2.0703,1.9649,1.8574,1.7419,1.6344,1.5894,1.6085,1.5894,0.0,0.0,0.0,0.0,0.0,2.212,0.0,2.4544,2.6923,2.8799,3.0369,3.2184,3.3736,3.5197,3.7298,3.836,3.8806,3.9287,3.9849,4.032,3.9956,3.8537,3.6819,3.6405,3.6022,3.4899,3.0876,2.9969,0.0,0.0,0.0,2.5803,2.4347,2.7344,3.0358,2.9119,3.0242,3.1512,3.1411,0.0,0.0,0.0,0.0,0.0,0.0,3.3219,3.3682,3.2094,3.4475,3.6133,3.554,3.7628,3.8461,3.6742,3.7926,3.7243,3.3434,3.3652,3.3887,3.3711,3.3691,3.4101,3.4961,3.5254,3.5586,3.6016,3.5982,3.5982,3.6035,3.6699,3.7129,3.7324,3.7988,3.8398,3.8611,3.8611,3.8611,3.8611,3.8611,3.8611,3.8611,3.8611,3.8923,3.9394,3.9766,4.0215,4.0684,1.868,0.0,0.0,1.8767,1.8103,1.7676,1.8481,1.9649,0.0,0.0,0.0,0.0,2.2578,2.2908,0.0,0.0,2.4469,2.4606,2.4867,2.4746,2.418,2.3025,2.1445,2.0156,1.9178,1.7712,1.691,1.6793,1.6793,1.7187,0.0,0.0,0.0,0.0,0.0,2.4297,2.71,2.8243,2.9735,3.1512,3.2869,3.4358,3.5949,3.736,3.8746,3.9871,3.9631,3.981,4.0146,4.0273,3.8636,3.6794,3.8027,3.6969,3.4962,3.3618,3.2459,0.0,2.8399,2.8431,2.871,2.6457,2.9213,3.1962,3.017,3.0822,3.1727,3.1254,3.106,0.0,0.0,0.0,0.0,0.0,0.0,3.1704,3.0004,3.2568,3.4427,3.3952,3.4775,3.5229,3.4728,3.7045,3.7102,3.3521,3.3757,3.3894,3.3406,3.3386,3.3769,3.4512,3.4961,3.541,3.584,3.5923,3.604,3.6211,3.6953,3.7363,3.75,3.8242,3.8611,3.8611,3.8611,3.8611,3.8611,3.8611,3.8611,3.8611,3.8611,3.9043,3.9726,3.9844,4.0371,4.1016,1.9354,1.9135,0.0,1.8659,1.795,1.7676,1.8481,2.043,2.1544,2.0723,2.3496,2.5249,2.441,2.6562,2.791,2.7585,2.7917,2.7949,2.7585,2.7148,2.707,2.7467,2.4219,2.2793,2.3596,2.0723,1.8984,1.852,1.852,1.8325,1.7991,1.7991,1.8494,1.958,2.3046,2.5422,2.7078,3.1325,3.2876,3.2601,3.3371,3.4014,3.4665,3.667,3.8699,4.0366,3.9464,4.0041,4.1085,4.015,3.9122,3.806,3.7071,3.7072,3.7035,3.5248,3.5434,3.5673,3.3313,3.3184,3.3315,3.1653,3.1891,3.2418,3.2254,3.1526,3.0882,3.0677,3.0206,0.0,0.0,0.0,0.0,0.0,0.0,0.0,0.0,2.7434,2.8516,2.9933,3.1873,3.3184,3.3353,3.6077,3.6447,3.3054,3.4746,3.5162,3.3484,3.3386,3.3633,3.4114,3.4492,3.4941,3.541,3.582,3.623,3.6695,3.709,3.75,3.7874,3.8359,3.8611,3.8611,3.8611,3.8611,3.8611,3.8611,3.8611,3.8611,3.8611,3.8848,3.9277,3.9726,4.0176,4.0605,0.0,0.0,0.0,1.8667,1.8375,1.8656,2.0099,2.1445,2.25,2.3047,2.4625,2.5932,2.6529,2.709,2.7734,2.8437,2.8379,2.8359,2.8496,2.8359,2.7969,2.7266,2.4996,2.3493,2.2949,2.082,1.9337,1.8598,1.8598,1.852,1.8401,1.8401,1.8713,1.9431,2.2391,2.4593,2.6246,2.9162,3.1632,3.3708,3.4922,3.5814,3.6428,3.6798,3.7156,3.746,3.7443,3.7561,3.7882,3.8871,3.7822,3.6609,3.9442,3.8271,3.606,3.7285,3.6503,3.5057,3.435,3.5308,3.5722,3.2603,3.51,3.7547,3.4526,3.3883,3.3915,3.3865,3.1692,0.0,0.0,0.0,0.0,0.0,0.0,0.0,0.0,0.0,2.8657,2.9131,0.0,0.0,0.0,0.0,3.5571,3.3368,3.4414,3.4648,3.3445,3.3164,3.334,3.4075,3.4473,3.4922,3.5391,3.5801,3.623,3.6714,3.709,3.7519,3.7913,3.8379,3.8611,3.8611,3.8611,3.8611,3.8611,3.8611,3.8611,3.8611,3.8611,3.8828,3.9219,3.9375,3.9726,4.0176,1.9944,0.0,2.0376,1.9089,1.9369,2.0139,2.129,2.2578,2.3652,2.4313,2.5815,2.7045,2.7643,2.7812,2.8184,2.884,2.8945,2.916,2.959,2.9473,2.9219,2.8867,2.6738,2.5391,2.5019,2.2422,2.0801,2.0196,1.9298,1.8849,1.8849,1.8849,1.924,2.0059,2.1915,2.4422,2.731,2.8689,3.1187,3.428,3.4685,3.5115,3.5537,3.5358,3.5773,3.6582,3.765,3.7742,3.7635,3.9467,3.8934,3.8072,4.0976,3.9742,3.7626,3.9607,3.8667,3.7016,3.7099,3.7767,3.7827,3.512,3.72,3.9142,3.6018,3.5639,3.5793,3.5328,3.2975,3.1009,0.0,0.0,0.0,0.0,0.0,0.0,0.0,0.0,0.0,0.0,0.0,0.0,0.0,0.0,3.4296,3.3246,3.4414,3.4648,3.3445,3.3164,3.3281,3.3828,3.4394,3.4844,3.5137,3.5723,3.6309,3.6929,3.7168,3.7598,3.8164,3.8437,3.8611,3.8611,3.8611,3.8611,3.8611,3.8611,3.8611,3.8611,3.8611,3.8787,3.9004,3.9141,3.959,4.0176,2.1957,2.2666,2.2573,1.9944,2.0889,2.1998,2.198,2.3811,2.5043,2.4648,2.7148,2.8672,2.7936,2.8933,2.9473,2.9062,2.9766,3.041,3.0859,3.0469,3.0801,3.2081,2.9344,2.8327,2.952,2.5454,2.3242,2.3101,2.0625,1.9375,1.9374,1.9374,2.0039,2.1288,2.1777,2.4943,2.9956,2.9893,3.1641,3.4306,3.2834,3.2237,3.2316,3.2676,3.4653,3.7456,3.9506,4.0001,3.9859,4.1361,4.1828,4.1698,4.1282,4.111,4.1264,4.1873,4.1702,4.1327,4.1352,4.0575,3.9633,3.906,3.8289,3.7517,3.6884,3.678,3.6506,3.5328,3.4111,3.3416,0.0,0.0,0.0,0.0,0.0,0.0,0.0,0.0,0.0,0.0,0.0,0.0,0.0,0.0,0.0,0.0,3.4785,0.0,0.0,3.3445,3.3464,3.3386,3.4277,3.4726,3.4707,3.5586,3.6445,3.7305,3.7305,3.7754,3.8611,3.8611,3.8611,3.8611,3.8611,3.8611,3.8611,3.8611,3.8611,3.8611,3.8611,3.8611,3.865,3.9023,3.9726,4.0527,2.0388,2.117,2.1859,2.2088,2.278,2.331,2.3306,2.5137,2.6699,2.7226,2.8562,2.9598,3.0048,3.0351,3.0508,3.0391,3.0586,3.0762,3.0879,3.0781,3.0859,3.124,2.9872,2.8973,2.8633,2.6289,2.441,2.3101,2.1503,2.0566,2.0273,2.0273,2.0957,2.2186,2.2969,2.5492,2.9193,2.9552,3.106,3.3212,3.2802,3.2832,3.3105,3.3223,3.3743,3.4501,3.5067,3.4984,3.4926,3.6818,3.6648,3.6073,3.8299,3.8701,3.8653,4.0009,4.0832,4.1403,4.1831,4.143,4.0579,3.9362,3.9679,3.9989,3.8729,3.8709,3.8956,3.9028,3.7193,3.5452,3.5155,3.342,0.0,0.0,0.0,0.0,0.0,0.0,0.0,0.0,0.0,0.0,0.0,0.0,0.0,0.0,0.0,0.0,3.3464,3.4355,3.4434,3.3425,3.459,3.5039,3.4707,3.5586,3.6445,3.7305,3.7305,3.7754,3.8611,3.8611,3.8611,3.8611,3.8611,3.8611,3.8611,3.8611,3.8611,3.8611,3.8611,3.8611,3.863,3.8728,3.9082,3.9609,2.2097,2.2392,2.2912,2.3898,2.4693,2.5078,2.4687,2.6152,2.7734,2.8965,2.9883,3.0713,3.1397,3.1269,3.1094,3.0918,3.0898,3.0976,3.1152,3.0996,3.1055,3.1455,3.0634,3.0204,3.0254,2.8176,2.6615,2.564,2.3786,2.2676,2.2267,2.2267,2.2949,2.4219,2.4512,2.6348,2.9258,3.0078,3.126,3.2539,3.2715,3.293,0.0,3.3328,3.3386,3.3386,3.3386,3.3593,3.4126,3.5912,3.6034,3.5754,3.7353,3.7806,3.796,3.9068,4.0002,4.0605,4.0418,4.0838,4.1002,3.9722,4.0367,4.0975,3.9694,3.9734,4.0091,4.0168,3.876,3.7763,3.8617,3.6107,3.3511,0.0,0.0,0.0,0.0,0.0,0.0,0.0,0.0,0.0,0.0,0.0,0.0,0.0,0.0,0.0,3.375,3.4238,3.4199,3.3406,3.4707,3.5176,3.4707,3.5586,3.6445,3.7305,3.7305,3.7754,3.8611,3.8611,3.8611,3.8611,3.8611,3.8611,3.8611,3.8611,3.8611,3.8611,3.8611,3.8611,3.8611,3.8611,3.8965,3.9551,2.5038,2.4849,2.4828,2.535,2.6408,2.6947,2.6303,2.7285,2.864,3.0098,3.1016,3.168,3.2159,3.1777,3.1387,3.1094,3.1055,3.1191,3.1474,3.1172,3.1309,3.2081,3.1367,3.1484,3.2598,3.0351,2.9113,2.9054,2.6705,2.5356,2.4976,2.4883,2.5508,2.6699,2.6362,2.7578,2.9931,3.1152,3.1914,3.2316,3.2656,3.2832,3.291,3.3281,3.3425,3.3496,3.3496,3.4119,3.5158,3.6424,3.7184,3.75,3.7,3.7332,3.8014,3.8618,3.9334,3.9736,3.8977,4.0087,4.133,4.0451,4.0823,4.1203,4.0326,4.0433,4.0604,4.0202,3.9748,4.0125,4.2359,3.8772,3.5042,0.0,0.0,0.0,0.0,0.0,0.0,0.0,0.0,0.0,0.0,0.0,0.0,0.0,0.0,0.0,3.4036,3.3945,3.3738,3.3406,3.4746,3.5254,3.4785,3.5605,3.6484,3.7383,3.7324,3.7754,3.8611,3.8611,3.8611,3.8611,3.8611,3.8611,3.8611,3.8611,3.8611,3.8611,3.8611,3.8611,3.8611,3.8611,3.9101,3.9805,2.5073,2.5611,2.6084,2.6187,2.7237,2.8262,2.8836,2.9735,3.043,3.0723,3.1211,3.168,3.2159,3.1777,3.1641,3.1944,3.1964,3.1846,3.1513,3.1416,3.1465,3.1621,3.1484,3.1504,3.1708,3.0957,3.0351,2.9961,2.8457,2.7871,2.8098,2.7422,2.7598,2.8496,2.8769,2.9746,3.123,3.2168,3.2617,3.2695,3.2773,3.3008,3.3289,3.3367,3.3652,3.3997,3.3997,3.3862,3.3752,3.4002,3.4166,3.4227,3.4146,3.5088,3.6508,3.7894,3.9317,4.0798,4.2356,4.274,4.2655,4.2479,4.2243,4.2005,4.1806,4.1818,4.1879,4.1781,4.2071,4.2133,4.1679,3.956,3.7287,3.5428,0.0,0.0,0.0,0.0,0.0,0.0,0.0,0.0,0.0,0.0,0.0,0.0,0.0,0.0,0.0,3.5488,3.5644,3.3464,3.5006,3.5703,3.5273,3.5762,3.6586,3.7777,3.7461,3.7754,3.8611,3.8611,3.8611,3.8611,3.8611,3.8611,3.8611,3.8611,3.8611,3.8611,3.8611,3.8611,3.8611,3.8611,3.8887,3.9316,2.5278,2.6157,2.7154,2.737,2.8437,2.9492,3.0185,3.1172,3.1953,3.2168,3.1992,3.2109,3.2754,3.2441,3.2168,3.2198,3.2198,3.2101,3.1875,3.1855,3.1855,3.1855,3.1855,3.1953,3.2168,3.1777,3.1475,3.124,3.0634,3.041,3.0605,3.0439,3.0781,3.1582,3.1348,3.1465,3.1875,3.2305,3.2715,3.3125,3.3125,3.3379,3.375,3.375,3.3887,3.4134,3.4349,3.4258,3.4082,3.4082,3.4082,3.4043,3.3828,3.4302,3.5051,3.5842,3.7036,3.8223,3.8655,3.9627,4.0505,4.0505,4.0941,4.1541,4.2071,4.2213,4.2213,4.2213,4.2386,4.2191,4.0875,4.0113,3.9185,3.7612,3.5874,3.4797,0.0,0.0,0.0,0.0,0.0,0.0,0.0,0.0,0.0,0.0,0.0,0.0,0.0,3.5391,3.543,3.3445,3.5084,3.5703,3.5039,3.5684,3.6508,3.7598,3.7402,3.7754,3.8611,3.8611,3.8611,3.8611,3.8611,3.8611,3.8611,3.8611,3.8611,3.8611,3.8611,3.8611,3.8611,3.8611,3.8728,3.8887,2.6294,2.7233,2.8367,2.8769,2.9824,3.0742,3.1113,3.209,3.2871,3.3125,3.2656,3.2598,3.3308,3.3125,3.2832,3.2628,3.2687,3.2667,3.2472,3.2472,3.2433,3.2335,3.2335,3.2492,3.2793,3.2559,3.2472,3.2472,3.255,3.2316,3.1807,3.2754,3.3555,3.4192,3.3223,3.2656,3.2472,3.257,3.2851,3.3301,3.3464,3.3769,3.4114,3.4114,3.4212,3.4427,3.4726,3.4902,3.498,3.498,3.4844,3.4648,3.4349,3.4231,3.4296,3.465,3.5369,3.5936,3.5437,3.686,3.8485,3.8403,3.9567,4.098,4.1836,4.2291,4.2487,4.2386,4.1988,4.1191,3.9572,4.0085,4.0449,3.9556,3.881,3.8137,0.0,0.0,0.0,0.0,0.0,0.0,0.0,0.0,0.0,0.0,0.0,0.0,3.4231,3.5039,3.4961,3.373,3.5181,3.5723,3.5117,3.5723,3.6504,3.7422,3.7344,3.7754,3.8611,3.8611,3.8611,3.8611,3.8611,3.8611,3.8611,3.8611,3.8611,3.8611,3.8611,3.8611,3.8611,3.8611,3.8611,3.8611,2.9129,2.959,3.0098,3.0566,3.1416,3.2022,3.2081,3.248,3.2676,3.2355,3.2559,3.291,3.3347,3.3347,3.3516,3.3899,3.4271,3.4141,3.3359,3.3301,3.3144,3.2754,3.2734,3.2754,3.2793,3.3125,3.3301,3.3301,3.3691,3.2726,3.0449,3.3223,3.457,3.459,3.334,3.2988,3.334,3.373,3.3528,3.293,3.3723,3.4075,3.4114,3.4114,3.4603,3.5273,3.5312,3.5566,3.5898,3.5898,3.5371,3.4687,3.4648,3.4648,3.4923,3.6403,3.6905,3.7308,3.8775,3.9343,3.9456,3.9038,4.0128,4.134,4.1439,4.2618,4.3514,4.3039,4.1377,3.9376,3.7213,3.8911,4.0552,4.0408,4.0051,4.0249,4.1549,0.0,0.0,0.0,0.0,0.0,0.0,3.389,0.0,0.0,0.0,0.0,0.0,3.5488,3.5527,3.4609,3.5508,3.6172,3.6519,3.6172,3.6606,3.7816,3.748,3.7754,3.8611,3.8611,3.8611,3.8611,3.8611,3.8611,3.8611,3.8611,3.8611,3.8611,3.8611,3.8611,3.8611,3.8611,3.8611,3.8611,2.9961,3.0752,3.1553,3.1953,3.2519,3.293,3.293,3.3281,3.3418,3.2988,3.3066,3.334,3.3769,3.4043,3.4258,3.4434,3.4609,3.4551,3.4219,3.418,3.4004,3.3606,3.3586,3.3586,3.3586,3.3476,3.3555,3.3809,3.4238,3.4062,3.334,3.4805,3.5351,3.5078,3.4023,3.3789,3.418,3.4134,3.4055,3.3965,3.4316,3.4453,3.4473,3.4766,3.5078,3.543,3.5684,3.5879,3.5982,3.5982,3.5781,3.5449,3.5195,3.5117,3.5191,3.5531,3.5646,3.5808,3.6509,3.6701,3.6883,3.7654,3.8401,3.9115,3.9756,4.0436,4.0834,4.0593,3.9794,3.8881,3.8073,3.9113,3.9848,3.9219,3.9575,3.9672,3.8925,0.0,0.0,0.0,0.0,0.0,0.0,0.0,0.0,0.0,0.0,0.0,0.0,3.6699,3.6606,3.5527,3.584,3.6094,3.6289,3.6367,3.6797,3.7539,3.7637,3.7988,3.8611,3.8611,3.8611,3.8611,3.8611,3.8611,3.8611,3.8611,3.8611,3.8611,3.8611,3.8611,3.8611,3.8611,3.8611,3.8611,3.1191,3.1992,3.2883,3.3281,3.3711,3.3945,3.3809,3.418,3.4297,3.3816,3.3906,3.4062,3.4271,3.4648,3.4902,3.4902,3.5019,3.5039,3.4902,3.4902,3.4707,3.4277,3.4427,3.4368,3.4114,3.4023,3.4023,3.4114,3.4629,3.4609,3.4082,3.4375,3.4902,3.5547,3.4681,3.4492,3.4883,3.459,3.4551,3.4707,3.4844,3.4902,3.4941,3.5273,3.5469,3.5605,3.5918,3.5982,3.5982,3.5982,3.5982,3.5942,3.5664,3.5586,3.5508,3.5176,3.5098,3.5059,3.4941,3.4902,3.5159,3.6151,3.6829,3.7498,3.8404,3.8908,3.9065,3.8543,3.8306,3.809,3.7739,3.8342,3.8737,3.8033,3.8884,3.8883,3.6864,3.6415,0.0,0.0,3.611,0.0,3.4799,3.7307,0.0,0.0,0.0,0.0,0.0,3.6973,3.6918,3.6021,3.5898,3.5957,3.6211,3.6523,3.691,3.7305,3.7734,3.8164,3.8611,3.8611,3.8611,3.8611,3.8611,3.8611,3.8611,3.8611,3.8611,3.8611,3.8611,3.8611,3.8611,3.8611,3.8611,3.8611,3.3269,3.375,3.4212,3.4609,3.5059,3.5215,3.4746,3.5078,3.5215,3.4746,3.5078,3.5195,3.4746,3.5098,3.5391,3.5391,3.5762,3.582,3.541,3.5391,3.5176,3.4707,3.5137,3.4961,3.4114,3.4922,3.4941,3.4114,3.4994,3.3867,3.0937,3.0957,3.2754,3.5942,3.5078,3.4941,3.5391,3.5391,3.5117,3.4746,3.5195,3.5391,3.5391,3.5391,3.5644,3.5982,3.5982,3.5982,3.5982,3.5982,3.5982,3.5982,3.5982,3.5982,3.5982,3.5982,3.5962,3.5918,3.5488,3.5391,3.5273,3.4837,3.5937,3.7242,3.7779,3.8845,3.9246,3.7646,3.7223,3.6637,3.5028,3.6046,3.718,3.7297,3.8199,3.8384,3.6925,3.6162,3.5696,3.5414,3.5762,3.5996,3.5962,3.7574,0.0,0.0,0.0,0.0,3.5527,3.5801,3.6001,3.5982,3.5605,3.5801,3.6695,3.6714,3.691,3.7305,3.7734,3.8164,3.8611,3.8611,3.8611,3.8611,3.8611,3.8611,3.8611,3.8611,3.8611,3.8611,3.8611,3.8611,3.8611,3.8611,3.8611,3.8611,3.4668,3.5098,3.5527,3.601,3.6206,3.6113,3.5664,3.5723,3.5664,3.5234,3.5547,3.5762,3.5591,3.5742,3.582,3.582,3.5937,3.5957,3.584,3.582,3.5625,3.5195,3.5312,3.5254,3.498,3.5254,3.5098,3.4492,3.5098,3.4746,3.3496,3.3809,3.4375,3.5117,3.5156,3.5254,3.541,3.5703,3.5566,3.5215,3.5644,3.5644,3.543,3.5703,3.5898,3.5982,3.5982,3.5982,3.5982,3.5982,3.5982,3.5982,3.5982,3.5982,3.5982,3.5982,3.5982,3.5962,3.5859,3.582,3.5781,3.5644,3.5771,3.597,3.6143,3.6714,3.7047,3.6536,3.6643,3.6581,3.5745,3.5785,3.5863,3.5556,3.5795,3.5855,3.5393,3.4936,3.4592,3.4531,3.4642,3.457,3.4245,3.6348,0.0,0.0,0.0,0.0,3.6797,3.6816,3.6758,3.6484,3.6035,3.623,3.709,3.709,3.7305,3.7699,3.8164,3.8474,3.8611,3.8611,3.8611,3.8611,3.8611,3.8611,3.8611,3.8611,3.8611,3.8611,3.8611,3.8611,3.8611,3.8611,3.8611,3.8611,3.6055,3.6328,3.6582,3.6855,3.6949,3.6816,3.6543,3.6504,3.6406,3.6152,3.6191,3.6269,3.6269,3.6113,3.5982,3.5982,3.5982,3.5982,3.5982,3.5982,3.5898,3.5644,3.5625,3.5547,3.5391,3.5547,3.541,3.4961,3.541,3.5488,3.5195,3.5488,3.5469,3.5215,3.5508,3.5625,3.5644,3.5898,3.5859,3.5644,3.5918,3.5859,3.5664,3.5884,3.5982,3.5982,3.5982,3.5982,3.5982,3.5982,3.5982,3.5982,3.5982,3.5982,3.5982,3.5982,3.5982,3.5982,3.5982,3.5982,3.5982,3.5982,3.582,3.5625,3.5625,3.5957,3.6269,3.6269,3.6601,3.6816,3.6543,3.6152,3.5723,3.5273,3.5059,3.4902,3.4726,3.4473,3.4525,3.5033,3.4902,3.4824,3.4883,3.6191,3.6777,3.604,3.7519,3.7891,3.6641,3.7031,3.7031,3.6445,3.6152,3.6367,3.7051,3.7383,3.7656,3.7894,3.8359,3.8611,3.8611,3.8611,3.8611,3.8611,3.8611,3.8611,3.8611,3.8611,3.8611,3.8611,3.8611,3.8611,3.8611,3.8611,3.8611,3.8611,3.7344,3.7344,3.7344,3.7383,3.7383,3.7383,3.7344,3.7344,3.7324,3.7305,3.6953,3.6734,3.6714,3.6309,3.6055,3.5982,3.5982,3.5982,3.5982,3.5982,3.5982,3.5982,3.5982,3.584,3.5449,3.582,3.582,3.5391,3.5781,3.5976,3.5976,3.5982,3.5982,3.5982,3.5982,3.5982,3.5982,3.5982,3.5982,3.5982,3.5982,3.5982,3.5982,3.5982,3.5982,3.5982,3.5982,3.5982,3.5982,3.5982,3.5982,3.5982,3.5982,3.5982,3.5982,3.5982,3.5982,3.5982,3.5982,3.5982,3.5982,3.5982,3.5982,3.5982,3.5982,3.6387,3.6753,3.6753,3.7051,3.7344,3.7344,3.6992,3.6616,3.6172,3.5781,3.5371,3.4941,3.4824,3.5254,3.6519,3.623,3.6269,3.7051,3.6851,3.6519,3.6133,3.604,3.5937,3.5625,3.668,3.6894,3.6021,3.6021,3.6289,3.6792,3.7539,3.7913,3.7933,3.8379,3.8611,3.8611,3.8611,3.8611,3.8611,3.8611,3.8611,3.8611,3.8611,3.8611,3.8611,3.8611,3.8611,3.8611,3.8611,3.8611,3.8611,3.7715,3.7773,3.7891,3.8223,3.8281,3.8164,3.7832,3.7773,3.7656,3.7344,3.7207,3.7031,3.6734,3.6616,3.6387,3.6021,3.5982,3.5982,3.5982,3.5982,3.5982,3.5982,3.5982,3.5976,3.5879,3.5942,3.582,3.5391,3.5488,3.5547,3.5547,3.5879,3.5982,3.5982,3.5982,3.5982,3.5982,3.5982,3.5982,3.5982,3.5982,3.5982,3.5982,3.5982,3.5982,3.5982,3.5982,3.5982,3.5982,3.5982,3.5982,3.5982,3.5982,3.5982,3.5982,3.5982,3.5982,3.5982,3.5982,3.5982,3.5982,3.5982,3.5982,3.5982,3.5982,3.6601,3.7148,3.7148,3.748,3.7773,3.7773,3.7441,3.7109,3.7012,3.6914,3.6816,3.6699,3.6113,3.582,3.6133,3.5801,3.5488,3.5332,3.584,3.6406,3.6953,3.6699,3.6929,3.7809,3.75,3.6894,3.6021,3.6348,3.6875,3.7617,3.7796,3.8086,3.8418,3.8571,3.8611,3.8611,3.8611,3.8611,3.8611,3.8611,3.8611,3.8611,3.8611,3.8611,3.8611,3.8611,3.8611,3.8611,3.8611,3.8611,3.8611,3.8184,3.8223,3.8301,3.8571,3.8611,3.8496,3.8262,3.8223,3.8144,3.791,3.7715,3.75,3.7266,3.707,3.6797,3.6348,3.6133,3.5982,3.5982,3.5982,3.5982,3.5982,3.5982,3.5982,3.5982,3.5982,3.5898,3.5684,3.5684,3.5684,3.5684,3.5918,3.5982,3.5982,3.5982,3.5982,3.5982,3.5982,3.5982,3.5982,3.5982,3.5982,3.5982,3.5982,3.5982,3.5982,3.5982,3.5982,3.5982,3.5982,3.5982,3.5982,3.5982,3.5982,3.5982,3.5982,3.5982,3.5982,3.5982,3.5982,3.5982,3.5982,3.5982,3.6074,3.6269,3.6816,3.7344,3.7539,3.793,3.8223,3.8223,3.7871,3.7578,3.7578,3.7422,3.7305,3.7305,3.6894,3.6601,3.6601,3.6406,3.6172,3.5918,3.6328,3.6797,3.7266,3.709,3.7301,3.7949,3.7559,3.709,3.6621,3.7012,3.7461,3.7874,3.8125,3.834,3.8611,3.8611,3.8611,3.8611,3.8611,3.8611,3.8611,3.8611,3.8611,3.8611,3.8611,3.8611,3.8611,3.8611,3.8611,3.8611,3.8611,3.8611,3.8611,3.8611,3.8611,3.8611,3.8611,3.8611,3.8611,3.8611,3.8611,3.8611,3.8611,3.8242,3.7988,3.7894,3.7598,3.7226,3.6832,3.6426,3.6118,3.6035,3.5982,3.5982,3.5982,3.5982,3.5982,3.5982,3.5982,3.5982,3.5982,3.5982,3.5982,3.5982,3.5982,3.5982,3.5982,3.5982,3.5982,3.5982,3.5982,3.5982,3.5982,3.5982,3.5982,3.5982,3.5982,3.5982,3.5982,3.5982,3.5982,3.5982,3.5982,3.5982,3.5982,3.5982,3.5982,3.5982,3.5982,3.5982,3.5982,3.5982,3.5982,3.5982,3.5982,3.604,3.6211,3.6616,3.7051,3.75,3.7816,3.8281,3.8611,3.8611,3.8281,3.8069,3.8379,3.7891,3.7578,3.7851,3.7598,3.7402,3.7402,3.7344,3.7305,3.7305,3.7305,3.7305,3.7305,3.7305,3.7324,3.7383,3.7402,3.7422,3.748,3.7773,3.7913,3.7991,3.8398,3.8611,3.8611,3.8611,3.8611,3.8611,3.8611,3.8611,3.8611,3.8611,3.8611,3.8611,3.8611,3.8611,3.8611,3.8611,3.8611,3.8611,3.8611,3.8611,3.8611,3.8611,3.8611,3.8611,3.8611,3.8611,3.8611,3.8611,3.8611,3.8611,3.8611,3.8552,3.834,3.7933,3.7835,3.7656,3.7226,3.7129,3.6797,3.604,3.5982,3.5982,3.5982,3.5982,3.5982,3.5982,3.5982,3.5982,3.5982,3.5982,3.5982,3.5982,3.5982,3.5982,3.5982,3.5982,3.5982,3.5982,3.5982,3.5982,3.5982,3.5982,3.5982,3.5982,3.5982,3.5982,3.5982,3.5982,3.5982,3.5982,3.5982,3.5982,3.5982,3.5982,3.5982,3.5982,3.5982,3.5982,3.5982,3.5982,3.5982,3.5982,3.5982,3.6289,3.6616,3.6695,3.7266,3.7816,3.7874,3.8281,3.8611,3.8611,3.8552,3.8945,4.043,3.9375,3.8923,4.0409,3.8984,3.7832,3.7832,3.7519,3.7305,3.7305,3.7305,3.7305,3.7305,3.7305,3.7461,3.7777,3.7832,3.7988,3.8396,3.8086,3.8105,3.8513,3.8571,3.8611,3.8611,3.8611,3.8611,3.8611,3.8611,3.8611,3.8611,3.8611,3.8611,3.8611,3.8611,3.8611,3.8611,3.8611,3.8611,3.8611,3.8611,3.8611,3.8611,3.8611,3.8611,3.8611,3.8611,3.8611,3.8611,3.8611,3.8611,3.8611,3.8611,3.8611,3.8532,3.8301,3.8281,3.8105,3.7676,3.7422,3.7031,3.6406,3.6367,3.6269,3.6001,3.5982,3.5982,3.5982,3.5982,3.5982,3.5982,3.5982,3.5982,3.5982,3.5982,3.5982,3.5982,3.5982,3.5982,3.5982,3.5982,3.5982,3.5982,3.5982,3.5982,3.5982,3.5982,3.5982,3.5982,3.5982,3.5982,3.5982,3.5982,3.5982,3.5982,3.5982,3.5982,3.5982,3.5982,3.5982,3.5982,3.5982,3.5982,3.604,3.6309,3.6523,3.6773,3.6953,3.748,3.7894,3.7894,3.8281,3.8611,3.8611,3.8611,3.8884,3.9686,3.9138,3.8904,3.9705,3.8906,3.8281,3.8281,3.8105,3.7988,3.7988,3.7988,3.7988,3.7988,3.7988,3.8066,3.8262,3.8281,3.8359,3.8611,3.8379,3.8379,3.8611,3.8611,3.8611,3.8611,3.8611,3.8611,3.8611,3.8611,3.8611,3.8611,3.8611,3.8611,3.8611,3.8611,3.8611,3.8611,3.8611,3.8611,3.8611,3.8611,3.8611,3.8611,3.8611,3.8611,3.8611,3.8611,3.8611,3.8611,3.8611,3.8611,3.8611,3.8611,3.8611,3.8611,3.8611,3.8611,3.8437,3.8105,3.7773,3.7422,3.7027,3.6988,3.668,3.6021,3.5982,3.5982,3.5982,3.5982,3.5982,3.5982,3.5982,3.5982,3.5982,3.5982,3.5982,3.5982,3.5982,3.5982,3.5982,3.5982,3.5982,3.5982,3.5982,3.5982,3.5982,3.5982,3.5982,3.5982,3.5982,3.5982,3.5982,3.5982,3.5982,3.5982,3.5982,3.5982,3.5982,3.5982,3.5982,3.5982,3.5982,3.6094,3.625,3.6616,3.6851,3.7051,3.7363,3.7773,3.8086,3.8086,3.834,3.8611,3.8611,3.8611,3.8747,3.9158,3.8884,3.8747,3.9158,3.8865,3.8611,3.8611,3.8611,3.8611,3.8611,3.8611,3.8611,3.8611,3.8611,3.8611,3.8611,3.8611,3.8611,3.8611,3.8611,3.8611,3.8611,3.8611,3.8611,3.8611,3.8611,3.8611,3.8611,3.8611,3.8611,3.8611,3.8611,3.8611,3.8611,3.8611,3.8611,3.8611,3.8611,3.8611,3.8611,3.8611,3.8611,3.8611,3.8611,3.8611,3.8611,3.8611,3.8611,3.8611,3.8611,3.8611,3.8611,3.8611,3.8611,3.8611,3.8611,3.8611,3.8591,3.8571,3.8532,3.8301,3.7816,3.7796,3.725,3.604,3.5982,3.5982,3.5982,3.5982,3.5982,3.5982,3.5982,3.5982,3.5982,3.5982,3.5982,3.5982,3.5982,3.5982,3.5982,3.5982,3.5982,3.5982,3.5982,3.5982,3.5982,3.5982,3.5982,3.5982,3.5982,3.5982,3.5982,3.5982,3.5982,3.5982,3.5982,3.5982,3.5982,3.5982,3.5982,3.5982,3.5982,3.6309,3.6675,3.6695,3.7266,3.7796,3.7835,3.8223,3.8571,3.8571,3.8591,3.8611,3.8611,3.8611,3.9138,4.0761,3.9666,3.9178,4.08,3.9627,3.8611,3.8611,3.8611,3.8611,3.8611,3.8611,3.8611,3.8611,3.8611,3.8611,3.8611,3.8611,3.8611,3.8611,3.8611,3.8611,3.8611,3.8611,3.8611,3.8611,3.8611,3.8611,3.8611,3.8611,3.8611,3.8611,3.8611,3.8611,3.8611,3.8611,3.8611,3.8611,3.8611,3.8611,3.8611,3.8611,3.8611,3.8611,3.8611,3.8611,3.8611,3.8611,3.8611,3.8611,3.8611,3.8611,3.8611,3.8611,3.8611,3.8611,3.8611,3.8611,3.8611,3.8611,3.832,3.8105,3.7894,3.7676,3.7207,3.6465,3.6172,3.5982,3.5982,3.5982,3.5982,3.5982,3.5982,3.5982,3.5982,3.5982,3.5982,3.5982,3.5982,3.5982,3.5982,3.5982,3.5982,3.5982,3.5982,3.5982,3.5982,3.5982,3.5982,3.5982,3.5982,3.5982,3.5982,3.5982,3.5982,3.5982,3.5982,3.5982,3.6074,3.6348,3.6426,3.6484,3.6738,3.6738,3.6832,3.7324,3.766,3.7988,3.8262,3.8457,3.8611,3.8611,3.8611,3.8611,3.8611,3.8611,3.8826,3.949,3.9041,3.8845,3.951,3.9021,3.8611,3.8611,3.8611,3.8611,3.8611,3.8611,3.8611,3.8611,3.8611,3.8611,3.8611,3.8611,3.8611,3.8611,3.8611,3.8611,3.8611,3.8611,3.8611,3.8611,3.8611,3.8611,3.8611,3.8611,3.8611,3.8611,3.8611,3.8611,3.8611,3.8611,3.8611,3.8611,3.8611,3.8611,3.8611,3.8611,3.8611,3.865,3.8611,3.8611,3.8611,3.8611,3.8611,3.8611,3.8611,3.8611,3.8611,3.8611,3.8611,3.8611,3.8611,3.8611,3.8611,3.8611,3.8301,3.8125,3.8125,3.7734,3.7305,3.6929,3.6582,3.6426,3.6426,3.6289,3.623,3.623,3.6094,3.5982,3.5982,3.5982,3.5982,3.5982,3.5982,3.5982,3.5982,3.5982,3.5982,3.5982,3.5982,3.5982,3.5982,3.5982,3.5982,3.5982,3.5982,3.5982,3.6001,3.6172,3.623,3.625,3.6387,3.6426,3.6484,3.6777,3.691,3.6988,3.7383,3.7285,3.7207,3.7738,3.8027,3.8203,3.8532,3.8611,3.8611,3.8611,3.8611,3.8611,3.8611,3.8611,3.8611,3.8611,3.8611,3.8611,3.8611,3.8611,3.8611,3.8611,3.8611,3.8611,3.8611,3.8611,3.8611,3.8611,3.8611,3.8611,3.8611,3.8611,3.8611,3.8611,3.8611,3.8611,3.8611,3.8611,3.8611,3.8611,3.8611,3.8611,3.8611,3.8611,3.8611,3.8611,3.8611,3.8611,3.8611,3.8611,3.8611,3.8611,3.8611,3.8611,3.8611,3.8611,3.8611,3.8669,3.8611,3.8611,3.8611,3.8611,3.8611,3.8611,3.8611,3.8611,3.8611,3.8611,3.8611,3.8611,3.8611,3.8611,3.8611,3.8611,3.8611,3.8611,3.8611,3.8164,3.7754,3.7324,3.7305,3.7305,3.7305,3.6929,3.6714,3.6714,3.625,3.6035,3.6035,3.6035,3.5982,3.5982,3.5982,3.5982,3.5982,3.5982,3.5982,3.5982,3.5982,3.5982,3.5982,3.5982,3.5982,3.5982,3.5982,3.5982,3.6094,3.6523,3.6714,3.6792,3.7168,3.7305,3.7305,3.7305,3.7305,3.7402,3.7812,3.7894,3.7894,3.7894,3.8262,3.8611,3.8611,3.8611,3.8611,3.8611,3.8611,3.8611,3.8611,3.8611,3.8611,3.8611,3.8611,3.8611,3.8611,3.8611,3.8611,3.8611,3.8611,3.8611,3.8611,3.8611,3.8611,3.8611,3.8611,3.8611,3.8611,3.8611,3.8611,3.8611,3.8611,3.8611,3.8611,3.8611,3.8611,3.8611,3.8611,3.8611,3.8611,3.8611,3.8611,3.8611,3.8611,3.8611,3.8611,3.8611,3.8611,3.8611,3.8611,3.8611,3.8611,3.8611,3.8611,3.8669,3.8299,3.8611,3.8611,3.8611,3.8611,3.8611,3.8611,3.8611,3.8611,3.8611,3.8611,3.8611,3.8611,3.8611,3.8611,3.8611,3.8611,3.8611,3.8611,3.873,3.8769,3.8633,3.7773,3.7305,3.7305,3.7168,3.7109,3.7109,3.6973,3.6758,3.6484,3.6484,3.6309,3.5982,3.5982,3.5982,3.5982,3.5982,3.5982,3.5982,3.5982,3.5982,3.5982,3.5982,3.5982,3.5982,3.5982,3.6211,3.6504,3.6656,3.691,3.7129,3.7266,3.7305,3.7363,3.7656,3.7734,3.7832,3.8262,3.8379,3.8379,3.8379,3.8513,3.8611,3.8611,3.8611,3.8611,3.8611,3.8611,3.8611,3.8611,3.8611,3.8611,3.8611,3.8611,3.8611,3.8611,3.8611,3.8611,3.8611,3.8611,3.8611,3.8611,3.8611,3.8611,3.8611,3.8611,3.8611,3.8611,3.8611,3.8611,3.8611,3.8611,3.8611,3.8611,3.8611,3.8611,3.8611,3.8611,3.8611,3.8611,3.8611,3.8611,3.8611,3.8611,3.8611,3.8611,3.8611,3.8611,3.8611,3.8611,3.8611,3.8611,3.8611,3.8611,3.8691,3.8441,3.8728,3.8611,3.8611,3.8611,3.8611,3.8611,3.8611,3.8611,3.8611,3.8611,3.8611,3.8611,3.8611,3.8611,3.8611,3.8767,3.8906,3.9082,3.9336,3.9473,3.9473,3.873,3.832,3.832,3.8144,3.8047,3.8047,3.7891,3.7676,3.7457,3.7457,3.7187,3.6743,3.6743,3.6645,3.6523,3.6523,3.6523,3.6523,3.6523,3.6523,3.6523,3.6523,3.6523,3.6523,3.6523,3.6699,3.6953,3.7109,3.7441,3.7793,3.7793,3.7793,3.7851,3.8105,3.8184,3.8242,3.8496,3.8611,3.8611,3.8611,3.8611,3.8611,3.8611,3.8611,3.8611,3.8611,3.8611,3.8611,3.8611,3.8611,3.8611,3.8611,3.8611,3.8611,3.8611,3.8611,3.8611,3.8611,3.8611,3.8611,3.8611,3.8611,3.8611,3.8611,3.8611,3.8611,3.8611,3.8611,3.8611,3.8611,3.8611,3.8611,3.8611,3.8611,3.8611,3.8611,3.8611,3.8611,3.8611,3.8611,3.8611,3.8611,3.8611,3.8611,3.8611,3.8611,3.8611,3.863,3.8787,3.8828,3.8848,3.906,3.9101,3.9219,3.8474,3.8737,3.8611,3.8611,3.8611,3.8611,3.8611,3.8611,3.8611,3.8611,3.8611,3.8611,3.8611,3.865,3.8669,3.8669,3.9023,3.9453,3.9863,3.9922,3.9961,3.9961,3.998,4.0019,4.0019,3.9512,3.9258,3.9258,3.8923,3.8689,3.8611,3.8611,3.832,3.7835,3.7835,3.7656,3.7305,3.7305,3.7305,3.7305,3.7305,3.7324,3.7344,3.7344,3.7383,3.7422,3.7422,3.7441,3.7539,3.7949,3.8359,3.8728,3.8689,3.8669,3.8669,3.863,3.8611,3.8611,3.8611,3.8611,3.8611,3.8611,3.8611,3.8611,3.8611,3.8611,3.8611,3.8611,3.8611,3.8611,3.8611,3.8611,3.8611,3.8611,3.8611,3.8611,3.8611,3.8611,3.8611,3.8611,3.8611,3.8611,3.8611,3.8611,3.8611,3.8611,3.8611,3.8611,3.8611,3.8611,3.8611,3.8611,3.8611,3.8611,3.8611,3.8611,3.8611,3.8611,3.8611,3.8611,3.8611,3.8611,3.8611,3.8611,3.8611,3.8611,3.8611,3.865,3.8669,3.8708,3.9101,3.9258,3.9316,3.9746,3.9902,4.0019,3.6279,3.7722,3.8611,3.8611,3.8611,3.8611,3.8611,3.8611,3.8611,3.8611,3.8611,3.8611,3.8611,3.8867,3.9062,3.9062,3.9473,3.9785,3.9883,4.0195,4.0391,4.0391,4.0703,4.0937,4.0937,4.0137,3.9746,3.9746,3.9648,3.9258,3.8611,3.8611,3.8164,3.7441,3.7441,3.7383,3.7305,3.7305,3.7305,3.7305,3.7305,3.75,3.7793,3.7793,3.8008,3.8337,3.8337,3.8516,3.8867,3.9316,3.9531,3.9551,3.918,3.9062,3.9004,3.8708,3.8611,3.8611,3.8611,3.8611,3.8611,3.8611,3.8611,3.8611,3.8611,3.8611,3.8611,3.8611,3.8611,3.8611,3.8611,3.8611,3.8611,3.8611,3.8611,3.8611,3.8611,3.8611,3.8611,3.8611,3.8611,3.8611,3.8611,3.8611,3.8611,3.8611,3.8611,3.8611,3.8611,3.8611,3.8611,3.8611,3.8611,3.8611,3.8611,3.8611,3.8611,3.8611,3.8611,3.8611,3.8611,3.8611,3.8611,3.8611,3.8611,3.8611,3.863,3.8926,3.9062,3.9121,3.957,3.9746,3.9766,3.9863,3.9902,4.0019,3.5994,3.7159,3.7932,3.8759,3.8867,3.8809,3.865,3.8611,3.8611,3.8611,3.875,3.8867,3.8867,3.9258,3.9609,3.9824,4.0059,4.0273,4.0488,4.0703,4.084,4.084,4.1093,4.1211,4.1211,4.0723,4.0508,4.0508,4.0508,4.0311,3.9862,3.9862,3.9473,3.8828,3.8633,3.8418,3.8184,3.7988,3.8027,3.8203,3.8203,3.8476,3.8867,3.8867,3.9004,3.9199,3.9199,3.9355,3.957,3.9824,3.9902,3.9863,3.9609,3.9531,3.9492,3.9277,3.9199,3.916,3.8945,3.8867,3.8828,3.8669,3.8611,3.8611,3.8611,3.8611,3.8611,3.8611,3.8611,3.8611,3.8611,3.8611,3.8611,3.8611,3.8611,3.8611,3.8611,3.8611,3.8611,3.8611,3.8611,3.8611,3.8611,3.8611,3.8611,3.8611,3.8611,3.8611,3.8611,3.8611,3.8611,3.8611,3.8611,3.8611,3.8611,3.8611,3.8611,3.8611,3.8611,3.8611,3.8611,3.8611,3.8691,3.8867,3.8867,3.9004,3.9219,3.9434,3.9531,3.957,4.0019,4.0195,4.0215,4.043,4.0762,4.1172,3.5965,3.6683,3.7169,3.9002,3.9258,3.9082,3.873,3.8691,3.8691,3.8691,3.9062,3.9316,3.9316,3.9726,4.0176,4.0586,4.0644,4.0781,4.1191,4.1211,4.1211,4.1211,4.1211,4.1211,4.1211,4.1211,4.1211,4.1211,4.1211,4.1172,4.1055,4.1055,4.084,4.0372,4.0059,3.9687,3.9297,3.8945,3.9004,3.9316,3.9316,3.959,4.0,4.0,4.0059,4.0117,4.0117,4.0117,4.0117,4.0117,4.0117,4.0098,4.0019,4.0,3.998,3.9922,3.9902,3.9805,3.9434,3.9316,3.9238,3.8923,3.8845,3.8845,3.8845,3.8728,3.8611,3.8611,3.8611,3.8611,3.8611,3.8611,3.8611,3.8611,3.8611,3.8611,3.8611,3.8611,3.8611,3.8611,3.8611,3.8611,3.8611,3.8611,3.8611,3.8611,3.8611,3.8611,3.8611,3.8611,3.8611,3.8611,3.8689,3.8691,3.8691,3.8787,3.8845,3.8845,3.8845,3.8787,3.8728,3.8806,3.8984,3.9316,3.9316,3.9531,3.9902,3.998,4.0,4.0039,4.0469,4.0644,4.0684,4.1113,4.1816,4.2539,3.3947,3.5596,3.7299,3.9409,3.9473,3.918,3.9121,3.9121,3.9121,3.9121,3.9512,3.9805,3.9805,4.0176,4.0605,4.1093,4.1132,4.1152,4.1211,4.1211,4.1211,4.1211,4.1211,4.1211,4.1211,4.1211,4.1211,4.1211,4.1211,4.0976,4.0567,4.0567,4.0391,3.998,3.9922,3.9863,3.9805,3.9746,3.9746,3.9805,3.9805,4.0059,4.043,4.043,4.0664,4.1035,4.1035,4.1035,4.1035,4.1035,4.1035,4.0937,4.0566,4.043,4.0371,4.0,3.9902,3.9883,3.9824,3.9805,3.9785,3.9726,3.9726,3.9726,3.9726,3.9121,3.8611,3.8611,3.8611,3.8611,3.8611,3.8611,3.8611,3.8611,3.8611,3.8611,3.8611,3.8611,3.8611,3.8611,3.8611,3.8611,3.8611,3.8611,3.8611,3.8611,3.8611,3.8611,3.8611,3.8611,3.8611,3.8611,3.8926,3.9121,3.9121,3.9512,3.9726,3.9726,3.9726,3.9512,3.9121,3.9531,3.9746,3.9805,3.9805,3.9844,3.9922,4.0293,4.043,4.0469,4.0918,4.1132,4.1172,4.1562,4.2246,4.2988,3.2109,3.4168,3.6163,3.8089,3.928,3.9863,3.9629,3.959,3.959,3.959,3.998,4.0254,4.0254,4.0625,4.0957,4.1191,4.1211,4.1211,4.1211,4.1211,4.1211,4.1211,4.1211,4.1211,4.1211,4.1211,4.1211,4.1211,4.1211,4.1074,4.0879,4.0879,4.0781,4.0605,4.0351,4.0254,4.0234,4.0,4.0039,4.0254,4.0254,4.0508,4.0879,4.0879,4.1016,4.1211,4.1211,4.1211,4.1211,4.1211,4.1211,4.1172,4.0957,4.0879,4.0859,4.0664,4.0605,4.0566,4.0312,4.0254,4.0195,3.9961,3.9902,3.9902,3.9902,3.959,3.9316,3.9316,3.9316,3.9238,3.8965,3.8926,3.8848,3.865,3.8611,3.8611,3.8611,3.8611,3.8689,3.8906,3.8926,3.9023,3.9297,3.9316,3.9316,3.9316,3.9316,3.9316,3.9316,3.9316,3.9316,3.9316,3.9492,3.959,3.959,3.9785,3.9902,3.9902,4.0137,4.0019,3.959,3.9805,4.0019,4.0254,4.0254,4.0391,4.0625,4.0801,4.0879,4.0898,4.1132,4.1211,4.1269,4.1641,4.2187,4.2754]},{"header":{"parameterUnit":"m.s-1","parameterCategory":1,"la1":30.6,"la2":28.766,"lo1":-90.7593,"lo2":-88.6598,"dx":0.0162,"dy":0.0183,"nx":116,"ny":114,"refTime":"2022-11-18T18:00:00:Z","depth":0,"parameterNumber":3,"parameterNumberName":"V-component_of_WINDS"},"data":[0.0,0.0,0.0,0.0,0.0,0.0,0.0,0.0,0.0,0.0,0.0,0.0,0.0,0.0,0.0,0.0,0.0,0.0,0.0,0.0,0.0,0.0,0.0,0.0,0.0,0.0,0.0,0.0,0.0,0.0,0.0,0.0,0.0,0.0,0.0,0.0,0.0,0.0,0.0,0.0,0.0,0.0,0.0,0.0,0.0,0.0,0.0,0.0,0.0,0.0,0.0,0.0,0.0,0.0,0.0,0.0,0.0,0.0,0.0,0.0,0.0,0.0,0.0,0.0,0.0,0.0,0.0,0.0,0.0,0.0,0.0,0.0,0.0,0.0,0.0,0.0,0.0,0.0,0.0,0.0,0.0,0.0,0.0,0.0,0.0,0.0,0.0,0.0,0.0,0.0,0.0,0.0,0.0,0.0,0.0,0.0,0.0,0.0,0.0,0.0,0.0,0.0,0.0,0.0,0.0,0.0,0.0,0.0,0.0,0.0,0.0,0.0,0.0,0.0,0.0,0.0,0.0,0.0,0.0,0.0,0.0,0.0,0.0,0.0,0.0,0.0,0.0,0.0,0.0,0.0,0.0,0.0,0.0,0.0,0.0,0.0,0.0,0.0,0.0,0.0,0.0,0.0,0.0,0.0,0.0,0.0,0.0,0.0,0.0,0.0,0.0,0.0,0.0,0.0,0.0,0.0,0.0,0.0,0.0,0.0,0.0,0.0,0.0,0.0,0.0,0.0,0.0,0.0,0.0,0.0,0.0,0.0,0.0,0.0,0.0,0.0,0.0,0.0,0.0,0.0,0.0,0.0,0.0,0.0,0.0,0.0,0.0,0.0,0.0,0.0,0.0,0.0,0.0,0.0,0.0,0.0,0.0,0.0,0.0,0.0,0.0,0.0,0.0,0.0,0.0,0.0,0.0,0.0,0.0,0.0,0.0,0.0,0.0,0.0,0.0,0.0,0.0,0.0,0.0,0.0,0.0,0.0,0.0,0.0,0.0,0.0,0.0,0.0,0.0,0.0,0.0,0.0,0.0,0.0,0.0,0.0,0.0,0.0,0.0,0.0,0.0,0.0,0.0,0.0,0.0,0.0,0.0,0.0,0.0,0.0,0.0,0.0,0.0,0.0,0.0,0.0,0.0,0.0,0.0,0.0,0.0,0.0,0.0,0.0,0.0,0.0,0.0,0.0,0.0,0.0,0.0,0.0,0.0,0.0,0.0,0.0,0.0,0.0,0.0,0.0,0.0,0.0,0.0,0.0,0.0,0.0,0.0,0.0,0.0,0.0,0.0,0.0,0.0,0.0,0.0,0.0,0.0,0.0,0.0,0.0,0.0,0.0,0.0,0.0,0.0,0.0,0.0,0.0,0.0,0.0,0.0,0.0,0.0,0.0,0.0,0.0,0.0,0.0,0.0,0.0,0.0,0.0,0.0,0.0,0.0,0.0,0.0,0.0,0.0,0.0,0.0,0.0,0.0,0.0,0.0,0.0,0.0,0.0,0.0,0.0,0.0,0.0,0.0,0.0,0.0,0.0,0.0,0.0,0.0,0.0,0.0,0.0,0.0,0.0,0.0,0.0,0.0,0.0,0.0,0.0,0.0,0.0,0.0,0.0,0.0,0.0,0.0,0.0,0.0,0.0,0.0,0.0,0.0,0.0,0.0,0.0,0.0,0.0,0.0,0.0,0.0,0.0,0.0,0.0,0.0,0.0,0.0,0.0,0.0,0.0,0.0,0.0,0.0,0.0,0.0,0.0,0.0,0.0,0.0,0.0,0.0,0.0,0.0,0.0,0.0,0.0,0.0,0.0,0.0,0.0,0.0,0.0,0.0,0.0,0.0,0.0,0.0,0.0,0.0,0.0,0.0,0.0,0.0,0.0,0.0,0.0,0.0,0.0,0.0,0.0,0.0,0.0,0.0,0.0,0.0,0.0,0.0,0.0,0.0,0.0,0.0,0.0,0.0,0.0,0.0,0.0,0.0,0.0,0.0,0.0,0.0,0.0,0.0,0.0,0.0,0.0,0.0,0.0,0.0,0.0,0.0,0.0,0.0,0.0,0.0,0.0,0.0,0.0,0.0,0.0,0.0,0.0,0.0,0.0,0.0,0.0,0.0,0.0,0.0,0.0,0.0,0.0,0.0,0.0,0.0,0.0,0.0,0.0,0.0,0.0,0.0,0.0,0.0,0.0,0.0,0.0,0.0,0.0,0.0,0.0,0.0,0.0,0.0,0.0,0.0,0.0,0.0,0.0,0.0,0.0,0.0,0.0,0.0,0.0,0.0,0.0,0.0,0.0,0.0,0.0,0.0,0.0,0.0,0.0,0.0,0.0,0.0,0.0,0.0,0.0,0.0,0.0,0.0,0.0,0.0,0.0,0.0,0.0,0.0,0.0,0.0,0.0,0.0,0.0,0.0,0.0,0.0,0.0,0.0,0.0,0.0,0.0,0.0,0.0,0.0,0.0,0.0,0.0,0.0,0.0,0.0,0.0,0.0,0.0,0.0,0.0,0.0,0.0,0.0,0.0,0.0,0.0,0.0,0.0,0.0,0.0,0.0,0.0,0.0,0.0,0.0,0.0,0.0,0.0,0.0,0.0,0.0,0.0,0.0,0.0,0.0,0.0,0.0,0.0,0.0,0.0,0.0,0.0,0.0,0.0,0.0,0.0,0.0,0.0,0.0,0.0,0.0,0.0,0.0,0.0,0.0,0.0,0.0,0.0,0.0,0.0,0.0,0.0,0.0,0.0,0.0,0.0,0.0,0.0,0.0,0.0,0.0,0.0,0.0,0.0,0.0,0.0,0.0,0.0,0.0,0.0,0.0,0.0,0.0,0.0,0.0,0.0,0.0,0.0,0.0,0.0,0.0,0.0,0.0,0.0,0.0,0.0,0.0,0.0,0.0,0.0,0.0,0.0,0.0,0.0,0.0,0.0,0.0,0.0,0.0,0.0,0.0,0.0,0.0,0.0,0.0,0.0,0.0,0.0,0.0,0.0,0.0,0.0,0.0,0.0,0.0,0.0,0.0,0.0,0.0,0.0,0.0,0.0,0.0,0.0,0.0,0.0,0.0,0.0,0.0,0.0,0.0,0.0,0.0,0.0,0.0,0.0,0.0,0.0,0.0,0.0,0.0,0.0,0.0,0.0,0.0,0.0,0.0,0.0,0.0,0.0,0.0,0.0,0.0,0.0,0.0,0.0,0.0,0.0,0.0,0.0,0.0,0.0,0.0,0.0,0.0,0.0,0.0,0.0,0.0,0.0,0.0,0.0,0.0,0.0,0.0,0.0,0.0,0.0,0.0,0.0,0.0,0.0,0.0,0.0,0.0,0.0,0.0,0.0,0.0,0.0,0.0,0.0,0.0,0.0,0.0,0.0,0.0,0.0,0.0,0.0,0.0,0.0,0.0,0.0,0.0,0.0,0.0,0.0,0.0,0.0,0.0,0.0,0.0,0.0,0.0,0.0,0.0,0.0,0.0,0.0,0.0,0.0,0.0,0.0,0.0,0.0,0.0,0.0,0.0,0.0,0.0,0.0,0.0,0.0,0.0,0.0,0.0,0.0,0.0,0.0,0.0,0.0,0.0,0.0,0.0,0.0,0.0,0.0,0.0,0.0,0.0,0.0,0.0,0.0,0.0,0.0,0.0,0.0,0.0,0.0,0.0,0.0,0.0,0.0,0.0,0.0,0.0,0.0,0.0,0.0,0.0,0.0,0.0,0.0,0.0,0.0,0.0,0.0,0.0,0.0,0.0,0.0,0.0,0.0,0.0,0.0,0.0,0.0,0.0,0.0,0.0,0.0,0.0,0.0,0.0,0.0,0.0,0.0,0.0,0.0,0.0,0.0,0.0,0.0,0.0,0.0,0.0,0.0,0.0,0.0,0.0,0.0,0.0,0.0,0.0,0.0,0.0,0.0,0.0,0.0,0.0,0.0,0.0,0.0,0.0,0.0,0.0,0.0,0.0,0.0,0.0,0.0,0.0,0.0,0.0,0.0,0.0,0.0,0.0,0.0,0.0,0.0,0.0,0.0,0.0,0.0,0.0,0.0,0.0,0.0,0.0,0.0,0.0,0.0,0.0,0.0,0.0,0.0,0.0,0.0,0.0,0.0,0.0,0.0,0.0,0.0,0.0,0.0,0.0,0.0,0.0,0.0,0.0,0.0,0.0,0.0,0.0,0.0,0.0,0.0,0.0,0.0,0.0,0.0,0.0,0.0,0.0,0.0,0.0,0.0,0.0,0.0,0.0,0.0,0.0,0.0,0.0,0.0,0.0,0.0,0.0,0.0,0.0,0.0,0.0,0.0,0.0,0.0,0.0,0.0,0.0,0.0,0.0,0.0,0.0,0.0,0.0,0.0,0.0,0.0,0.0,0.0,0.0,0.0,0.0,0.0,0.0,0.0,0.0,0.0,0.0,0.0,0.0,0.0,0.0,0.0,0.0,0.0,0.0,0.0,0.0,0.0,0.0,0.0,0.0,0.0,0.0,0.0,0.0,0.0,0.0,0.0,0.0,0.0,0.0,0.0,0.0,0.0,0.0,0.0,0.0,0.0,0.0,0.0,0.0,0.0,0.0,0.0,0.0,0.0,0.0,0.0,0.0,0.0,0.0,0.0,0.0,0.0,0.0,0.0,0.0,0.0,0.0,0.0,0.0,0.0,0.0,0.0,0.0,0.0,0.0,0.0,0.0,0.0,0.0,0.0,0.0,0.0,0.0,0.0,0.0,0.0,0.0,0.0,0.0,0.0,0.0,0.0,0.0,0.0,0.0,0.0,0.0,0.0,0.0,0.0,0.0,0.0,0.0,0.0,0.0,0.0,0.0,0.0,0.0,0.0,0.0,0.0,0.0,0.0,0.0,0.0,0.0,0.0,0.0,0.0,0.0,0.0,0.0,0.0,0.0,0.0,0.0,0.0,0.0,0.0,0.0,0.0,0.0,0.0,0.0,0.0,0.0,0.0,0.0,0.0,0.0,0.0,0.0,0.0,0.0,0.0,0.0,0.0,0.0,0.0,0.0,0.0,0.0,0.0,0.0,0.0,0.0,0.0,0.0,0.0,0.0,0.0,0.0,0.0,0.0,0.0,0.0,0.0,0.0,0.0,0.0,0.0,0.0,0.0,0.0,0.0,0.0,0.0,0.0,0.0,0.0,0.0,0.0,0.0,0.0,0.0,0.0,0.0,0.0,0.0,0.0,0.0,0.0,0.0,0.0,0.0,0.0,0.0,0.0,0.0,0.0,0.0,0.0,0.0,0.0,0.0,0.0,0.0,0.0,0.0,0.0,0.0,0.0,0.0,0.0,0.0,0.0,0.0,0.0,0.0,0.0,0.0,0.0,0.0,0.0,0.0,0.0,0.0,0.0,0.0,0.0,0.0,0.0,0.0,0.0,0.0,0.0,0.0,0.0,0.0,0.0,0.0,0.0,0.0,0.0,0.0,0.0,0.0,0.0,0.0,0.0,0.0,0.0,0.0,0.0,0.0,0.0,0.0,0.0,0.0,0.0,0.0,0.0,0.0,0.0,0.0,0.0,0.0,0.0,0.0,0.0,0.0,0.0,0.0,0.0,0.0,0.0,0.0,0.0,0.0,0.0,0.0,0.0,0.0,0.0,0.0,0.0,0.0,0.0,0.0,0.0,0.0,0.0,0.0,0.0,0.0,0.0,0.0,0.0,0.0,0.0,0.0,0.0,0.0,0.0,0.0,0.0,0.0,0.0,0.0,0.0,0.0,0.0,0.0,0.0,0.0,0.0,0.0,0.0,0.0,0.0,0.0,0.0,0.0,0.0,0.0,0.0,0.0,0.0,0.0,0.0,0.0,0.0,0.0,0.0,0.0,0.0,0.0,0.0,0.0,0.0,0.0,0.0,0.0,0.0,0.0,0.0,0.0,0.0,0.0,0.0,0.0,0.0,0.0,0.0,0.0,0.0,0.0,0.0,0.0,0.0,0.0,0.0,0.0,0.0,0.0,0.0,0.0,0.0,0.0,0.0,0.0,0.0,0.0,0.0,0.0,0.0,0.0,0.0,0.0,0.0,0.0,0.0,0.0,0.0,0.0,0.0,0.0,0.0,0.0,0.0,0.0,0.0,0.0,0.0,0.0,0.0,0.0,2.3027,2.1721,0.0,0.0,0.0,0.0,0.0,0.0,0.0,0.0,0.0,0.0,0.0,0.0,0.0,0.0,0.0,0.0,0.0,0.0,0.0,0.0,0.0,0.0,0.0,1.4863,1.4937,1.4527,1.4863,0.0,0.0,0.0,0.0,0.0,0.0,0.0,1.6848,1.6848,1.7439,1.8618,1.864,1.9221,2.0285,1.9352,1.8584,1.8004,0.0,0.0,0.0,0.0,0.0,0.0,0.0,0.0,0.0,0.0,0.0,0.0,0.0,0.0,0.0,0.0,0.0,0.0,0.0,0.0,0.0,0.0,0.0,0.0,0.0,0.0,0.0,0.0,0.0,0.0,0.0,0.0,0.0,0.0,0.0,0.0,0.0,0.0,0.0,0.0,0.0,0.0,0.0,0.0,0.0,0.0,0.0,0.0,0.0,0.0,0.0,0.0,0.0,0.0,0.0,0.0,0.0,0.0,0.0,0.0,0.0,0.0,0.0,0.0,0.0,0.0,0.0,0.0,0.0,0.0,2.5533,2.3893,0.0,0.0,0.0,0.0,0.0,0.0,0.0,0.0,0.0,0.0,0.0,0.0,0.0,0.0,0.0,0.0,0.0,0.0,0.0,0.0,0.0,1.5117,1.5117,1.5857,1.6044,1.5374,1.5931,1.6341,1.6341,1.6341,0.0,0.0,0.0,0.0,1.8493,1.868,1.9822,2.1996,2.1836,2.2465,2.3836,2.508,2.4806,2.3203,2.183,0.0,0.0,0.0,0.0,0.0,0.0,0.0,0.0,0.0,0.0,0.0,0.0,0.0,0.0,0.0,0.0,0.0,0.0,0.0,0.0,0.0,0.0,0.0,0.0,0.0,0.0,0.0,0.0,0.0,0.0,0.0,0.0,0.0,0.0,0.0,0.0,0.0,0.0,0.0,0.0,0.0,0.0,0.0,0.0,0.0,0.0,0.0,0.0,0.0,0.0,0.0,0.0,0.0,0.0,0.0,0.0,0.0,0.0,0.0,0.0,0.0,0.0,0.0,2.9333,2.929,2.8685,2.9204,2.9355,2.9182,2.7707,2.6105,2.4575,2.5588,0.0,0.0,0.0,0.0,0.0,0.0,0.0,0.0,0.0,0.0,0.0,0.0,0.0,0.0,0.0,0.0,0.0,0.0,0.0,1.7616,1.7616,1.8357,1.8765,1.8691,1.8765,1.8838,1.8838,1.8838,0.0,0.0,0.0,1.9344,2.0177,2.0927,2.1808,2.2827,2.5511,2.7299,2.8182,2.9081,2.9355,2.8944,2.5585,2.3359,2.2124,0.0,0.0,0.0,0.0,0.0,0.0,0.0,0.0,0.0,0.0,0.0,0.0,0.0,0.0,0.0,0.0,0.0,0.0,0.0,0.0,0.0,0.0,0.0,0.0,0.0,0.0,0.0,0.0,0.0,0.0,0.0,0.0,0.0,0.0,0.0,0.0,0.0,0.0,0.0,0.0,0.0,2.1406,2.2687,0.0,0.0,0.0,0.0,0.0,0.0,0.0,0.0,0.0,0.0,0.0,0.0,0.0,2.8919,2.8338,2.9714,2.9977,2.9204,3.0387,3.0265,2.8966,2.9617,2.9597,2.9053,2.9575,0.0,2.6914,2.7458,0.0,0.0,0.0,0.0,0.0,0.0,0.0,0.0,0.0,0.0,0.0,0.0,0.0,0.0,0.0,0.0,0.0,0.0,0.0,0.0,0.0,2.0193,2.0711,2.0711,2.1111,2.118,2.0747,2.0711,0.0,0.0,2.162,2.2166,2.3887,2.4295,2.5429,2.7345,2.9668,3.0995,3.1325,3.2404,3.2662,3.2149,3.0043,2.7409,2.4525,2.405,0.0,0.0,0.0,0.0,0.0,0.0,0.0,0.0,0.0,0.0,0.0,0.0,0.0,0.0,0.0,0.0,0.0,0.0,0.0,0.0,0.0,0.0,0.0,0.0,0.0,0.0,0.0,0.0,0.0,0.0,0.0,0.0,0.0,0.0,0.0,0.0,0.0,0.0,0.0,2.1574,2.3133,2.4105,2.5117,2.5872,0.0,0.0,0.0,0.0,0.0,0.0,0.0,0.0,0.0,3.0313,3.0552,3.0881,3.136,3.1539,3.1455,3.1117,3.1279,3.0836,2.984,3.0159,3.0333,3.0419,3.0807,3.069,3.0234,3.0434,3.0013,2.9305,0.0,0.0,0.0,0.0,3.0103,2.9666,0.0,0.0,0.0,0.0,0.0,0.0,0.0,0.0,0.0,0.0,0.0,0.0,2.1245,2.2579,2.3355,2.3355,2.4075,2.4295,2.368,2.3644,2.4194,2.5364,2.4662,2.5176,2.7158,2.7818,2.9241,3.1483,3.3154,3.3974,3.3936,3.4643,3.4784,3.4394,3.336,3.0836,2.7307,2.704,2.549,2.3219,0.0,0.0,0.0,0.0,0.0,0.0,0.0,0.0,0.0,0.0,0.0,0.0,0.0,0.0,0.0,0.0,0.0,0.0,0.0,0.0,0.0,0.0,0.0,0.0,0.0,0.0,0.0,0.0,0.0,0.0,0.0,0.0,0.0,0.0,0.0,0.0,0.0,2.384,2.5075,2.5641,2.6831,2.7782,0.0,0.0,0.0,0.0,0.0,0.0,3.0566,3.0446,3.1061,3.2691,3.2273,3.2572,3.3724,3.3095,3.2931,3.326,3.2766,3.2183,3.1539,3.1689,3.1854,3.2019,3.2183,3.2542,3.2975,3.26,3.1955,3.1402,3.2475,3.2958,3.2946,3.2632,3.2363,3.206,0.0,0.0,0.0,0.0,0.0,0.0,0.0,0.0,0.0,0.0,0.0,2.3896,2.4006,2.6104,2.7499,2.7499,2.8222,2.8693,2.8651,2.8656,2.8651,2.8767,2.8007,2.797,2.8871,3.1115,3.2723,3.3626,3.5327,3.6134,3.6127,3.5364,3.5408,3.6083,3.4468,3.2776,3.1036,2.9918,2.8408,2.678,2.6016,0.0,0.0,0.0,0.0,0.0,0.0,0.0,0.0,0.0,0.0,0.0,0.0,0.0,0.0,0.0,0.0,0.0,0.0,0.0,0.0,0.0,0.0,0.0,0.0,0.0,0.0,0.0,0.0,0.0,0.0,0.0,0.0,0.0,0.0,0.0,0.0,0.0,0.0,2.8388,2.9537,0.0,0.0,0.0,0.0,3.2213,3.169,3.1899,3.3215,3.2706,3.2691,3.3425,3.3425,3.3739,3.4444,3.3784,3.4083,3.534,3.5294,3.4951,3.4324,3.4951,3.4562,3.3425,3.4069,3.4384,3.4291,3.282,3.1934,3.1469,3.1358,3.1423,3.166,3.2273,3.1972,3.1341,0.0,0.0,0.0,1.4282,1.4304,1.4705,1.5869,1.6762,1.8089,2.0193,2.2208,2.4226,2.6287,2.7278,2.8233,2.9255,2.9616,2.9323,2.8301,2.9696,3.054,3.054,3.0252,3.073,3.2075,3.3201,3.4381,3.5665,3.6329,3.6619,3.6551,3.6581,3.6787,3.7008,3.5906,3.5227,3.4746,3.2797,3.1297,3.015,2.909,2.7248,0.0,0.0,0.0,0.0,0.0,0.0,0.0,0.0,0.0,0.0,0.0,0.0,0.0,0.0,0.0,0.0,0.0,0.0,0.0,0.0,0.0,0.0,0.0,0.0,0.0,0.0,0.0,0.0,0.0,0.0,0.0,0.0,0.0,0.0,0.0,0.0,0.0,2.9249,3.0358,0.0,3.1734,3.2004,3.2422,3.3095,3.2901,3.3185,3.4099,3.3919,3.4308,3.5416,3.5446,3.5729,3.6357,3.5729,3.5685,3.6118,3.6118,3.6014,3.5805,3.6447,3.6716,3.6673,3.6913,3.7002,3.7015,3.6887,3.5733,3.4156,3.4912,3.5007,3.4801,3.5413,3.5459,3.5145,0.0,0.0,0.0,1.4068,1.4088,1.4664,1.6389,1.7131,1.8552,2.1635,2.3213,2.5006,2.7525,2.827,2.9041,3.0093,3.0681,3.0577,2.9475,3.117,3.2198,3.2198,3.2485,3.3109,3.4167,3.5038,3.5958,3.6979,3.7302,3.7411,3.7378,3.7467,3.7639,3.7852,3.6787,3.66,3.7061,3.5234,3.3792,3.2671,3.1717,2.9817,2.7465,0.0,0.0,0.0,0.0,0.0,0.0,0.0,0.0,0.0,0.0,0.0,0.0,0.0,0.0,0.0,0.0,0.0,0.0,0.0,0.0,0.0,0.0,0.0,0.0,0.0,0.0,0.0,0.0,0.0,0.0,0.0,0.0,0.0,0.0,2.8996,3.0253,3.0253,3.1375,3.2362,3.2781,3.3036,3.3455,3.4113,3.4382,3.4771,3.5446,3.5476,3.5895,3.6776,3.7015,3.7434,3.8075,3.7674,3.7704,3.814,3.793,3.7811,3.7823,3.8242,3.8542,3.8751,3.896,3.905,3.911,3.9798,3.8931,3.7225,3.7836,3.7823,3.7524,3.7943,3.8075,3.8005,0.0,0.0,1.3892,1.3895,1.3931,1.4482,1.6025,1.7665,1.961,2.2247,2.4665,2.6581,2.7765,2.9292,3.024,3.0277,3.1708,3.2583,3.2546,3.3403,3.388,3.3917,3.4674,3.5107,3.5071,3.6677,3.7529,3.7529,3.8322,3.8681,3.8689,3.7889,3.7962,3.8615,3.7074,3.6957,3.7874,3.7083,3.5785,3.427,3.3829,3.2415,3.0472,0.0,0.0,0.0,0.0,0.0,0.0,0.0,0.0,0.0,0.0,0.0,0.0,0.0,0.0,0.0,0.0,0.0,0.0,0.0,0.0,0.0,0.0,0.0,0.0,0.0,0.0,0.0,0.0,0.0,0.0,0.0,0.0,0.0,2.8786,3.0329,3.154,3.157,3.2721,3.3544,3.3544,3.4158,3.4847,3.5519,3.6148,3.6806,3.7434,3.7464,3.7477,3.7524,3.8153,3.8811,3.9451,3.9451,4.0127,4.1403,4.0756,4.0457,4.0457,4.0487,4.0157,3.9601,4.0247,4.0516,4.0606,4.1254,4.1134,4.0487,3.975,3.9451,3.9421,3.9451,3.9451,3.9451,1.3462,1.3511,1.3561,1.3671,1.4614,1.595,1.7678,1.9439,2.1451,2.3911,2.605,2.7892,2.9396,3.0473,3.1311,3.1892,3.2332,3.2369,3.1758,3.4174,3.587,3.6464,3.7257,3.7397,3.6824,3.7852,3.8358,3.8358,3.8579,3.8681,3.8681,3.8469,3.8505,3.8689,3.8248,3.818,3.8457,3.7848,3.7131,3.6267,3.5248,3.3818,3.2244,0.0,0.0,0.0,0.0,0.0,0.0,0.0,0.0,0.0,0.0,0.0,0.0,0.0,0.0,0.0,0.0,0.0,0.0,0.0,0.0,0.0,0.0,0.0,0.0,0.0,0.0,0.0,0.0,0.0,0.0,0.0,3.1585,3.1465,3.0793,3.1585,3.2392,3.2886,3.3709,3.4428,3.4891,3.5565,3.6224,3.6836,3.7045,3.7627,3.8793,3.8853,3.932,4.0266,4.0475,4.0655,4.0846,4.0846,4.1044,4.1403,4.1722,4.1852,4.1852,4.2312,4.2681,4.2951,4.313,4.3509,4.3958,4.4137,4.4107,4.3748,4.1654,4.0546,4.0187,4.0666,4.0846,4.0846,1.3413,1.3413,1.3417,1.3497,1.4774,1.633,1.8013,1.9789,2.1969,2.4831,2.6571,2.8144,2.9531,3.043,3.1091,3.1561,3.2222,3.2552,3.2418,3.4842,3.6677,3.7456,3.7962,3.8146,3.7999,3.8469,3.8865,3.9203,3.9203,3.9386,3.9709,3.9709,3.9709,3.9709,3.9709,3.9393,3.885,3.8527,3.7927,3.7109,3.6163,3.49,3.3548,3.2971,3.1775,3.033,3.0016,2.9136,2.8146,2.8272,0.0,0.0,0.0,0.0,0.0,0.0,0.0,0.0,0.0,0.0,0.0,0.0,0.0,0.0,0.0,0.0,0.0,0.0,0.0,0.0,0.0,0.0,0.0,0.0,3.2721,3.2961,3.317,3.3499,3.3903,3.4292,3.513,3.5878,3.6267,3.6896,3.7554,3.8195,3.8512,3.911,4.0187,4.0247,4.0576,4.1373,4.1673,4.1822,4.1822,4.2361,4.2611,4.2611,4.3289,4.3619,4.3619,4.3988,4.4356,4.4736,4.4736,4.4945,4.5304,4.5304,4.5304,4.5155,0.0,0.0,0.0,0.0,4.305,4.305,1.3413,1.3413,1.3413,1.3413,1.4691,1.6175,1.7484,1.9304,2.1733,2.5051,2.6578,2.7821,2.9,2.9947,3.046,3.046,3.1928,3.3286,3.4284,3.5642,3.6787,3.7603,3.7639,3.7962,3.8689,3.8681,3.9093,3.9908,3.9908,4.0304,4.1095,4.1095,4.1095,4.1095,4.1095,4.042,3.9334,3.9173,3.8411,3.7286,3.6665,3.5734,3.4637,3.3918,3.3186,3.2462,3.1809,3.1089,3.0369,2.9813,0.0,0.0,0.0,0.0,0.0,0.0,0.0,0.0,0.0,0.0,0.0,0.0,0.0,0.0,0.0,0.0,0.0,0.0,0.0,0.0,0.0,0.0,0.0,0.0,3.3335,3.4203,3.5519,3.5789,3.5818,3.5712,3.6776,3.7537,3.7627,3.8242,3.8901,3.9571,4.0187,4.0804,4.1463,4.1523,0.0,0.0,0.0,4.265,4.274,4.3838,4.4416,4.4416,4.5005,4.5304,4.5304,4.5304,4.5334,4.5394,4.5394,4.5454,4.5514,4.5514,4.5514,4.5514,4.5364,4.5304,4.5304,4.5304,4.5304,4.5304,1.3413,1.3413,1.3413,1.3413,1.5102,1.6592,1.6857,1.9151,2.175,2.4384,2.6445,2.8287,2.9794,3.1268,3.2142,3.2142,3.361,3.5445,3.7624,3.7448,3.7632,3.8432,3.8469,3.8542,3.8681,3.8681,3.9093,3.9908,3.9908,4.0304,4.1095,4.1095,4.1095,4.1095,4.1095,4.0944,4.0633,3.9557,3.8734,3.8048,3.6885,3.6264,3.599,3.5381,3.4731,3.4077,3.3907,3.3389,3.2838,3.3298,3.2554,3.1539,3.2138,3.1698,0.0,0.0,0.0,0.0,0.0,0.0,0.0,0.0,0.0,0.0,0.0,0.0,0.0,0.0,0.0,0.0,0.0,0.0,0.0,3.4666,3.504,3.5579,3.6849,3.7494,3.7644,3.7105,3.7734,3.8422,3.8943,3.9619,4.0277,4.0954,4.1134,4.1493,4.2171,4.2201,4.269,4.3718,4.3868,4.4197,4.4726,4.4975,4.5095,4.5095,4.5244,0.0,4.5304,4.5304,4.5603,4.6121,4.6121,4.639,4.692,4.692,4.692,4.68,4.5723,4.5304,4.5304,4.5304,4.5304,4.5304,1.3413,1.3413,1.3413,1.3413,1.5025,1.6571,1.7386,1.9215,2.1519,2.4329,2.616,2.7677,2.8851,3.0797,3.2149,3.2546,3.4461,3.634,3.7999,3.7713,3.7852,3.8644,3.8681,3.8681,3.8681,3.8681,3.9276,4.0487,4.0487,4.1111,4.2286,4.2286,4.2286,4.2286,4.2286,4.2094,4.1629,4.0254,3.9347,3.8622,3.7021,3.6395,3.6333,3.5799,3.5374,3.5036,3.5036,3.4799,3.4495,3.4506,3.4009,3.3467,3.3829,3.3197,3.2293,0.0,0.0,0.0,0.0,0.0,0.0,0.0,0.0,0.0,0.0,0.0,0.0,0.0,0.0,3.145,3.2766,0.0,3.4336,3.534,3.6011,3.6806,3.7764,3.8482,3.8781,3.8434,3.899,3.9649,4.0337,4.0696,4.1194,4.1852,4.1882,4.2331,4.3319,4.3349,4.3798,4.4766,4.4796,4.4975,4.5304,4.5633,4.5813,4.5813,4.6142,4.6292,4.6292,4.6292,4.6501,4.6779,4.6779,4.701,4.7309,4.7309,4.7309,4.7249,4.6561,4.6292,4.6292,4.6292,4.6292,4.6292,1.3413,1.3413,1.3426,1.3429,1.4693,1.6176,1.769,1.8884,2.0749,2.3829,2.535,2.6502,2.7462,2.9738,3.1678,3.2949,3.5055,3.6641,3.7456,3.7492,3.7779,3.8432,3.8608,3.8681,3.8681,3.8681,3.9415,4.0883,4.1022,4.1837,4.3286,4.3433,4.3506,4.3506,4.3506,4.2986,4.2068,4.0835,3.9806,3.8876,3.7261,3.6575,3.6461,3.6163,3.587,3.56,3.56,3.56,3.5509,3.4912,3.4821,3.4956,3.4956,3.4313,3.3816,3.4844,3.4742,0.0,0.0,0.0,0.0,0.0,0.0,0.0,0.0,3.0899,3.109,3.2436,3.2691,3.2931,3.3754,3.4771,3.5639,3.5998,3.6926,3.7883,3.8661,3.926,3.969,3.9948,4.0337,4.0846,4.1523,4.1583,4.1912,4.269,4.275,4.3289,4.4436,4.4476,4.4796,4.5484,4.5484,4.5544,4.5693,4.6211,4.648,4.651,4.704,4.7309,4.7309,4.7309,4.7309,4.7309,4.7309,4.7309,4.7309,4.7309,4.7309,4.7309,4.7309,4.7309,4.7309,4.7309,4.7309,4.7309,1.3413,1.3413,1.3438,1.3547,1.4304,1.5289,1.6359,1.7341,1.8902,2.1444,2.3364,2.5034,2.657,2.8888,3.1525,3.4484,3.5672,3.6641,3.7456,3.7492,3.7529,3.7639,3.8322,3.8681,3.8681,3.8681,3.9129,4.001,4.0736,4.1544,4.2433,4.3176,4.3506,4.3506,4.3506,4.2784,4.1533,4.0664,3.9689,3.8652,3.7741,3.7131,3.6808,3.7405,3.6794,3.56,3.56,3.56,3.56,3.5498,3.596,3.6558,3.6558,3.7325,3.8171,3.7652,3.7449,3.7222,3.6341,3.5247,3.4296,3.4056,3.3067,3.2284,0.0,3.2691,3.2481,3.323,3.3395,3.3784,3.504,3.54,3.6058,3.7793,3.82,3.8739,4.0008,4.0247,4.0726,4.1912,4.1583,4.1553,4.2231,4.2291,4.278,4.4018,4.4107,4.4407,4.5155,4.5185,4.5514,4.6181,4.6181,4.648,4.707,4.716,4.7189,4.7189,4.7279,4.7309,4.7309,4.7309,4.7309,4.7309,4.7309,4.7309,4.7309,4.7309,4.7309,4.7309,4.7309,4.7309,4.7309,4.7309,4.7309,4.7309,1.3413,1.3413,1.3442,1.3574,1.3976,1.4914,1.6777,1.7167,1.8292,2.1242,2.2708,2.4116,2.5736,2.8894,3.1641,3.3463,3.4351,3.5202,3.6009,3.6046,3.6486,3.7456,3.7823,3.8212,3.8681,3.8681,3.9093,3.9908,4.023,4.081,4.1617,4.1956,4.2103,4.2103,4.2103,4.1608,4.0736,3.9657,3.8752,3.7973,3.6858,3.6559,3.6829,3.7156,3.7144,3.6896,3.6468,3.6299,0.0,3.6299,3.6513,3.6851,3.7291,3.7562,3.7664,3.7359,3.7257,3.7092,3.6356,3.5075,3.4039,3.4438,3.3818,3.3365,3.4412,3.3844,3.3395,3.4442,3.4651,3.4951,3.5908,3.6686,3.7434,3.829,3.905,3.9768,4.0307,4.1074,4.1762,4.2321,4.281,4.321,4.3479,4.3858,4.4466,4.5403,4.5822,4.6352,4.701,4.7061,4.716,4.7459,4.7848,4.7967,4.7878,4.8289,4.8468,4.8468,4.8079,4.7878,4.7848,4.7489,4.7309,4.7339,4.7698,4.7878,4.7908,4.8319,4.8468,4.8438,4.8027,4.7878,4.7818,4.7459,4.7309,4.7309,1.3413,1.3413,1.3425,1.3538,1.3697,1.4603,1.696,1.703,1.7855,2.0739,2.1804,2.3194,2.5479,2.8931,3.1384,3.2185,3.322,3.3947,3.4307,3.4968,3.5892,3.7125,3.7595,3.8109,3.8689,3.8681,3.8982,3.9578,3.9798,4.0194,4.0773,4.0993,4.1095,4.1095,4.1095,4.0687,3.9914,3.885,3.8074,3.7479,3.6377,3.64,3.7122,3.7325,3.763,3.7809,3.7054,3.6795,3.6795,3.6795,3.6795,3.6931,3.7686,3.7516,3.7122,3.7359,3.7393,3.7326,3.7013,3.5819,3.4792,3.5278,3.4862,3.4592,3.5549,3.5011,3.4711,3.6028,3.6297,3.6507,3.7165,3.8033,3.8751,3.8901,3.9768,4.0516,4.0894,4.1792,4.253,4.287,4.3898,4.4736,4.5074,4.5394,4.5933,4.6779,4.7309,4.7848,4.8528,4.8588,4.8588,4.8588,4.9037,4.9067,4.8588,4.9067,4.9277,4.9277,4.8798,4.8588,4.8558,4.8057,4.7848,4.7878,4.8379,4.8588,4.8618,4.9097,4.9277,4.9247,4.8768,4.8588,4.8528,4.8027,4.7608,4.7309,1.3413,1.3413,1.3413,1.3422,1.3522,1.4302,1.6315,1.6631,1.7289,1.9146,2.0075,2.2084,2.613,2.8772,3.0577,3.1354,3.2896,3.3476,3.2729,3.4908,3.6266,3.6347,3.7845,3.8689,3.8681,3.8681,3.8726,3.8726,3.9541,3.9908,3.9945,4.0736,4.1095,4.1095,4.1095,4.0359,3.9084,3.86,3.8053,3.745,3.6956,3.7224,3.7944,3.8667,3.8497,3.7809,3.7054,3.6795,3.6795,3.6795,3.6795,3.6931,3.7686,3.7877,3.8012,3.8734,3.8949,3.906,3.9788,3.8794,3.761,3.7671,3.7064,3.6434,3.6464,3.6434,3.6763,3.805,3.8302,3.8512,3.9182,3.9331,3.9571,4.0217,4.0367,4.0846,4.2171,4.2381,4.284,4.4107,4.4855,4.5783,4.71,4.6629,4.6809,4.8139,4.8259,4.8558,4.9217,4.9247,4.9247,4.9247,4.9299,4.9299,4.9247,4.9299,4.9277,4.9277,4.9299,4.9247,4.9247,4.9247,4.9217,4.9217,4.9247,4.9247,4.9247,4.9299,4.9277,4.9277,4.9299,4.9247,4.9269,4.9247,4.8409,4.7309,1.3413,1.3413,1.3413,1.3413,1.3829,1.4641,1.5996,1.6423,1.7188,1.8866,2.0432,0.0,0.0,0.0,0.0,0.0,3.0791,3.1745,3.2546,3.388,3.5128,3.6237,3.7338,3.8146,3.8681,3.8681,3.8681,3.8681,3.8982,3.9093,3.9129,3.9378,3.9525,3.9525,3.9525,3.9073,3.829,3.8133,3.7572,3.6755,3.661,3.6784,3.7257,3.799,3.8125,3.7877,0.0,3.7516,3.7449,3.6953,3.7472,3.8307,3.8531,3.8983,3.9322,3.9085,3.9356,3.9661,3.9387,3.9317,3.9386,3.9811,3.9373,3.8998,3.9767,3.9263,3.8818,3.9565,3.9836,3.996,4.0057,4.0546,4.1096,4.1618,4.2073,4.2622,4.3539,4.3658,4.4137,4.5463,4.5822,4.6681,4.8468,4.8438,4.8626,4.9501,4.9949,5.0331,5.0541,5.0571,5.0361,4.989,5.0331,5.0361,4.989,5.0331,5.0571,5.0571,5.0122,4.9673,4.9277,4.9277,4.9277,4.9307,4.9733,4.989,4.992,5.0391,5.0571,5.0511,5.0069,4.989,4.9853,4.9456,4.9007,4.8558,1.3413,1.3608,1.3773,1.3773,1.4411,0.0,0.0,0.0,0.0,0.0,0.0,0.0,0.0,0.0,0.0,0.0,0.0,3.065,3.1672,3.3036,3.4284,3.5349,3.6758,3.7595,3.7845,3.8395,3.8579,3.8285,3.8579,3.8681,3.8681,3.8681,3.8681,3.8681,3.8681,3.8504,3.8148,3.779,3.7859,3.8114,3.6675,3.7008,3.8265,3.7736,3.7516,0.0,3.7516,3.7516,3.7415,3.6953,3.7257,3.7855,3.8137,3.8916,3.9762,4.01,4.0506,4.0889,4.0942,4.0892,4.0996,4.1656,4.1446,4.1199,4.1624,4.1492,4.1353,4.1571,4.1758,4.1886,4.174,4.2088,4.2592,4.3285,4.3549,4.4018,4.5072,4.5101,4.5403,4.654,4.71,4.7967,4.9464,4.9845,5.0152,5.0548,5.0966,5.1206,5.1206,5.1206,5.0996,5.0578,5.0966,5.0996,5.0578,5.0996,5.1206,5.1176,5.0757,5.0338,4.9995,4.9995,4.9995,5.0025,5.0398,5.0578,5.0607,5.1026,5.1206,5.1146,5.0727,5.0578,5.0518,5.0122,5.0145,5.0175,1.3511,1.4073,1.4571,0.0,0.0,0.0,0.0,0.0,0.0,0.0,0.0,0.0,0.0,0.0,0.0,0.0,0.0,0.0,3.0204,3.2362,3.3683,3.3733,3.6053,3.7008,3.6266,3.7771,3.8212,3.7456,3.8212,3.8579,3.8579,3.8579,3.8615,3.8644,3.8621,3.8614,3.8604,3.7632,3.8782,4.094,3.7184,3.7762,4.0549,3.7866,3.6785,3.6761,3.6795,3.675,3.6761,3.6761,3.6265,3.5881,3.6784,3.8036,3.9592,4.1724,4.2401,4.274,4.4161,4.3437,4.2492,4.3251,4.3323,4.3004,4.2136,4.3171,4.4247,4.3961,4.4068,4.424,4.4221,4.3902,4.405,4.5104,4.4771,4.4971,4.6689,4.6588,4.66,4.7309,4.8528,4.9546,5.0189,5.0817,5.1206,5.1206,5.1206,5.1206,5.1206,5.1206,5.1206,5.1206,5.1276,5.1276,5.1206,5.1206,5.1206,5.1206,5.1206,5.1206,5.1206,5.1206,5.1206,5.1206,5.1206,5.1206,5.1206,5.1206,5.1206,5.1206,5.1236,5.1236,5.1236,5.1295,5.1708,5.1977,0.0,0.0,0.0,0.0,0.0,0.0,0.0,0.0,0.0,0.0,0.0,0.0,0.0,0.0,0.0,0.0,0.0,0.0,3.0106,3.1088,3.2015,3.287,0.0,0.0,3.5334,3.6369,3.6817,3.6604,3.6817,3.6927,3.6927,3.6927,3.7221,3.7808,3.7402,3.7538,3.8065,3.7451,3.7631,3.8223,3.7208,3.7125,3.7581,3.7387,3.6749,3.5983,3.6581,3.64,3.5915,3.5915,3.6524,3.7741,4.0134,4.1149,4.1677,4.2794,4.3538,4.3958,4.3775,4.3839,4.4183,4.4908,4.5064,4.5072,4.5261,4.5603,4.5846,4.5617,4.5751,4.583,4.5704,4.5147,4.5078,4.6141,4.5584,4.5558,4.6994,4.7091,4.7489,4.8648,4.9097,4.9726,5.0847,5.1086,5.1206,5.1206,5.1206,5.1206,5.1206,5.1206,5.1206,5.1206,5.2018,5.2063,5.1229,5.1206,5.1206,5.1206,5.1206,5.1206,5.1206,5.1206,5.1206,5.1206,5.1206,5.1206,5.1206,5.1206,5.1206,5.1236,5.1768,5.1947,5.2007,5.2486,5.2785,5.2869,0.0,0.0,0.0,0.0,0.0,0.0,0.0,0.0,0.0,0.0,0.0,0.0,0.0,0.0,0.0,0.0,0.0,0.0,0.0,2.9804,3.0678,3.1512,3.3096,0.0,3.3433,3.4938,3.5569,3.5202,3.5936,3.6494,3.6824,3.6824,3.7265,3.8013,3.7471,3.7316,3.7363,3.6686,3.6924,0.0,0.0,3.6312,3.6925,3.6267,3.5625,3.5182,3.5633,3.5938,3.6197,3.649,3.7166,3.8362,4.1001,4.1813,4.2083,4.3504,4.4262,4.4499,4.4045,4.4262,4.477,4.5534,4.594,4.6226,4.6448,4.7056,4.7453,4.6922,4.6963,4.7068,4.6963,4.6161,4.5936,4.7293,4.6885,4.6751,4.7794,4.8462,4.8957,4.9254,4.9786,5.0421,5.1116,5.1206,5.1206,5.1206,5.1206,5.1206,5.1206,5.1206,5.1206,5.1206,5.1842,5.2086,5.1949,5.1456,5.1456,5.1926,5.1456,5.1206,5.1206,5.1206,5.1206,5.1206,5.1206,5.1355,5.1648,5.1648,5.1828,5.2127,5.2486,5.2636,5.2665,5.3079,5.3408,5.3623,0.0,0.0,0.0,0.0,0.0,0.0,0.0,0.0,0.0,1.9695,2.0033,2.0382,0.0,0.0,0.0,0.0,0.0,0.0,0.0,0.0,0.0,2.971,3.1333,3.1852,3.1124,3.3232,3.4036,3.3355,3.4934,3.6076,3.6698,3.6897,3.7396,3.8013,3.7553,3.6998,3.6374,3.5451,3.6217,3.7761,3.5047,3.5248,3.692,0.0,3.3979,3.4246,3.4449,3.5498,3.6919,3.7652,3.7978,3.843,4.0663,4.1339,4.1779,4.3958,4.4615,4.4615,4.4615,4.4615,4.477,4.5534,4.6177,4.6608,4.6425,4.7582,4.8446,4.7535,4.7631,4.7921,4.7921,4.6963,4.6714,4.8284,4.8027,4.7882,4.8492,4.9766,5.0293,4.9412,5.0421,5.1206,5.1206,5.1339,5.1433,5.1433,5.1565,5.1565,5.1433,5.1269,5.1339,5.1635,5.1526,5.204,5.3331,5.2063,5.1903,5.2878,5.175,5.1206,5.1206,5.1295,5.1325,5.1325,5.1415,5.1798,5.2336,5.2336,5.2665,5.3228,5.3318,5.3348,5.3348,5.3438,5.3832,5.4341,0.0,0.0,0.0,0.0,0.0,0.0,0.0,0.0,0.0,0.0,2.1522,2.0327,0.0,0.0,0.0,0.0,0.0,0.0,0.0,0.0,0.0,0.0,2.9133,2.994,2.9512,3.0555,3.1063,3.092,3.2213,3.2697,3.2493,3.38,3.4477,3.456,3.4416,3.4456,3.4615,3.3993,3.4202,3.4863,3.3723,3.3531,3.3802,3.2713,0.0,0.0,3.4077,3.5498,3.6919,3.7652,3.8294,3.9208,4.142,4.2117,4.2435,4.4093,4.4615,4.4615,4.4615,4.4615,4.477,4.5534,4.5805,4.5896,4.5852,4.6547,4.6944,4.6189,4.7038,4.7921,4.7921,4.7581,4.7496,4.8087,4.746,4.7036,4.7507,4.8695,4.9501,4.9299,5.0421,5.1206,5.1206,5.204,5.262,5.262,5.3461,5.3591,5.2664,5.1704,5.2063,5.3956,5.3099,5.3591,5.5598,5.3634,5.2678,5.2878,5.175,5.1206,5.1206,5.1768,5.2037,5.2067,5.2606,5.2929,5.3049,5.3049,5.3109,5.3258,5.3803,5.4042,5.4102,5.464,5.491,5.5029,0.0,0.0,0.0,0.0,0.0,0.0,0.0,2.3233,2.4297,2.6539,2.5583,2.4391,2.3586,2.2462,2.2139,0.0,0.0,0.0,0.0,0.0,0.0,0.0,0.0,0.0,0.0,2.9266,2.9671,2.9671,0.0,3.1262,3.1477,3.2225,3.2806,3.3166,3.287,3.2624,3.2382,3.191,3.1628,3.147,3.1356,3.1138,3.0948,0.0,0.0,0.0,3.3535,3.5159,3.6863,3.7224,3.8058,3.9309,4.1136,4.1982,4.2536,4.3639,4.4262,4.4615,4.4615,4.4615,4.477,4.5534,4.6007,4.6278,4.6278,4.6853,4.7158,4.6413,4.6853,4.7327,4.7327,4.7142,4.7193,4.771,4.7659,4.7528,4.7526,4.9508,5.0543,4.9434,5.0933,5.2086,5.2086,5.2597,5.3165,5.3742,5.4295,5.4105,5.2967,5.2373,5.2856,5.4547,5.4062,5.4284,5.5337,5.3742,5.29,5.2878,5.2083,5.1738,5.1738,5.2396,5.2725,5.2725,5.3079,5.3408,5.3713,5.3713,5.3922,5.4276,5.4581,5.473,5.476,5.5089,5.5179,5.5179,0.0,0.0,0.0,0.0,0.0,0.0,0.0,2.5736,2.6759,2.9382,2.9585,2.873,2.6784,2.4451,2.2827,0.0,0.0,0.0,0.0,0.0,0.0,0.0,0.0,0.0,0.0,0.0,0.0,2.8589,2.947,0.0,0.0,0.0,0.0,0.0,3.1542,3.1046,3.0396,3.0033,2.9533,0.0,0.0,2.9016,0.0,0.0,0.0,0.0,0.0,3.4607,3.6581,3.6761,3.7562,3.878,4.0257,4.1441,4.2422,4.3186,4.3978,4.4615,4.4615,4.4716,4.4973,4.5568,4.6244,4.6733,4.6394,4.6887,4.7177,4.6244,4.6312,4.6549,4.6549,4.6681,4.6911,4.7194,4.8022,4.8328,4.7568,5.0145,5.1445,4.9546,5.142,5.29,5.29,5.3121,5.372,5.4879,5.4961,5.4463,5.3309,5.3275,5.3677,5.4568,5.4358,5.4358,5.461,5.3618,5.3117,5.3095,5.2628,5.2396,5.2426,5.3084,5.3408,5.3414,5.3588,5.3922,5.4431,5.4431,5.473,5.5179,5.5179,5.5179,5.5179,5.5179,5.5381,5.5601,0.0,0.0,0.0,0.0,0.0,0.0,0.0,2.6184,2.7918,3.1515,3.1403,3.0649,2.9794,2.7055,2.4485,0.0,0.0,0.0,0.0,0.0,0.0,0.0,0.0,0.0,0.0,0.0,0.0,2.6935,2.8089,0.0,0.0,0.0,0.0,0.0,0.0,2.9575,2.9159,2.913,0.0,0.0,0.0,0.0,0.0,0.0,0.0,0.0,0.0,3.3829,3.5814,3.6547,3.6897,3.7269,3.8746,4.0641,4.2422,4.3186,4.3978,4.4615,4.4615,4.5108,4.5635,4.5689,4.6244,4.6462,4.5108,4.5365,4.55,4.4032,4.4809,4.579,4.579,4.6881,4.7505,4.665,4.8227,4.89,4.6986,4.9161,5.0543,4.9434,5.142,5.29,5.29,5.3828,5.4867,5.5988,5.6067,5.5578,5.4505,5.4442,5.4505,5.461,5.3591,5.3548,5.4589,5.4066,5.3808,5.3808,5.3324,5.3109,5.3139,5.3803,5.4132,5.4132,5.473,5.5029,5.5089,5.5089,5.5149,5.5179,5.5179,5.5179,5.5179,5.5179,5.5893,5.6824,0.0,0.0,0.0,0.0,0.0,0.0,2.6201,2.6412,2.7841,3.296,3.2983,3.2408,3.2127,2.9828,2.6852,2.3274,0.0,0.0,0.0,0.0,0.0,0.0,0.0,0.0,0.0,0.0,2.67,2.67,2.7171,0.0,0.0,0.0,0.0,0.0,0.0,2.7768,2.7613,2.7613,0.0,0.0,0.0,0.0,0.0,0.0,0.0,0.0,0.0,0.0,3.4979,3.5295,3.6039,3.6897,3.7494,3.9174,4.1191,4.2388,4.3619,4.4702,4.5142,4.5805,4.6346,4.6346,4.6583,4.6428,4.4939,4.4838,4.4722,4.3626,4.3896,4.4336,4.4336,4.5553,4.6281,4.547,4.7404,4.8761,4.7916,5.0678,5.2417,5.1362,5.3383,5.464,5.3999,5.4909,5.6028,5.7133,5.6605,5.6028,5.5611,5.4961,5.461,5.461,5.4168,5.4027,5.4176,5.3992,5.3753,5.3466,5.3687,5.3803,5.3832,5.4491,5.479,5.482,5.5089,5.5179,5.5179,5.5179,5.5179,5.5255,5.5986,5.6305,5.6372,5.7086,5.7668,5.8085,0.0,0.0,0.0,0.0,0.0,2.163,2.6404,2.664,2.8002,3.2892,3.3457,3.3413,3.3413,3.1011,2.8137,2.5,2.3233,0.0,0.0,0.0,0.0,0.0,0.0,0.0,0.0,0.0,2.6158,2.6353,2.6353,2.6496,0.0,0.0,2.67,2.67,0.0,0.0,0.0,0.0,0.0,0.0,0.0,0.0,0.0,0.0,0.0,0.0,0.0,0.0,0.0,0.0,0.0,3.6479,3.6728,3.7867,3.9478,4.1149,4.3044,4.4702,4.5229,4.6244,4.7124,4.7124,4.6955,4.6428,4.4939,4.4228,4.3687,4.2916,4.2916,4.3051,4.3051,4.435,4.5196,4.4668,4.6912,4.868,4.861,5.1771,5.367,5.2637,5.4711,5.5909,5.5166,5.6067,5.6758,5.6906,5.649,5.5896,5.5256,5.5051,5.4783,5.439,5.4078,5.3832,5.3684,5.3875,5.3797,5.3503,5.4192,5.4491,5.4521,5.497,5.5179,5.5179,5.5179,5.5179,5.5229,5.5601,5.572,5.5844,5.7063,5.7527,5.7644,5.8496,5.9036,5.9324,0.0,0.0,0.0,0.0,0.0,0.0,2.5059,2.6843,2.8601,3.092,3.251,3.3413,3.3413,3.0055,2.7824,2.7747,2.4409,0.0,0.0,0.0,0.0,0.0,0.0,0.0,0.0,0.0,2.4872,2.5601,2.5601,2.5973,2.67,2.67,2.67,2.67,0.0,0.0,0.0,0.0,0.0,0.0,0.0,0.0,0.0,0.0,0.0,0.0,0.0,0.0,0.0,0.0,0.0,0.0,0.0,3.6829,3.7269,3.9469,4.2245,4.4615,4.4601,4.621,4.7887,4.7887,4.7327,4.6428,4.4939,4.3416,4.2117,4.1373,4.1813,4.23,4.23,4.3552,4.4601,4.4615,4.7056,4.8893,4.8628,5.1702,5.3632,5.2637,5.4711,5.6204,5.6184,5.7222,5.6963,5.4796,5.5631,5.5256,5.3055,5.4685,5.5151,5.3937,5.2812,5.2564,5.3223,5.3887,5.4192,5.4221,5.488,5.5179,5.5179,5.5179,5.5179,5.5179,5.5179,5.5179,5.528,5.6493,5.6991,5.711,5.8314,5.8767,5.879,5.879,5.9544,6.0565,0.0,0.0,0.0,0.0,0.0,0.0,0.0,2.4045,2.5187,2.8432,2.8856,2.9813,3.2351,2.9296,2.7258,2.7756,2.4443,0.0,0.0,0.0,0.0,0.0,0.0,0.0,0.0,0.0,2.6353,2.7114,2.7638,2.8053,2.8265,2.8265,2.8265,2.8256,2.7706,2.7452,0.0,0.0,0.0,0.0,0.0,0.0,0.0,0.0,0.0,0.0,0.0,0.0,0.0,0.0,0.0,0.0,0.0,0.0,0.0,3.7642,3.9965,4.2489,4.3504,4.4688,4.565,4.565,4.506,4.4113,4.2625,4.1521,4.0743,4.0506,4.1035,4.1711,4.2198,4.3992,4.521,4.4668,4.7511,4.9905,5.0322,5.2478,5.4373,5.5314,5.5875,5.6204,5.6204,5.587,5.5349,5.4651,5.4179,5.4189,5.4781,5.3844,5.3522,5.396,5.4845,5.5258,5.5118,5.534,5.525,5.488,5.5089,5.5626,5.642,5.642,5.6872,5.7644,5.7644,5.7644,5.7668,5.8062,5.8245,5.836,5.9566,6.0021,6.014,6.0953,6.1814,6.2589,0.0,0.0,0.0,0.0,0.0,0.0,0.0,2.2827,2.3639,2.6209,2.6158,2.7173,3.0668,2.7715,2.5989,2.7258,2.4274,0.0,0.0,0.0,0.0,0.0,0.0,0.0,0.0,2.5252,2.6488,2.779,2.8595,2.9145,2.9407,2.9711,2.9542,2.8976,2.8484,2.8069,0.0,0.0,0.0,0.0,0.0,0.0,2.67,0.0,0.0,0.0,0.0,0.0,0.0,0.0,0.0,0.0,0.0,0.0,0.0,0.0,3.8103,3.9986,4.2002,4.3572,4.4615,4.4615,4.3789,4.2692,4.1461,4.0641,4.0113,4.0113,4.0912,4.1745,4.2232,4.3958,4.5297,4.5413,4.7815,5.0109,5.1279,5.3277,5.5125,5.6419,5.5979,5.5611,5.5611,5.5002,5.4421,5.3999,5.3951,5.4297,5.5011,5.457,5.4644,5.5404,5.5686,5.5775,5.5711,5.5711,5.5755,5.5893,5.5893,5.6517,5.7668,5.7668,5.8085,5.879,5.879,5.879,0.0,5.928,5.9478,5.9588,6.0807,6.1296,6.1411,6.2447,6.3125,6.3511,0.0,0.0,0.0,0.0,0.0,0.0,0.0,2.2868,2.3586,2.4237,2.4338,2.5422,2.8299,2.5447,2.4154,2.6293,0.0,0.0,0.0,0.0,0.0,0.0,0.0,0.0,0.0,2.4372,2.5786,2.7959,2.8755,2.9542,3.0267,3.1021,3.0591,2.9213,2.9179,2.8619,0.0,0.0,0.0,0.0,2.6623,2.6666,0.0,0.0,0.0,0.0,0.0,0.0,0.0,0.0,0.0,0.0,0.0,0.0,0.0,0.0,0.0,0.0,0.0,4.2503,4.4195,4.4276,4.3213,4.1961,4.1271,4.054,0.0,4.0071,4.1193,4.2206,4.2287,4.3597,4.5149,4.6636,4.8059,4.9652,5.1592,5.4046,5.5734,5.6039,5.5227,5.461,5.461,5.4526,5.4052,5.2918,5.4478,5.5053,5.4174,5.6315,5.7646,5.7855,5.5589,5.475,5.5451,5.5526,5.6085,5.7134,5.7134,5.7761,5.8925,5.8925,5.8969,5.9058,5.9058,5.9058,5.9147,6.0268,6.0745,6.0849,6.2004,6.2502,6.255,6.3328,6.3579,6.3579,0.0,0.0,0.0,0.0,0.0,0.0,0.0,0.0,0.0,0.0,2.2835,2.3308,2.4568,2.341,2.2996,0.0,0.0,0.0,0.0,0.0,0.0,0.0,0.0,0.0,0.0,2.6649,2.7866,2.9557,3.0311,3.1065,3.1809,3.2544,3.2418,3.1515,3.0929,2.9305,0.0,0.0,0.0,0.0,2.5871,2.6218,0.0,0.0,0.0,0.0,2.9634,3.0548,0.0,0.0,0.0,0.0,0.0,0.0,0.0,0.0,3.6332,3.6965,3.763,0.0,4.0438,4.1027,4.0891,4.0574,0.0,3.9795,3.9396,3.9847,4.0643,4.1423,4.2085,4.3721,4.5554,4.7337,4.8302,4.9672,5.2295,5.3922,5.4911,5.4991,5.4755,5.461,5.461,5.3806,5.3028,5.2406,5.2768,5.3752,5.5434,5.5231,5.6122,5.848,5.7121,5.686,5.7946,5.888,5.9014,5.8383,5.8383,5.9014,6.0182,6.0182,6.067,6.1541,6.1541,6.1541,6.1595,6.1857,6.1991,6.2078,6.2924,6.324,6.3308,6.4072,6.4343,6.441,0.0,0.0,0.0,0.0,0.0,0.0,0.0,0.0,0.0,0.0,0.0,2.2455,2.2868,2.2557,0.0,0.0,0.0,0.0,0.0,0.0,0.0,0.0,0.0,0.0,0.0,2.7587,2.8703,3.0606,3.1336,3.1911,3.2327,3.34,3.2983,3.1234,3.0142,2.8712,0.0,0.0,0.0,2.5109,2.5109,0.0,0.0,0.0,0.0,0.0,2.9837,3.0581,0.0,3.1968,3.2476,3.2926,0.0,0.0,0.0,0.0,3.5645,3.6344,3.6682,3.8137,3.9512,3.9592,4.01,4.0608,4.0608,4.0479,4.0579,4.1233,4.2231,4.2997,4.3017,4.4772,4.655,4.761,4.8689,5.0456,5.3471,5.4308,5.461,5.461,5.3862,5.3267,5.3068,5.2485,5.2131,5.2204,5.327,5.4775,5.6707,5.6482,5.7314,5.9566,5.8982,5.8722,5.879,5.9456,5.9719,5.961,5.961,6.0268,6.1419,6.1419,6.1777,6.24,6.24,6.24,6.2434,6.2753,6.2888,6.299,6.3734,6.3984,6.4072,6.4444,6.4613,6.4647,0.0,0.0,0.0,0.0,0.0,0.0,0.0,0.0,0.0,0.0,0.0,0.0,0.0,0.0,0.0,0.0,0.0,0.0,0.0,0.0,0.0,0.0,0.0,0.0,0.0,0.0,2.9118,3.1021,3.1989,3.253,3.2666,3.4144,3.3322,3.0538,2.8779,2.7925,0.0,0.0,2.5075,2.4481,2.438,0.0,0.0,0.0,0.0,0.0,0.0,0.0,0.0,3.2645,3.3152,3.3355,3.41,0.0,0.0,0.0,0.0,0.0,3.6693,3.8406,3.9773,3.9158,4.002,4.1076,4.1148,4.1416,4.1898,4.2718,4.3924,4.4643,4.4069,4.5533,4.7033,4.7601,4.9158,5.1266,5.4033,5.4241,5.4147,5.4316,5.2737,5.1592,5.1459,5.1293,5.1498,5.2157,5.4548,5.6417,5.7299,5.8179,5.912,6.0214,6.0355,6.004,5.9185,5.9282,5.9849,6.087,6.087,6.1399,6.24,6.24,6.24,6.24,6.24,6.2448,6.2618,6.324,6.3579,6.3748,6.4478,6.4783,6.4783,6.4783,6.4783,6.4783,0.0,0.0,0.0,0.0,0.0,0.0,0.0,0.0,0.0,0.0,0.0,0.0,0.0,0.0,0.0,0.0,0.0,0.0,0.0,0.0,0.0,0.0,0.0,0.0,0.0,0.0,0.0,3.0267,3.2273,3.3558,3.4212,3.5735,3.5193,3.277,3.005,2.845,2.7646,2.5541,2.4609,2.4448,2.3823,0.0,0.0,0.0,0.0,0.0,0.0,0.0,0.0,3.1471,3.1945,3.2588,3.3355,0.0,0.0,0.0,0.0,0.0,3.7172,3.8368,3.9003,3.9009,3.9626,4.0407,4.0906,4.0621,4.0525,4.1658,4.2042,4.249,4.3549,4.3844,4.4849,4.7576,4.9521,5.0849,5.1318,5.1584,5.2086,5.3055,5.1544,5.1016,5.2513,5.1773,5.1498,5.2157,5.4548,5.5814,5.5393,5.6955,5.8109,5.8638,5.9313,6.0067,6.0911,6.1535,6.1951,6.211,6.211,6.2243,6.24,6.24,6.24,6.24,6.24,6.2753,6.3342,6.3443,6.3849,6.4512,6.5222,6.5527,6.5527,6.5527,6.5527,6.5527,0.0,0.0,0.0,0.0,0.0,0.0,0.0,0.0,0.0,0.0,0.0,0.0,0.0,0.0,0.0,0.0,0.0,0.0,0.0,0.0,0.0,0.0,0.0,0.0,0.0,0.0,0.0,3.1302,3.3941,3.5182,3.507,3.4178,3.3231,3.2104,2.9499,2.8137,2.7722,2.6285,2.5218,2.4481,0.0,0.0,0.0,0.0,0.0,0.0,0.0,0.0,0.0,0.0,3.2022,3.231,3.2311,0.0,0.0,0.0,0.0,0.0,3.5946,3.7162,3.8353,3.8687,4.0463,4.2161,4.2441,4.2445,4.2469,4.2714,4.3778,4.4502,4.4098,4.5345,4.7035,4.8944,5.058,5.1664,5.1878,5.2541,5.2887,5.2427,5.1611,5.1202,5.1417,5.1292,5.1727,5.3008,5.4537,5.5783,5.6701,5.757,5.84,5.9243,5.9636,6.0307,6.1279,6.1637,6.2009,6.24,6.24,6.1868,6.0912,6.1941,6.207,6.1554,6.2548,6.3429,6.414,6.4512,6.4884,6.5256,6.6,6.6305,6.6237,6.5852,6.5717,6.5649,0.0,0.0,0.0,0.0,0.0,0.0,0.0,0.0,0.0,0.0,0.0,0.0,0.0,0.0,0.0,0.0,0.0,0.0,0.0,0.0,0.0,0.0,0.0,0.0,0.0,0.0,3.208,3.2835,3.5847,3.6907,3.6084,3.3457,3.2036,3.163,2.9523,2.85,2.8263,2.7165,2.6065,2.4982,0.0,0.0,0.0,0.0,0.0,0.0,0.0,0.0,0.0,0.0,0.0,0.0,0.0,0.0,0.0,3.221,3.3413,3.5025,3.5297,3.6488,3.7983,3.9042,4.1118,4.2979,4.3392,4.3764,4.3987,4.3874,4.5372,4.6351,4.5021,4.7045,4.9158,4.9987,5.1055,5.1904,5.2219,5.3025,5.3044,5.1665,5.1392,5.1047,5.049,5.0907,5.1892,5.3532,5.4435,5.5673,5.7323,5.7867,5.8323,5.88,5.9252,5.9655,5.999,6.0324,6.0979,6.1991,6.1842,6.1086,5.9878,6.118,6.1609,6.1459,6.2885,6.4038,6.4884,6.548,6.5818,6.6,6.6576,6.669,6.6508,6.6102,6.5751,6.5412,0.0,0.0,0.0,0.0,0.0,0.0,0.0,0.0,0.0,0.0,0.0,0.0,0.0,0.0,0.0,0.0,0.0,0.0,0.0,0.0,0.0,0.0,0.0,0.0,0.0,3.2848,3.3592,3.4347,3.7359,3.8464,3.7707,3.605,3.4562,3.3176,3.163,0.0,0.0,0.0,2.6632,2.6429,2.5049,0.0,0.0,0.0,0.0,0.0,0.0,0.0,0.0,0.0,0.0,0.0,0.0,0.0,3.1954,3.3114,3.3135,3.3531,3.6697,3.7502,3.8075,4.0783,4.0761,4.0531,4.2217,4.2618,4.2941,4.4038,4.4869,4.558,4.6052,4.7357,4.8672,4.9672,5.0117,5.0365,5.0386,5.0485,5.0478,5.0356,4.9839,4.9907,5.102,5.1176,5.1711,5.2905,5.4225,5.4974,5.4875,5.6507,5.6714,5.504,5.6701,5.7102,5.6122,5.741,5.8961,6.0712,6.0093,6.0051,6.0508,6.0018,6.1091,6.3309,6.3457,6.4309,6.5615,6.5683,6.6102,6.6745,6.6757,6.6373,6.5886,6.6508,6.5865,6.4884,0.0,0.0,0.0,0.0,0.0,0.0,0.0,0.0,0.0,0.0,0.0,0.0,0.0,0.0,0.0,0.0,0.0,0.0,0.0,0.0,0.0,0.0,0.0,2.8755,3.2226,3.3931,3.5374,3.6603,3.8679,3.8848,3.719,3.5622,3.3897,3.2002,0.0,0.0,0.0,0.0,0.0,2.7291,2.6293,2.5854,0.0,0.0,0.0,0.0,0.0,0.0,0.0,0.0,3.123,3.1147,3.0381,3.0477,3.0879,3.1049,3.2458,3.427,3.5929,3.7524,3.9198,4.1043,4.1163,4.1288,4.3182,4.4266,4.4861,4.4917,4.6242,4.7597,4.83,4.8675,4.9044,4.9433,4.9576,4.9643,4.9643,4.9949,5.0069,4.9673,5.0122,5.0511,5.0578,5.0966,5.1681,5.2812,5.3396,5.3959,5.4579,5.526,5.5334,5.461,5.5281,5.5656,5.5687,5.6929,5.7983,5.8864,5.9797,5.9984,5.9577,6.0779,6.1983,6.3166,6.3876,6.5019,6.6373,6.6373,6.6542,6.6791,6.6791,6.6643,6.644,6.6711,6.6453,6.6047,0.0,0.0,0.0,0.0,0.0,0.0,0.0,0.0,0.0,0.0,0.0,0.0,0.0,0.0,0.0,0.0,0.0,0.0,0.0,0.0,0.0,0.0,0.0,2.8484,3.1539,3.3751,3.5881,3.791,3.8916,3.8273,3.6039,3.4516,3.3129,0.0,0.0,0.0,0.0,0.0,0.0,0.0,2.6996,2.67,0.0,0.0,0.0,0.0,0.0,0.0,0.0,0.0,3.0908,3.0777,2.9935,2.9726,2.9895,3.0377,3.2305,3.4635,3.6061,3.8257,4.0413,4.1464,4.2032,4.2761,4.4536,4.5642,4.63,4.6232,4.7495,4.8887,4.987,4.9465,4.9111,4.9406,4.9373,4.9277,4.9277,4.9643,4.9853,4.9613,5.0361,5.0787,5.0548,5.0936,5.1681,5.2812,5.2575,5.2856,5.3999,5.44,5.4442,5.4084,5.4421,5.4962,5.5687,5.6313,5.7023,5.7813,5.9683,6.0204,5.9468,6.0886,6.2091,6.3149,6.4158,6.529,6.6474,6.669,6.6791,6.6791,6.6791,6.6791,6.6791,6.6791,6.6791,6.6791,0.0,0.0,0.0,0.0,0.0,0.0,0.0,0.0,0.0,0.0,0.0,0.0,0.0,0.0,0.0,0.0,0.0,0.0,2.2313,2.3688,0.0,0.0,0.0,2.85,3.0031,3.2263,3.4867,3.7877,3.791,3.6738,3.4449,3.3004,0.0,0.0,0.0,0.0,0.0,0.0,0.0,0.0,2.6996,2.67,2.67,0.0,0.0,0.0,0.0,0.0,0.0,0.0,3.032,3.032,3.0309,2.9473,2.9035,3.1688,3.2963,3.4224,3.7564,3.9925,4.1553,4.2231,4.3379,4.4655,4.6001,4.63,4.6659,4.8027,4.8319,4.8799,5.0454,4.9426,4.861,4.9633,4.9496,4.9299,4.9299,4.9277,4.9546,5.0129,5.0219,5.0465,5.1146,5.1206,5.1658,5.279,5.1842,5.1704,5.2834,5.3977,5.4062,5.2945,5.402,5.4962,5.5687,5.5283,5.5965,5.7834,5.9705,6.0607,6.0586,5.9923,6.105,6.3545,6.4275,6.5019,6.5784,6.6508,6.6791,6.6791,6.6791,6.6791,6.6791,6.6791,6.6791,6.6791,0.0,0.0,0.0,0.0,0.0,0.0,0.0,0.0,0.0,0.0,0.0,0.0,0.0,0.0,0.0,0.0,0.0,0.0,2.2313,2.3688,2.4515,2.4515,0.0,0.0,0.0,0.0,3.411,3.7122,3.7652,3.6456,3.3728,0.0,0.0,0.0,0.0,0.0,0.0,0.0,0.0,0.0,0.0,2.7165,2.6767,0.0,0.0,0.0,0.0,0.0,0.0,0.0,0.0,0.0,2.9924,2.9758,3.0002,3.0848,3.2232,3.41,3.697,3.9168,4.1055,4.2622,4.3668,4.4775,4.657,4.6629,4.6659,4.8027,4.8319,4.8437,4.8969,4.8629,4.8249,4.8063,4.8358,4.8588,4.8588,4.9374,5.0009,5.0166,5.0637,5.0996,5.1176,5.1206,5.1339,5.1681,5.1386,5.1704,5.2834,5.3231,5.3613,5.4084,5.4921,5.5495,5.5687,5.6881,5.7995,5.9103,6.0451,6.1185,6.1374,6.15,6.2542,6.4275,6.3971,6.4546,6.5784,6.6508,6.6791,6.6791,6.6791,6.6791,6.6791,6.6791,6.6791,6.6791,0.0,0.0,0.0,0.0,0.0,0.0,0.0,0.0,1.7783,1.7783,1.7783,1.7958,0.0,0.0,0.0,2.0676,2.1414,0.0,2.2279,2.3417,2.4203,2.4481,2.5617,2.675,2.7781,3.048,3.2621,3.4144,3.5757,3.5182,0.0,0.0,0.0,0.0,0.0,0.0,0.0,0.0,0.0,0.0,0.0,2.7807,2.719,0.0,0.0,0.0,0.0,0.0,0.0,0.0,0.0,0.0,2.9978,2.9886,3.0321,3.166,3.3307,3.5446,3.8871,4.0846,4.2432,4.4386,4.4984,4.5463,4.698,4.7399,4.7788,4.8835,4.8656,4.8319,4.8319,4.8087,4.7848,4.7728,4.8027,4.8476,4.8985,4.971,5.0285,5.0578,5.0936,5.1206,5.1206,5.1206,5.1206,5.1206,5.1611,5.22,5.2856,5.3742,5.4664,5.5668,5.5673,5.6398,5.7896,5.8136,5.9058,6.0711,6.143,6.1809,6.1991,6.2272,6.2888,6.3734,6.3869,6.4613,6.5784,6.6508,6.6791,6.6791,6.6791,6.6791,6.6791,6.6791,6.6791,6.6791,0.0,0.0,0.0,0.0,0.0,0.0,0.0,1.7783,1.7783,1.7783,1.7783,1.7783,0.0,0.0,0.0,1.9839,2.071,2.1488,2.2151,2.2936,2.3688,2.4372,2.5169,2.6269,2.7689,2.9871,3.0683,3.0098,3.2983,0.0,0.0,0.0,0.0,0.0,0.0,0.0,0.0,0.0,0.0,0.0,0.0,2.8518,2.7824,2.7891,0.0,0.0,0.0,0.0,0.0,0.0,0.0,0.0,3.0139,2.984,3.0121,3.3199,3.5168,3.7302,4.1803,4.3539,4.4536,4.6591,4.6839,4.6719,4.7279,4.8379,4.9426,4.986,4.8992,4.8229,4.8229,4.7758,4.7578,4.8199,4.8386,4.8895,5.0039,5.0255,5.0518,5.1116,5.1206,5.1206,5.1206,5.1206,5.1206,5.1206,5.2177,5.282,5.2971,5.5005,5.6527,5.7283,5.654,5.774,6.1109,5.9177,5.9622,6.24,6.24,6.24,6.24,6.24,6.24,6.2502,6.3903,6.4884,6.5561,6.6373,6.669,6.669,6.6757,6.6791,6.6791,6.6791,6.6791,6.6791,0.0,0.0,0.0,0.0,0.0,0.0,1.7783,1.7783,1.7783,1.7783,1.7783,1.7783,1.7783,1.8471,0.0,1.9113,2.0405,2.1265,2.1427,2.2673,2.3485,2.362,2.4898,2.6006,2.6928,2.8595,2.9677,3.0098,3.2466,0.0,0.0,0.0,0.0,0.0,0.0,0.0,0.0,0.0,0.0,0.0,0.0,2.8518,2.7858,2.8484,2.845,0.0,0.0,0.0,0.0,0.0,0.0,0.0,2.9031,2.9169,2.9847,3.1625,3.3441,3.5715,3.929,4.1115,4.2631,4.5095,4.7211,4.8558,4.8147,4.8708,4.9037,4.8117,4.7728,4.7519,4.7519,4.7818,4.8117,4.8289,4.9134,4.989,5.0166,5.0667,5.1026,5.1176,5.1206,5.1206,5.1206,5.1206,5.1206,5.1206,5.1433,5.2192,5.3608,5.5027,5.61,5.667,5.8883,6.0018,5.9901,6.0885,6.1763,6.24,6.24,6.24,6.24,6.24,6.24,6.2468,6.3362,6.3815,6.4072,6.5392,6.5933,6.6,6.6555,6.6791,6.6791,6.6791,6.6791,6.6791,0.0,0.0,0.0,0.0,0.0,0.0,0.0,0.0,1.8194,1.785,1.7783,1.7783,1.7783,1.8127,0.0,0.0,1.9627,2.0412,2.1163,2.1935,2.2673,2.3383,2.4458,2.5406,2.615,2.7638,2.861,2.9007,3.0876,0.0,0.0,0.0,0.0,0.0,0.0,0.0,0.0,0.0,0.0,0.0,0.0,0.0,0.0,2.8522,2.8519,2.8472,2.8642,0.0,0.0,0.0,0.0,0.0,0.0,0.0,2.9822,3.1471,3.3382,3.5803,3.9739,4.1104,4.2032,4.4646,4.7331,4.9037,4.8027,4.8588,4.8917,4.7578,4.7309,4.7399,4.7728,4.8057,4.8506,4.9134,4.977,5.0315,5.0637,5.0966,5.1206,5.1206,5.1206,5.1206,5.1206,5.1206,5.1206,5.1206,5.2006,5.2902,5.3847,5.5294,5.6638,5.7881,5.9011,5.9985,6.0892,6.1333,6.1817,6.24,6.24,6.24,6.24,6.24,6.24,6.2415,6.3173,6.3511,6.3612,6.5087,6.5717,6.5764,6.6508,6.6791,6.6791,6.6791,6.6791,6.6859,0.0,0.0,0.0,0.0,0.0,0.0,0.0,0.0,0.0,1.789,1.7783,1.7783,1.7783,1.7783,1.8059,0.0,0.0,0.0,2.0793,2.113,2.19,2.3342,2.3992,2.4677,2.5398,2.6852,2.7621,2.7621,2.9016,0.0,0.0,0.0,0.0,0.0,0.0,0.0,0.0,0.0,0.0,0.0,0.0,0.0,0.0,0.0,0.0,0.0,2.8285,2.8543,2.9384,2.9282,0.0,0.0,0.0,0.0,2.9878,3.1792,3.3709,3.6229,4.0692,4.1997,4.2631,4.4885,4.7391,4.8977,4.7758,4.8438,4.8947,4.7728,4.7369,4.7489,4.8199,4.8409,4.8835,5.0009,5.0285,5.0578,5.1116,5.1206,5.1206,5.1206,5.1206,5.1206,5.1206,5.1206,5.1236,5.1355,5.2757,5.3706,5.3952,5.5708,5.7441,5.9022,5.8712,5.9666,6.207,6.1317,6.1399,6.24,6.24,6.24,6.24,6.24,6.24,6.2434,6.3057,6.3376,6.3612,6.4952,6.5581,6.5764,6.6508,6.6791,6.6791,6.6791,6.6859,6.7083,0.0,0.0,0.0,0.0,0.0,0.0,0.0,0.0,0.0,0.0,1.7783,1.7783,1.7783,1.7783,1.785,1.7952,1.8538,1.9114,1.9617,0.0,0.0,2.3335,2.3485,2.3891,2.4643,2.609,2.6869,2.6869,2.7689,0.0,0.0,0.0,0.0,0.0,0.0,0.0,0.0,0.0,0.0,0.0,0.0,0.0,0.0,0.0,0.0,0.0,0.0,3.0217,2.9316,2.8807,2.8571,0.0,0.0,0.0,2.9794,3.1275,3.311,3.5381,3.8917,4.2285,4.5005,4.5942,4.7728,4.9097,4.8349,4.8738,4.9067,4.8319,4.7698,4.7489,4.8199,4.8768,4.9396,5.0099,5.0697,5.1086,5.1176,5.1206,5.1206,5.1206,5.1206,5.1206,5.1206,5.1206,5.1415,5.2037,5.2293,5.2936,5.4108,5.6375,5.7538,5.7348,6.021,6.1461,6.0849,6.1716,6.2243,6.24,6.24,6.24,6.24,6.24,6.24,6.24,6.2482,6.2922,6.3545,6.441,6.5121,6.5764,6.6508,6.6791,6.6791,6.6791,6.7218,6.776,0.0,0.0,0.0,0.0,0.0,0.0,0.0,0.0,0.0,0.0,0.0,1.7783,1.7783,1.7783,1.7783,1.7783,1.827,1.8884,1.9628,2.0897,2.1844,2.2363,2.2651,2.3139,2.3857,2.4914,2.5684,2.6082,0.0,0.0,0.0,2.9736,2.9939,0.0,0.0,0.0,0.0,0.0,0.0,0.0,0.0,0.0,0.0,0.0,0.0,0.0,0.0,0.0,3.0538,2.9843,2.9387,2.9068,2.8711,0.0,0.0,0.0,3.2693,3.4745,3.8449,4.175,4.4506,4.5942,4.7249,4.8199,4.8267,4.8528,4.8648,4.8379,4.7758,4.7489,4.8199,4.8858,4.9516,5.0099,5.0757,5.1206,5.1206,5.1206,5.1206,5.1206,5.1206,5.1206,5.1206,5.1206,5.1498,5.2157,5.2546,5.3483,5.5114,5.6568,5.7851,5.8982,6.0565,6.146,6.1615,6.213,6.24,6.24,6.24,6.24,6.24,6.24,6.24,6.24,6.24,6.2821,6.3511,6.3849,6.4647,6.5751,6.6068,6.644,6.6859,6.7252,6.7624,6.803,0.0,0.0,0.0,0.0,0.0,0.0,0.0,0.0,0.0,0.0,0.0,1.8323,1.8229,0.0,0.0,0.0,1.8273,1.8887,1.9969,2.0932,2.1536,2.1772,2.2003,2.2423,2.3105,2.3823,2.45,2.5026,0.0,0.0,2.901,2.9736,3.0403,0.0,2.9354,0.0,0.0,0.0,0.0,0.0,0.0,0.0,0.0,0.0,0.0,0.0,0.0,0.0,3.2158,3.1118,3.0478,3.0038,2.9989,3.0293,0.0,0.0,0.0,3.4495,3.798,4.0586,4.2891,4.5224,4.642,4.7309,4.8319,4.8558,4.8618,4.8745,4.8117,4.7698,4.8229,4.8708,4.9307,5.0069,5.0637,5.0996,5.1176,5.1206,5.1206,5.1206,5.1206,5.1206,5.1206,5.1206,5.1535,5.2396,5.3188,5.4416,5.6162,5.7316,5.8735,6.0544,6.0912,6.148,6.2381,6.24,6.24,6.24,6.24,6.24,6.24,6.24,6.24,6.24,6.24,6.2821,6.3511,6.3511,6.4377,6.5717,6.5899,6.644,6.7184,6.7929,6.8335,6.8639,0.0,0.0,0.0,0.0,0.0,0.0,0.0,0.0,0.0,0.0,0.0,1.9739,1.9345,1.9331,1.9148,1.8761,1.8775,1.9269,2.038,2.0832,2.1409,2.2223,2.1853,0.0,2.2347,2.3071,2.3485,0.0,0.0,0.0,2.901,2.9736,3.1214,3.3142,3.1664,3.0717,3.0301,0.0,0.0,0.0,0.0,0.0,0.0,0.0,0.0,0.0,0.0,0.0,3.3988,3.2154,3.1429,3.1331,3.147,3.1434,3.151,0.0,0.0,0.0,3.7032,3.8584,4.0378,4.3609,4.5373,4.6839,4.8798,4.9247,4.9426,4.9979,4.9134,4.8259,4.8289,4.8349,4.8745,5.0009,5.0226,5.0465,5.1116,5.1206,5.1206,5.1206,5.1206,5.1206,5.1206,5.1206,5.1738,5.3049,5.4256,5.5511,5.6891,5.916,6.0459,6.0586,6.1716,6.2341,6.24,6.24,6.24,6.24,6.24,6.24,6.24,6.24,6.24,6.24,6.24,6.2821,6.3511,6.3511,6.4377,6.5784,6.6474,6.7184,6.7929,6.8741,6.9485,7.0116,0.0,0.0,0.0,0.0,0.0,0.0,0.0,0.0,0.0,0.0,0.0,0.0,0.0,0.0,0.0,0.0,0.0,0.0,0.0,2.0729,2.0825,2.114,2.0765,2.0888,2.159,2.1867,0.0,0.0,0.0,2.5786,2.7546,2.9296,3.0277,3.0591,3.0997,3.1055,3.0823,3.1181,0.0,0.0,0.0,0.0,0.0,0.0,0.0,0.0,0.0,0.0,0.0,3.5851,3.429,3.2949,3.3346,3.2558,3.1682,3.2397,3.3522,3.5124,3.7608,3.8243,3.9215,4.3434,4.4427,4.4895,4.692,4.8027,4.8858,4.9494,4.8917,4.8319,4.8319,4.8319,4.8468,4.8895,4.968,5.0285,5.0518,5.0936,5.1206,5.1206,5.1206,5.1206,5.1206,5.1206,5.2091,5.4187,5.4769,5.6238,5.9161,6.014,6.0953,6.1736,6.215,6.24,6.24,6.24,6.24,6.24,6.24,6.24,6.24,6.24,6.24,6.24,6.24,6.2821,6.3443,6.299,6.4208,6.6406,6.617,6.7151,6.8774,6.9519,6.9958,7.0285,0.0,0.0,0.0,0.0,0.0,0.0,0.0,0.0,0.0,0.0,0.0,0.0,0.0,0.0,0.0,0.0,2.0175,2.062,2.0967,2.0684,2.0567,2.0734,2.0137,2.0229,2.119,0.0,0.0,0.0,0.0,0.0,0.0,0.0,2.96,2.9407,3.0659,3.0929,0.0,0.0,0.0,3.2534,0.0,0.0,3.8221,0.0,0.0,0.0,3.9814,3.9705,3.9836,3.9131,3.7423,3.5704,3.6117,3.4738,0.0,0.0,0.0,0.0,3.7316,3.7653,3.8341,4.2935,4.3976,4.4453,4.6565,4.7773,4.8675,4.9434,4.9097,4.8648,4.8648,4.8648,4.8558,4.8349,4.9015,4.965,4.986,5.0458,5.0877,5.0877,5.1056,5.1206,5.1206,5.1572,5.2566,5.4489,5.5606,5.7365,6.0095,6.0842,6.1595,6.2361,6.24,6.24,6.24,6.24,6.24,6.24,6.24,6.24,6.24,6.24,6.24,6.24,6.24,6.2685,6.3125,6.2854,6.4072,6.6102,6.6339,6.7523,6.9214,7.0195,7.0567,7.0635,0.0,0.0,0.0,0.0,0.0,0.0,0.0,0.0,0.0,0.0,0.0,0.0,0.0,0.0,0.0,0.0,2.1174,2.147,2.1087,2.0739,2.0734,2.1177,0.0,0.0,0.0,0.0,0.0,0.0,0.0,0.0,0.0,0.0,2.9305,0.0,3.0818,3.0388,2.9281,0.0,3.2983,3.2723,0.0,3.8722,3.7916,0.0,0.0,4.1487,4.1605,4.1973,4.2314,4.1673,4.0549,3.9453,3.9567,0.0,0.0,0.0,0.0,0.0,0.0,0.0,0.0,4.1901,4.3996,4.5659,4.7962,4.8605,4.8981,4.9915,4.9673,4.9277,4.9277,4.9277,4.9067,4.8438,4.8349,4.8558,4.9187,4.9793,5.0166,5.0166,5.0757,5.1199,5.1223,5.2237,5.3202,5.3951,5.6796,5.8769,5.9507,6.1354,6.24,6.24,6.24,6.24,6.24,6.24,6.24,6.24,6.24,6.24,6.24,6.24,6.2415,6.2434,6.2434,6.2415,6.2536,6.3207,6.3971,6.4884,6.7015,6.8402,6.9316,7.0714,7.1289,7.1289,0.0,0.0,0.0,0.0,0.0,2.3586,2.4101,0.0,0.0,0.0,0.0,0.0,0.0,0.0,0.0,0.0,2.277,2.2495,2.2712,2.1651,2.1049,2.119,2.0329,2.0249,0.0,0.0,0.0,0.0,0.0,0.0,0.0,0.0,0.0,0.0,2.9567,3.0784,3.1481,3.2814,0.0,3.2742,3.7715,3.9406,3.9265,4.2256,4.3114,4.278,4.2803,4.2673,4.2527,4.2805,4.1514,3.9506,3.8126,0.0,0.0,0.0,0.0,0.0,3.6306,0.0,0.0,0.0,0.0,0.0,4.4955,4.7318,4.9186,4.8285,4.8745,4.9277,4.9277,4.8887,4.8678,4.8977,4.9007,4.8917,4.8618,4.9157,4.9546,4.9546,5.0099,5.0803,5.1645,5.2423,5.3874,5.6263,5.722,5.8628,6.0695,6.1818,6.24,6.24,6.24,6.24,6.24,6.24,6.24,6.24,6.24,6.24,6.24,6.24,6.2685,6.3193,6.3193,6.3497,6.3971,6.3646,6.4559,6.625,6.688,6.8267,6.9947,7.0331,7.0838,7.1289,0.0,0.0,2.2946,2.3502,2.4257,2.4906,2.5346,2.6135,0.0,0.0,0.0,0.0,0.0,0.0,0.0,0.0,2.4027,2.3952,2.4057,2.3133,2.2443,2.2138,2.1075,2.0703,2.1197,0.0,0.0,0.0,0.0,0.0,0.0,0.0,0.0,0.0,0.0,0.0,3.2462,0.0,0.0,0.0,3.8183,3.9831,4.0277,4.2692,4.3491,4.3379,4.3995,4.4239,4.4351,4.4891,4.3694,4.1709,4.0238,0.0,0.0,0.0,0.0,0.0,0.0,0.0,0.0,0.0,0.0,0.0,4.4391,4.6373,4.804,4.8126,4.8768,4.9277,4.9277,4.9187,4.9134,4.9277,4.9277,4.9157,4.8768,4.9254,4.9583,4.9307,4.9853,5.0638,5.18,5.2674,5.422,5.6731,5.7606,5.9031,6.1158,6.1704,6.2076,6.24,6.24,6.24,6.24,6.24,6.24,6.24,6.24,6.24,6.2415,6.2719,6.3091,6.3511,6.3815,6.4377,6.5019,6.4613,6.5189,6.6474,6.7726,6.8842,6.9823,7.0432,7.0939,7.1289,0.0,0.0,2.356,2.4025,2.5564,2.6733,2.6851,2.7677,2.7959,0.0,0.0,0.0,0.0,0.0,0.0,0.0,0.0,2.5571,2.5195,2.49,2.4372,2.3552,2.2274,2.1495,2.1326,2.1326,0.0,0.0,0.0,0.0,0.0,0.0,0.0,0.0,2.9847,3.1742,3.2926,3.7021,3.828,3.7623,3.9421,4.0451,4.1135,4.3029,4.3708,4.3798,4.5135,4.6102,4.682,4.7105,4.6227,4.4855,4.4067,4.185,0.0,0.0,3.7119,0.0,0.0,0.0,0.0,0.0,0.0,0.0,4.4869,4.5439,4.6072,4.8118,4.873,4.888,4.888,4.9374,4.965,4.9247,4.9187,4.9187,4.9299,4.9763,4.989,4.9366,4.9853,5.0608,5.1698,5.2881,5.4277,5.5981,5.7897,5.9622,6.1095,6.1264,6.1637,6.24,6.24,6.24,6.24,6.24,6.24,6.24,6.24,6.2415,6.2516,6.3193,6.3579,6.3781,6.4444,6.5121,6.5852,6.5899,6.592,6.6089,6.8796,6.9451,6.9147,7.0534,7.1109,7.1188,2.2462,2.298,2.3832,2.5203,2.6178,2.7034,2.7736,2.8422,0.0,0.0,0.0,0.0,0.0,0.0,0.0,0.0,0.0,0.0,2.6354,2.632,2.5684,2.4338,2.4,2.3282,2.2117,2.209,2.2733,0.0,0.0,0.0,0.0,0.0,0.0,0.0,2.9847,3.2611,3.507,3.6581,3.9008,4.1924,4.3461,4.3347,4.2512,4.4458,4.5402,4.5753,4.604,4.6575,4.7123,4.6855,4.65,4.592,4.4475,4.3476,4.2297,3.9912,0.0,0.0,0.0,0.0,0.0,0.0,0.0,0.0,4.2478,4.3445,4.4086,4.3797,4.4996,4.6073,4.6073,4.6621,4.7377,4.8349,4.8498,4.8678,4.9217,4.9396,4.9426,4.9307,4.9853,5.0427,5.1039,5.2575,5.4043,5.538,5.7647,5.9385,6.0283,6.096,6.1637,6.24,6.24,6.24,6.24,6.24,6.24,6.24,6.24,6.2719,6.3274,6.3443,6.414,6.5256,6.5425,6.5899,6.6643,6.7218,6.7117,6.6622,6.7231,6.776,6.8233,6.918,6.9891,7.05,2.2076,2.3129,2.4647,2.6357,2.733,2.8296,2.9478,2.9373,0.0,0.0,0.0,0.0,0.0,0.0,0.0,0.0,0.0,0.0,0.0,2.9474,2.8831,2.7376,2.6556,2.527,2.3451,2.3038,2.3207,2.3966,0.0,0.0,0.0,0.0,0.0,0.0,0.0,0.0,3.7245,3.8865,4.119,4.3805,4.3909,4.4434,4.5222,4.5743,4.6511,4.7249,4.692,4.6988,4.734,4.7569,4.7492,4.7208,4.6731,4.5624,4.4172,4.2766,4.0274,3.78,0.0,0.0,0.0,3.7043,0.0,0.0,0.0,4.1437,4.2161,4.2357,4.3678,4.4796,4.4796,4.5074,4.5613,4.6621,4.7369,4.7984,4.8432,4.9229,4.9643,4.9337,4.9853,5.0517,5.1317,5.2702,5.4401,5.6448,5.7423,5.8389,5.9487,6.0283,6.1061,6.1839,6.2212,6.24,6.24,6.24,6.24,6.24,6.2753,6.3159,6.3511,6.4275,6.4986,6.5717,6.6102,6.6474,6.6825,6.7218,6.7151,6.6859,6.7658,6.8166,6.8605,6.935,7.0128,7.0804,2.2267,2.3565,2.5407,2.7273,2.8281,2.9272,3.0806,3.0022,0.0,0.0,0.0,0.0,0.0,0.0,0.0,0.0,0.0,0.0,0.0,3.3173,3.2486,3.1011,2.9354,2.7562,2.5625,2.4568,2.4128,2.4255,0.0,0.0,0.0,0.0,0.0,0.0,0.0,0.0,0.0,0.0,0.0,4.4687,4.4367,4.5936,4.8324,4.7361,4.7955,4.9187,4.8313,4.7864,4.7842,4.8817,4.8818,4.8548,4.9232,4.7813,4.5832,4.5574,4.2119,0.0,0.0,0.0,0.0,0.0,0.0,3.6987,0.0,0.0,0.0,4.1194,4.2361,4.316,4.316,4.3369,4.3599,4.3748,4.5125,4.6135,4.6107,4.7964,4.9372,4.9433,4.999,5.0676,5.1407,5.3028,5.5049,5.7517,5.7543,5.7881,5.8945,5.9554,6.0317,6.1264,6.1873,6.2265,6.24,6.24,6.24,6.2415,6.3159,6.3579,6.3748,6.5087,6.5784,6.5933,6.6542,6.6791,6.6791,6.6791,6.6791,6.6927,6.8166,6.8673,6.8774,6.9654,7.0364,7.0939,2.5171,2.4929,2.547,2.7643,2.8014,2.8556,3.0162,2.9619,0.0,0.0,0.0,0.0,0.0,0.0,0.0,0.0,0.0,0.0,3.6321,3.6288,0.0,3.4077,3.1935,3.0378,2.949,2.7402,2.6657,2.7283,0.0,0.0,0.0,0.0,0.0,0.0,3.4032,0.0,0.0,0.0,4.4971,4.5399,4.8605,5.0502,5.1257,4.999,5.0944,5.2762,5.1035,4.9839,4.9216,5.0297,5.0195,4.9725,5.0403,4.9601,4.7914,4.5448,4.3444,0.0,0.0,0.0,0.0,0.0,3.7022,3.6723,3.7608,0.0,3.7152,3.7823,0.0,3.905,3.905,0.0,0.0,3.8571,4.0427,4.1681,4.0514,4.3781,4.7215,4.9714,5.0638,5.0804,5.0013,5.3366,5.5916,5.6858,5.866,5.9505,5.9013,5.9081,5.9791,6.1264,6.1366,6.1738,6.2381,6.24,6.24,6.2415,6.3159,6.3849,6.4512,6.5324,6.6068,6.6677,6.6757,6.6791,6.6791,6.6791,6.6791,6.6825,6.6994,6.7062,6.7231,6.8707,6.9282,6.9553,2.6092,2.5778,0.0,2.8966,2.9287,2.9698,3.1229,3.1888,0.0,0.0,0.0,0.0,0.0,0.0,0.0,0.0,3.9186,3.922,3.9356,3.9343,0.0,3.5949,3.4077,3.2171,3.0132,2.8272,2.7494,2.779,2.7494,0.0,0.0,0.0,0.0,0.0,3.5877,0.0,3.9614,4.4204,4.7635,5.0109,5.1008,5.2891,5.4785,5.1218,4.9935,4.9837,4.906,4.8503,4.8265,4.9122,4.9996,5.0793,5.0803,5.1266,5.1377,4.8877,4.6536,0.0,0.0,0.0,4.002,3.9827,3.9554,3.9385,3.9487,3.8534,3.7554,3.7434,0.0,0.0,0.0,0.0,0.0,0.0,3.9589,4.0678,4.0257,4.2954,4.5579,4.727,4.9708,5.1623,5.2717,5.4606,5.6202,5.733,5.8287,5.8693,5.8389,5.8355,5.9066,6.0554,6.1061,6.1637,6.2381,6.24,6.24,6.2415,6.3565,6.4309,6.4647,6.5797,6.6508,6.6791,6.6791,6.6791,6.6791,6.6791,6.6791,6.6791,6.6791,6.7332,6.8233,6.8876,6.9654,7.0466,2.7403,0.0,0.0,2.9636,3.0091,3.0615,3.209,3.4077,0.0,0.0,0.0,0.0,3.9106,3.9728,0.0,0.0,4.2435,4.2672,4.3017,4.2861,4.188,3.9931,3.719,3.4912,3.3176,3.0639,2.9253,2.905,2.905,2.977,0.0,0.0,0.0,0.0,0.0,3.9216,4.188,4.5364,4.9123,5.2704,5.2284,5.3931,5.6159,5.2377,4.9537,4.7622,4.8076,4.8079,4.8003,4.8964,5.0068,5.1052,5.1215,5.1888,5.2324,5.0731,4.8406,0.0,4.5174,4.3623,4.2265,4.2289,4.2061,4.1748,4.1573,4.0259,3.8745,3.7413,3.7015,0.0,0.0,0.0,0.0,0.0,0.0,3.8461,3.8274,4.0578,4.2943,4.475,4.8029,5.1199,5.3926,5.5771,5.6996,5.7551,5.8543,5.878,5.7934,5.79,5.849,5.9776,6.0554,6.1332,6.2076,6.2299,6.2502,6.2719,6.4005,6.4715,6.4952,6.6237,6.6791,6.6791,6.6791,6.6791,6.6791,6.6791,6.6791,6.6791,6.6791,6.7624,6.8808,6.9011,6.9925,7.1041,2.9909,2.8604,0.0,2.9009,2.9727,3.0615,3.209,3.543,3.7268,3.5802,4.0696,4.3789,4.2333,4.6007,4.8342,4.7718,4.8293,4.8409,4.7718,4.7022,4.6887,4.7515,4.1948,3.9478,4.0819,3.5847,3.2882,3.2158,3.2158,3.1819,3.12,3.12,3.1992,3.3575,3.6219,3.8637,4.1007,4.5208,4.8454,5.0928,5.2382,5.3455,5.4152,5.3668,5.1297,4.8481,5.0116,5.0057,4.9509,5.1217,5.0927,5.0165,5.1911,5.085,4.8981,4.9132,4.7886,4.6385,4.5904,4.4642,4.3713,4.4788,4.3944,4.2874,4.2997,4.1931,4.0065,3.7131,3.5998,0.0,0.0,0.0,0.0,0.0,0.0,0.0,0.0,3.4878,3.8669,4.2798,4.5731,4.8623,5.1605,5.6494,5.8754,5.6964,6.0182,6.0979,5.8069,5.79,5.8254,5.9013,5.9742,6.052,6.1332,6.2042,6.2753,6.3477,6.4241,6.4952,6.5683,6.644,6.6791,6.6791,6.6791,6.6791,6.6791,6.6791,6.6791,6.6791,6.6791,6.7286,6.803,6.8808,6.9586,7.0331,0.0,0.0,0.0,3.1029,3.1429,3.2395,3.49,3.719,3.8971,3.9918,4.2706,4.4973,4.5892,4.6921,4.8037,4.9255,4.9154,4.912,4.9357,4.912,4.8443,4.7225,4.3349,4.0743,3.9749,3.6062,3.3535,3.2293,3.2293,3.2158,3.1911,3.1911,3.2452,3.3571,3.7449,4.0729,4.3519,4.7414,5.181,5.6169,5.6022,5.5084,5.3691,5.3106,5.1851,5.0566,5.1595,5.1461,5.0787,5.1118,5.2237,5.3142,5.1518,5.1957,5.2713,5.0792,4.933,4.8307,4.8046,4.7444,4.7084,4.7884,4.7598,4.715,4.7196,4.4458,4.1649,4.0628,3.7811,0.0,0.0,0.0,0.0,0.0,0.0,0.0,0.0,0.0,3.6352,3.9235,0.0,0.0,0.0,0.0,5.7412,5.7504,5.9607,6.0013,5.8001,5.7442,5.7746,5.8945,5.9708,6.0486,6.1298,6.2009,6.2753,6.3511,6.4241,6.4986,6.5751,6.6474,6.6791,6.6791,6.6791,6.6791,6.6791,6.6791,6.6791,6.6791,6.6791,6.7252,6.7929,6.8199,6.8808,6.9586,2.8951,0.0,3.064,3.1458,3.2475,3.4062,3.6783,3.9106,4.0967,4.2164,4.477,4.6902,4.7819,4.8173,4.8815,5.0015,5.0135,5.0507,5.1251,5.1048,5.0608,4.9999,4.6312,4.3978,4.3335,3.8836,3.6028,3.5069,3.3467,3.2689,3.2689,3.2689,3.3366,3.4742,3.791,4.1513,4.534,4.7747,5.2033,5.7193,5.6948,5.5856,5.4332,5.4122,5.3285,5.2305,5.2601,5.2247,5.1504,5.0857,5.1903,5.3068,5.0658,5.1386,5.2811,5.1095,4.9995,4.9289,4.9177,4.8666,4.8471,4.9751,4.959,4.9374,5.0263,4.7294,4.42,4.3772,4.0046,3.6956,0.0,0.0,0.0,0.0,0.0,0.0,0.0,0.0,0.0,0.0,0.0,0.0,0.0,0.0,5.6727,5.7439,5.9607,6.0013,5.8001,5.7442,5.7645,5.8592,5.9573,6.0351,6.0858,6.1873,6.2888,6.3883,6.4377,6.5121,6.6102,6.6576,6.6791,6.6791,6.6791,6.6791,6.6791,6.6791,6.6791,6.6791,6.6791,6.7096,6.7557,6.7793,6.8571,6.9586,2.9039,2.9875,3.0821,3.0784,3.3147,3.5723,3.7737,4.1191,4.3321,4.2692,4.7022,4.9661,4.8326,5.0051,5.1048,5.0338,5.1555,5.2672,5.345,5.2773,5.3348,5.5496,5.0761,4.9003,5.1066,4.4032,4.0257,4.0113,3.5723,3.3558,3.3514,3.3514,3.4709,3.6919,3.7719,4.1156,4.6405,4.6585,4.9548,5.4241,5.5326,5.5767,5.5902,5.6596,5.5591,5.3743,5.3328,5.2664,5.1887,5.0849,5.0516,5.0472,4.9802,4.9539,4.9614,5.0124,4.9808,4.9307,4.9337,4.8409,4.7972,5.0333,4.9843,4.9449,5.1949,5.0048,4.7468,4.6353,4.2645,3.978,0.0,0.0,0.0,0.0,0.0,0.0,0.0,0.0,0.0,0.0,0.0,0.0,0.0,0.0,0.0,0.0,6.025,0.0,0.0,5.8001,5.8035,5.79,5.937,6.0148,6.0114,6.1637,6.3125,6.4613,6.4613,6.5392,6.6791,6.6791,6.6791,6.6791,6.6791,6.6791,6.6791,6.6791,6.6791,6.6791,6.6791,6.6791,6.6859,6.759,6.8808,7.0195,3.2907,3.4169,3.5671,3.7312,3.8672,3.972,4.0265,4.3538,4.6244,4.7158,4.9409,5.1201,5.1979,5.257,5.2841,5.2638,5.2976,5.3281,5.3484,5.3315,5.345,5.4042,5.1674,5.0119,4.9593,4.5534,4.2333,4.0113,3.7291,3.5622,3.5025,3.5025,3.6253,3.8476,3.9783,4.3603,4.913,4.9734,5.2337,5.6102,5.6387,5.6867,5.734,5.7543,5.7285,5.6786,5.6668,5.6122,5.5421,5.4842,5.5237,5.5614,5.3818,5.2902,5.2356,5.1673,5.0423,4.9396,4.9853,4.9374,4.9117,5.0494,4.9996,4.9548,5.0932,4.9268,4.7468,4.7661,4.482,4.2203,4.1942,3.9828,0.0,0.0,0.0,0.0,0.0,0.0,0.0,0.0,0.0,0.0,0.0,0.0,0.0,0.0,0.0,0.0,5.8035,5.9505,5.9641,5.7967,5.9911,6.0689,6.0114,6.1637,6.3125,6.4613,6.4613,6.5392,6.6791,6.6791,6.6791,6.6791,6.6791,6.6791,6.6791,6.6791,6.6791,6.6791,6.6791,6.6791,6.6825,6.6994,6.7692,6.8605,3.5708,3.6856,3.8321,3.9871,4.2078,4.3436,4.276,4.5297,4.8037,5.0168,5.1758,5.3129,5.4312,5.416,5.3856,5.3551,5.3518,5.3653,5.3957,5.3687,5.3788,5.4414,5.2993,5.2249,5.2401,4.8865,4.6157,4.4465,4.1251,3.9276,3.8519,3.8519,3.9749,4.1948,4.2455,4.5635,5.0676,5.2097,5.4076,5.6359,5.6664,5.7036,0.0,5.7798,5.79,5.79,5.79,5.7101,5.5962,5.53,5.5686,5.6191,5.4668,5.4118,5.3962,5.3649,5.2073,5.0706,5.185,5.077,4.9629,5.0956,5.0296,4.9651,5.0978,4.9452,4.8151,4.9604,4.7072,4.4954,4.6022,4.4045,4.2224,0.0,0.0,0.0,0.0,0.0,0.0,0.0,0.0,0.0,0.0,0.0,0.0,0.0,0.0,0.0,5.8457,5.9302,5.9235,5.7934,6.0114,6.0926,6.0114,6.1637,6.3125,6.4613,6.4613,6.5392,6.6791,6.6791,6.6791,6.6791,6.6791,6.6791,6.6791,6.6791,6.6791,6.6791,6.6791,6.6791,6.6791,6.6791,6.7489,6.8504,3.8234,3.91,4.0219,4.0815,4.4332,4.6733,4.5616,4.7259,4.9544,5.2131,5.3721,5.4871,5.5631,5.504,5.4363,5.3856,5.3788,5.4025,5.4583,5.3991,5.4228,5.5496,5.4329,5.4532,5.6461,5.257,5.0489,5.0387,4.6196,4.3862,4.3315,4.3098,4.4181,4.6244,4.5717,4.7767,5.1776,5.3957,5.5277,5.5902,5.6562,5.6867,5.7002,5.7645,5.7967,5.8017,5.8017,5.6925,5.532,5.4448,5.4547,5.4947,5.4342,5.4446,5.4925,5.5409,5.3891,5.2374,5.3957,5.2007,4.9915,5.1427,5.0581,4.9817,5.1326,5.0042,4.9147,5.1225,4.914,4.7766,5.0481,4.8471,4.6031,0.0,0.0,0.0,0.0,0.0,0.0,0.0,0.0,0.0,0.0,0.0,0.0,0.0,0.0,0.0,5.8878,5.8795,5.8509,5.7934,6.0182,6.1061,6.025,6.167,6.3193,6.4749,6.4647,6.5392,6.6791,6.6791,6.6791,6.6791,6.6791,6.6791,6.6791,6.6791,6.6791,6.6791,6.6791,6.6791,6.6791,6.6791,6.7726,6.8944,4.2354,4.3533,4.4614,4.4735,4.6881,4.8951,4.9882,5.1438,5.2706,5.3213,5.4059,5.4871,5.5631,5.504,5.4803,5.5259,5.5293,5.509,5.4651,5.4482,5.4499,5.4769,5.4532,5.4566,5.4989,5.3619,5.257,5.1894,4.9289,4.8274,4.8729,4.7496,4.78,4.9357,4.983,5.1522,5.4093,5.5716,5.6494,5.663,5.6765,5.7171,5.773,5.7866,5.8287,5.881,5.881,5.8211,5.737,5.7223,5.7215,5.7316,5.7182,5.6563,5.575,5.5008,5.3806,5.2692,5.2657,5.179,5.0947,5.1245,5.0679,5.0115,5.0434,5.0169,4.9965,5.0403,5.0416,5.0212,4.9726,4.9291,4.9035,4.91,0.0,0.0,0.0,0.0,0.0,0.0,0.0,0.0,0.0,0.0,0.0,0.0,0.0,0.0,0.0,6.1467,6.1738,5.8035,6.0708,6.1839,6.1095,6.1941,6.3449,6.5514,6.4884,6.5392,6.6791,6.6791,6.6791,6.6791,6.6791,6.6791,6.6791,6.6791,6.6791,6.6791,6.6791,6.6791,6.6791,6.6791,6.7354,6.8098,4.3727,4.5249,4.6974,4.7346,4.9255,5.1082,5.2216,5.3991,5.5344,5.5716,5.5412,5.5615,5.6731,5.619,5.5716,5.5699,5.5699,5.553,5.5209,5.5175,5.5175,5.5175,5.5175,5.5344,5.5716,5.504,5.4448,5.4042,5.2993,5.2672,5.301,5.2655,5.3315,5.4702,5.4296,5.4499,5.5209,5.5953,5.6664,5.7374,5.7374,5.7814,5.8457,5.8457,5.8693,5.9047,5.9419,5.9336,5.9032,5.9032,5.9032,5.8964,5.8592,5.8089,5.7549,5.7013,5.5823,5.4779,5.5526,5.4354,5.2967,5.2967,5.2284,5.1357,5.0416,5.0196,5.0196,5.0196,5.0458,5.0672,5.0589,5.0997,5.1124,5.0599,5.0701,5.0453,0.0,0.0,0.0,0.0,0.0,0.0,0.0,0.0,0.0,0.0,0.0,0.0,0.0,6.1298,6.1366,5.8001,6.0844,6.1839,6.0689,6.1806,6.3314,6.5121,6.4783,6.5392,6.6791,6.6791,6.6791,6.6791,6.6791,6.6791,6.6791,6.6791,6.6791,6.6791,6.6791,6.6791,6.6791,6.6791,6.6994,6.7354,4.5486,4.7109,4.907,4.983,5.1657,5.3247,5.389,5.5581,5.6934,5.7374,5.6562,5.6461,5.7764,5.7374,5.6867,5.6443,5.6544,5.6511,5.6172,5.6172,5.6105,5.5936,5.5936,5.6206,5.6799,5.6393,5.6172,5.6172,5.6308,5.5902,5.5023,5.6731,5.8118,5.9148,5.7543,5.6562,5.6172,5.6341,5.69,5.7679,5.8035,5.849,5.9013,5.9013,5.9182,5.9554,6.0148,6.0452,6.0588,6.0588,6.0351,6.0013,5.9419,5.9216,5.9179,5.8972,5.7858,5.6954,5.8183,5.6827,5.5026,5.4845,5.3962,5.2748,5.1319,5.0792,5.0578,5.0458,5.0485,5.1037,5.2694,5.2894,5.2714,5.2314,5.2628,5.2733,0.0,0.0,0.0,0.0,0.0,0.0,0.0,0.0,0.0,0.0,0.0,0.0,5.9216,6.0689,6.0554,5.8423,6.1013,6.1873,6.0825,6.1873,6.3226,6.4816,6.4681,6.5392,6.6791,6.6791,6.6791,6.6791,6.6791,6.6791,6.6791,6.6791,6.6791,6.6791,6.6791,6.6791,6.6791,6.6791,6.6791,6.6791,5.0389,5.1251,5.2131,5.2942,5.4346,5.5395,5.5496,5.6258,5.6596,5.5969,5.6393,5.7002,5.7832,5.7832,5.8051,5.8641,5.9284,5.9133,5.778,5.7679,5.7408,5.6731,5.6697,5.6731,5.6799,5.7374,5.7679,5.7679,5.8355,5.6612,5.2739,5.7543,5.9877,5.9911,5.7746,5.7137,5.7746,5.8423,5.7999,5.7036,5.8337,5.8945,5.9013,5.9013,5.9859,6.1095,6.1163,6.1603,6.2178,6.2178,6.1264,6.008,6.0013,6.0013,5.9808,5.8827,5.8421,5.8072,5.715,5.6713,5.6349,5.5687,5.4665,5.3754,5.3579,5.2747,5.1858,5.1236,5.1439,5.2791,5.6222,5.4677,5.3814,5.6584,5.4188,5.2572,5.4332,0.0,0.0,0.0,0.0,0.0,0.0,5.8331,0.0,0.0,0.0,0.0,0.0,6.1467,6.1535,5.9945,6.1501,6.2651,6.3173,6.2651,6.3483,6.5581,6.4918,6.5392,6.6791,6.6791,6.6791,6.6791,6.6791,6.6791,6.6791,6.6791,6.6791,6.6791,6.6791,6.6791,6.6791,6.6791,6.6791,6.6791,5.1894,5.3196,5.4583,5.5344,5.6325,5.7036,5.7036,5.7645,5.7881,5.7137,5.7273,5.7746,5.849,5.8964,5.9336,5.9641,5.9945,5.9844,5.9268,5.9201,5.8896,5.8134,5.81,5.81,5.81,5.7983,5.8118,5.8558,5.9302,5.8998,5.7746,6.0283,6.1231,6.0757,5.893,5.8524,5.9201,5.9047,5.8912,5.8829,5.9438,5.9674,5.9708,6.0216,6.0757,6.1366,6.1806,6.2144,6.24,6.24,6.1975,6.14,6.096,6.0825,6.0646,5.9722,5.9471,5.9374,5.8854,5.8734,5.8527,5.7568,5.6931,5.6253,5.5225,5.4584,5.4189,5.393,5.4086,5.4698,5.6115,5.573,5.5352,5.5751,5.5163,5.5045,5.6242,0.0,0.0,0.0,0.0,0.0,0.0,0.0,0.0,0.0,0.0,0.0,0.0,6.3565,6.3483,6.1535,6.2076,6.2516,6.2854,6.299,6.3734,6.5019,6.5189,6.5797,6.6791,6.6791,6.6791,6.6791,6.6791,6.6791,6.6791,6.6791,6.6791,6.6791,6.6791,6.6791,6.6791,6.6791,6.6791,6.6791,5.4025,5.5412,5.6883,5.7645,5.8389,5.8795,5.8558,5.9201,5.9404,5.8644,5.8727,5.8998,5.9284,6.0013,6.0452,6.0452,6.0655,6.0689,6.0452,6.0452,6.0114,5.937,5.9554,5.9453,5.9013,5.893,5.893,5.9013,5.9979,5.9945,5.9032,5.9539,6.0452,6.1569,5.9994,5.9742,6.0419,5.9911,5.9844,6.0114,6.0351,6.0452,6.052,6.1095,6.1434,6.167,6.2212,6.24,6.24,6.24,6.24,6.2333,6.1772,6.1637,6.1501,6.0926,6.0791,6.0723,6.052,6.0452,6.0213,5.9211,5.8654,5.8089,5.7071,5.6348,5.605,5.641,5.6524,5.667,5.6951,5.7112,5.6892,5.5859,5.5985,5.6509,5.7243,5.7159,0.0,0.0,5.9876,0.0,5.9971,6.1936,0.0,0.0,0.0,0.0,0.0,6.4038,6.4025,6.2468,6.2178,6.2279,6.2719,6.326,6.3849,6.4613,6.5358,6.6102,6.6791,6.6791,6.6791,6.6791,6.6791,6.6791,6.6791,6.6791,6.6791,6.6791,6.6791,6.6791,6.6791,6.6791,6.6791,6.6791,5.7697,5.8457,5.9182,5.9945,6.0723,6.0994,6.0182,6.0757,6.0994,6.0182,6.0757,6.096,6.0182,6.0791,6.1298,6.1298,6.1941,6.2042,6.1332,6.1298,6.0926,6.0114,6.0858,6.0554,5.9013,6.0486,6.052,5.9013,6.0535,5.866,5.3585,5.3619,5.6731,6.2333,6.0757,6.052,6.1298,6.1298,6.0825,6.0182,6.096,6.1298,6.1298,6.1298,6.1738,6.24,6.24,6.24,6.24,6.24,6.24,6.24,6.24,6.24,6.24,6.24,6.2367,6.2212,6.1467,6.1298,6.1095,6.0264,5.9296,5.867,5.9301,5.7998,5.697,5.8039,5.8358,5.8774,5.9837,5.9184,5.8432,5.8264,5.6832,5.6045,5.7064,5.6626,5.7473,6.0878,6.1941,6.2347,6.2367,6.4999,0.0,0.0,0.0,0.0,6.1535,6.2009,6.2434,6.24,6.167,6.2009,6.3477,6.3511,6.3849,6.4613,6.5358,6.6102,6.6791,6.6791,6.6791,6.6791,6.6791,6.6791,6.6791,6.6791,6.6791,6.6791,6.6791,6.6791,6.6791,6.6791,6.6791,6.6791,6.0047,6.0791,6.1535,6.2293,6.2632,6.255,6.1772,6.1873,6.1772,6.1028,6.1569,6.1941,6.1724,6.1907,6.2042,6.2042,6.2245,6.2279,6.2076,6.2042,6.1704,6.096,6.1163,6.1061,6.0588,6.1061,6.0791,5.9742,6.0791,6.0182,5.8017,5.8558,5.9539,6.0825,6.0892,6.1061,6.1332,6.1839,6.1603,6.0994,6.1738,6.1738,6.1366,6.1839,6.2178,6.24,6.24,6.24,6.24,6.24,6.24,6.24,6.24,6.24,6.24,6.24,6.24,6.2367,6.211,6.2042,6.1975,6.1738,6.1032,6.046,6.0676,6.0652,6.0678,6.1032,6.1515,6.187,6.168,6.0978,6.0206,5.9616,5.9062,5.8797,5.9122,5.8576,5.8507,5.9584,5.9926,5.9877,5.9389,6.2956,0.0,0.0,0.0,0.0,6.3734,6.3768,6.3666,6.3193,6.2415,6.2753,6.4241,6.4241,6.4613,6.5378,6.6102,6.6555,6.6791,6.6791,6.6791,6.6791,6.6791,6.6791,6.6791,6.6791,6.6791,6.6791,6.6791,6.6791,6.6791,6.6791,6.6791,6.6791,6.2448,6.2922,6.3362,6.3835,6.3917,6.3768,6.3294,6.3226,6.3057,6.2618,6.2685,6.2821,6.2821,6.255,6.24,6.24,6.24,6.24,6.24,6.24,6.2178,6.1738,6.1704,6.1569,6.1298,6.1569,6.1332,6.0554,6.1332,6.1467,6.096,6.1467,6.1434,6.0994,6.1501,6.1704,6.1738,6.2178,6.211,6.1738,6.2212,6.211,6.1772,6.2231,6.24,6.24,6.24,6.24,6.24,6.24,6.24,6.24,6.24,6.24,6.24,6.24,6.24,6.24,6.24,6.24,6.24,6.24,6.2042,6.1704,6.1704,6.2279,6.2821,6.2821,6.3396,6.3768,6.3294,6.2618,6.1873,6.1095,6.0723,6.0452,6.0148,5.9708,5.9723,6.0603,6.0452,6.0317,6.0419,6.2685,6.37,6.2502,6.4986,6.5628,6.3463,6.414,6.414,6.3125,6.2618,6.299,6.4174,6.4749,6.5222,6.5717,6.644,6.6791,6.6791,6.6791,6.6791,6.6791,6.6791,6.6791,6.6791,6.6791,6.6791,6.6791,6.6791,6.6791,6.6791,6.6791,6.6791,6.6791,6.4681,6.4681,6.4681,6.4749,6.4749,6.4749,6.4681,6.4681,6.4647,6.4613,6.4005,6.3545,6.3511,6.2888,6.2448,6.24,6.24,6.24,6.24,6.24,6.24,6.24,6.24,6.2076,6.14,6.2042,6.2042,6.1298,6.1975,6.2313,6.2313,6.24,6.24,6.24,6.24,6.24,6.24,6.24,6.24,6.24,6.24,6.24,6.24,6.24,6.24,6.24,6.24,6.24,6.24,6.24,6.24,6.24,6.24,6.24,6.24,6.24,6.24,6.24,6.24,6.24,6.24,6.24,6.24,6.24,6.24,6.3024,6.3579,6.3579,6.4174,6.4681,6.4681,6.4072,6.3342,6.2651,6.1975,6.1264,6.052,6.0317,6.1061,6.3173,6.2753,6.2821,6.4174,6.3748,6.3173,6.2584,6.2502,6.2245,6.1704,6.3531,6.3903,6.2468,6.2468,6.2854,6.3646,6.5019,6.5751,6.5784,6.6474,6.6791,6.6791,6.6791,6.6791,6.6791,6.6791,6.6791,6.6791,6.6791,6.6791,6.6791,6.6791,6.6791,6.6791,6.6791,6.6791,6.6791,6.5324,6.5425,6.5628,6.6203,6.6305,6.6102,6.5527,6.5425,6.5222,6.4681,6.4444,6.414,6.3545,6.3342,6.3024,6.2468,6.24,6.24,6.24,6.24,6.24,6.24,6.24,6.2313,6.2144,6.2333,6.2042,6.1298,6.1467,6.1569,6.1569,6.2144,6.24,6.24,6.24,6.24,6.24,6.24,6.24,6.24,6.24,6.24,6.24,6.24,6.24,6.24,6.24,6.24,6.24,6.24,6.24,6.24,6.24,6.24,6.24,6.24,6.24,6.24,6.24,6.24,6.24,6.24,6.24,6.24,6.24,6.3396,6.4343,6.4343,6.4918,6.5425,6.5425,6.485,6.4275,6.4106,6.3937,6.3768,6.3565,6.255,6.2042,6.2584,6.2009,6.1467,6.1197,6.2076,6.3057,6.4005,6.3565,6.3883,6.5405,6.4952,6.3903,6.2468,6.2956,6.3869,6.5155,6.5547,6.5967,6.6542,6.6724,6.6791,6.6791,6.6791,6.6791,6.6791,6.6791,6.6791,6.6791,6.6791,6.6791,6.6791,6.6791,6.6791,6.6791,6.6791,6.6791,6.6791,6.6136,6.6203,6.6339,6.6724,6.6791,6.6677,6.6271,6.6203,6.6068,6.5662,6.5324,6.4952,6.4546,6.4208,6.3734,6.2956,6.2584,6.24,6.24,6.24,6.24,6.24,6.24,6.24,6.24,6.24,6.2178,6.1806,6.1806,6.1806,6.1806,6.2212,6.24,6.24,6.24,6.24,6.24,6.24,6.24,6.24,6.24,6.24,6.24,6.24,6.24,6.24,6.24,6.24,6.24,6.24,6.24,6.24,6.24,6.24,6.24,6.24,6.24,6.24,6.24,6.24,6.24,6.24,6.24,6.2482,6.2821,6.3768,6.4681,6.5019,6.5696,6.6203,6.6203,6.5595,6.5087,6.5087,6.4816,6.4613,6.4613,6.3903,6.3396,6.3396,6.3057,6.2651,6.2212,6.2922,6.3734,6.4546,6.4241,6.4525,6.573,6.5053,6.4241,6.3429,6.4106,6.4884,6.5683,6.6034,6.6406,6.6791,6.6791,6.6791,6.6791,6.6791,6.6791,6.6791,6.6791,6.6791,6.6791,6.6791,6.6791,6.6791,6.6791,6.6791,6.6791,6.6791,6.6791,6.6791,6.6791,6.6791,6.6791,6.6791,6.6791,6.6791,6.6791,6.6791,6.6791,6.6791,6.6237,6.5797,6.5717,6.5121,6.4478,6.3714,6.3091,6.2637,6.2415,6.24,6.24,6.24,6.24,6.24,6.24,6.24,6.24,6.24,6.24,6.24,6.24,6.24,6.24,6.24,6.24,6.24,6.24,6.24,6.24,6.24,6.24,6.24,6.24,6.24,6.24,6.24,6.24,6.24,6.24,6.24,6.24,6.24,6.24,6.24,6.24,6.24,6.24,6.24,6.24,6.24,6.24,6.24,6.2502,6.2719,6.3342,6.4174,6.4952,6.5581,6.6305,6.6791,6.6791,6.6305,6.6021,6.6474,6.5628,6.5087,6.5561,6.5121,6.4783,6.4783,6.4681,6.4613,6.4613,6.4613,6.4613,6.4613,6.4613,6.4647,6.4749,6.4783,6.4816,6.4918,6.5425,6.5751,6.5886,6.6508,6.6791,6.6791,6.6791,6.6791,6.6791,6.6791,6.6791,6.6791,6.6791,6.6791,6.6791,6.6791,6.6791,6.6791,6.6791,6.6791,6.6791,6.6791,6.6791,6.6791,6.6791,6.6791,6.6791,6.6791,6.6791,6.6791,6.6791,6.6791,6.6791,6.6791,6.669,6.6406,6.5784,6.5615,6.5222,6.4478,6.4309,6.3734,6.2502,6.24,6.24,6.24,6.24,6.24,6.24,6.24,6.24,6.24,6.24,6.24,6.24,6.24,6.24,6.24,6.24,6.24,6.24,6.24,6.24,6.24,6.24,6.24,6.24,6.24,6.24,6.24,6.24,6.24,6.24,6.24,6.24,6.24,6.24,6.24,6.24,6.24,6.24,6.24,6.24,6.24,6.24,6.24,6.2854,6.3342,6.3477,6.4546,6.5581,6.5683,6.6305,6.6791,6.6791,6.669,6.7455,7.0026,6.8199,6.7332,6.9903,6.7523,6.5527,6.5527,6.4986,6.4613,6.4613,6.4613,6.4613,6.4613,6.4613,6.4884,6.5514,6.5527,6.5797,6.6419,6.5967,6.6,6.6622,6.6724,6.6791,6.6791,6.6791,6.6791,6.6791,6.6791,6.6791,6.6791,6.6791,6.6791,6.6791,6.6791,6.6791,6.6791,6.6791,6.6791,6.6791,6.6791,6.6791,6.6791,6.6791,6.6791,6.6791,6.6791,6.6791,6.6791,6.6791,6.6791,6.6791,6.6791,6.6791,6.6656,6.6339,6.6305,6.6,6.5256,6.4816,6.414,6.3057,6.299,6.2821,6.2434,6.24,6.24,6.24,6.24,6.24,6.24,6.24,6.24,6.24,6.24,6.24,6.24,6.24,6.24,6.24,6.24,6.24,6.24,6.24,6.24,6.24,6.24,6.24,6.24,6.24,6.24,6.24,6.24,6.24,6.24,6.24,6.24,6.24,6.24,6.24,6.24,6.24,6.24,6.2502,6.2888,6.326,6.3612,6.4005,6.4918,6.5717,6.5717,6.6305,6.6791,6.6791,6.6791,6.7265,6.8651,6.7704,6.7299,6.8685,6.7387,6.6305,6.6305,6.6,6.5797,6.5797,6.5797,6.5797,6.5797,6.5797,6.5933,6.6271,6.6305,6.644,6.6791,6.6474,6.6474,6.6791,6.6791,6.6791,6.6791,6.6791,6.6791,6.6791,6.6791,6.6791,6.6791,6.6791,6.6791,6.6791,6.6791,6.6791,6.6791,6.6791,6.6791,6.6791,6.6791,6.6791,6.6791,6.6791,6.6791,6.6791,6.6791,6.6791,6.6791,6.6791,6.6791,6.6791,6.6791,6.6791,6.6791,6.6791,6.6791,6.6576,6.6,6.5425,6.4816,6.4052,6.3984,6.3531,6.2468,6.24,6.24,6.24,6.24,6.24,6.24,6.24,6.24,6.24,6.24,6.24,6.24,6.24,6.24,6.24,6.24,6.24,6.24,6.24,6.24,6.24,6.24,6.24,6.24,6.24,6.24,6.24,6.24,6.24,6.24,6.24,6.24,6.24,6.24,6.24,6.24,6.24,6.2516,6.2787,6.3342,6.3748,6.4174,6.4715,6.5425,6.5967,6.5967,6.6406,6.6791,6.6791,6.6791,6.7028,6.7738,6.7265,6.7028,6.7738,6.7231,6.6791,6.6791,6.6791,6.6791,6.6791,6.6791,6.6791,6.6791,6.6791,6.6791,6.6791,6.6791,6.6791,6.6791,6.6791,6.6791,6.6791,6.6791,6.6791,6.6791,6.6791,6.6791,6.6791,6.6791,6.6791,6.6791,6.6791,6.6791,6.6791,6.6791,6.6791,6.6791,6.6791,6.6791,6.6791,6.6791,6.6791,6.6791,6.6791,6.6791,6.6791,6.6791,6.6791,6.6791,6.6791,6.6791,6.6791,6.6791,6.6791,6.6791,6.6791,6.6791,6.6757,6.6724,6.6656,6.6339,6.5581,6.5547,6.46,6.2502,6.24,6.24,6.24,6.24,6.24,6.24,6.24,6.24,6.24,6.24,6.24,6.24,6.24,6.24,6.24,6.24,6.24,6.24,6.24,6.24,6.24,6.24,6.24,6.24,6.24,6.24,6.24,6.24,6.24,6.24,6.24,6.24,6.24,6.24,6.24,6.24,6.24,6.2888,6.3443,6.3477,6.4546,6.5547,6.5615,6.6203,6.6724,6.6724,6.6757,6.6791,6.6791,6.6791,6.7704,7.0511,6.8617,6.7772,7.0579,6.855,6.6791,6.6791,6.6791,6.6791,6.6791,6.6791,6.6791,6.6791,6.6791,6.6791,6.6791,6.6791,6.6791,6.6791,6.6791,6.6791,6.6791,6.6791,6.6791,6.6791,6.6791,6.6791,6.6791,6.6791,6.6791,6.6791,6.6791,6.6791,6.6791,6.6791,6.6791,6.6791,6.6791,6.6791,6.6791,6.6791,6.6791,6.6791,6.6791,6.6791,6.6791,6.6791,6.6791,6.6791,6.6791,6.6791,6.6791,6.6791,6.6791,6.6791,6.6791,6.6791,6.6791,6.6791,6.6373,6.6,6.5717,6.5256,6.4444,6.3159,6.2651,6.24,6.24,6.24,6.24,6.24,6.24,6.24,6.24,6.24,6.24,6.24,6.24,6.24,6.24,6.24,6.24,6.24,6.24,6.24,6.24,6.24,6.24,6.24,6.24,6.24,6.24,6.24,6.24,6.24,6.24,6.24,6.2482,6.2956,6.3091,6.3193,6.3632,6.3632,6.3714,6.4647,6.5311,6.5797,6.6271,6.6609,6.6791,6.6791,6.6791,6.6791,6.6791,6.6791,6.7163,6.8313,6.7535,6.7197,6.8347,6.7501,6.6791,6.6791,6.6791,6.6791,6.6791,6.6791,6.6791,6.6791,6.6791,6.6791,6.6791,6.6791,6.6791,6.6791,6.6791,6.6791,6.6791,6.6791,6.6791,6.6791,6.6791,6.6791,6.6791,6.6791,6.6791,6.6791,6.6791,6.6791,6.6791,6.6791,6.6791,6.6791,6.6791,6.6791,6.6791,6.6791,6.6791,6.6859,6.6791,6.6791,6.6791,6.6791,6.6791,6.6791,6.6791,6.6791,6.6791,6.6791,6.6791,6.6791,6.6791,6.6791,6.6791,6.6791,6.6339,6.6034,6.6034,6.5358,6.4613,6.3883,6.3362,6.3091,6.3091,6.2854,6.2753,6.2753,6.2516,6.24,6.24,6.24,6.24,6.24,6.24,6.24,6.24,6.24,6.24,6.24,6.24,6.24,6.24,6.24,6.24,6.24,6.24,6.24,6.2434,6.2651,6.2753,6.2787,6.3024,6.3091,6.3193,6.37,6.3849,6.3984,6.4749,6.458,6.4444,6.5446,6.5865,6.617,6.6656,6.6791,6.6791,6.6791,6.6791,6.6791,6.6791,6.6791,6.6791,6.6791,6.6791,6.6791,6.6791,6.6791,6.6791,6.6791,6.6791,6.6791,6.6791,6.6791,6.6791,6.6791,6.6791,6.6791,6.6791,6.6791,6.6791,6.6791,6.6791,6.6791,6.6791,6.6791,6.6791,6.6791,6.6791,6.6791,6.6791,6.6791,6.6791,6.6791,6.6791,6.6791,6.6791,6.6791,6.6791,6.6791,6.6791,6.6791,6.6791,6.6791,6.6791,6.6893,6.6791,6.6791,6.6791,6.6791,6.6791,6.6791,6.6791,6.6791,6.6791,6.6791,6.6791,6.6791,6.6791,6.6791,6.6791,6.6791,6.6791,6.6791,6.6791,6.6102,6.5392,6.4647,6.4613,6.4613,6.4613,6.3883,6.3511,6.3511,6.2787,6.2415,6.2415,6.2415,6.24,6.24,6.24,6.24,6.24,6.24,6.24,6.24,6.24,6.24,6.24,6.24,6.24,6.24,6.24,6.24,6.2516,6.326,6.3511,6.3646,6.4377,6.4613,6.4613,6.4613,6.4613,6.4783,6.5493,6.5717,6.5717,6.5717,6.6271,6.6791,6.6791,6.6791,6.6791,6.6791,6.6791,6.6791,6.6791,6.6791,6.6791,6.6791,6.6791,6.6791,6.6791,6.6791,6.6791,6.6791,6.6791,6.6791,6.6791,6.6791,6.6791,6.6791,6.6791,6.6791,6.6791,6.6791,6.6791,6.6791,6.6791,6.6791,6.6791,6.6791,6.6791,6.6791,6.6791,6.6791,6.6791,6.6791,6.6791,6.6791,6.6791,6.6791,6.6791,6.6791,6.6791,6.6791,6.6791,6.6791,6.6791,6.6791,6.6791,6.6893,6.6925,6.6791,6.6791,6.6791,6.6791,6.6791,6.6791,6.6791,6.6791,6.6791,6.6791,6.6791,6.6791,6.6791,6.6791,6.6791,6.6791,6.6791,6.6791,6.7083,6.7151,6.6914,6.5425,6.4613,6.4613,6.4377,6.4275,6.4275,6.4038,6.3666,6.3193,6.3193,6.2888,6.24,6.24,6.24,6.24,6.24,6.24,6.24,6.24,6.24,6.24,6.24,6.24,6.24,6.24,6.2719,6.3226,6.3409,6.3849,6.4309,6.4546,6.4613,6.4715,6.5222,6.5358,6.5527,6.6271,6.6474,6.6474,6.6474,6.6622,6.6791,6.6791,6.6791,6.6791,6.6791,6.6791,6.6791,6.6791,6.6791,6.6791,6.6791,6.6791,6.6791,6.6791,6.6791,6.6791,6.6791,6.6791,6.6791,6.6791,6.6791,6.6791,6.6791,6.6791,6.6791,6.6791,6.6791,6.6791,6.6791,6.6791,6.6791,6.6791,6.6791,6.6791,6.6791,6.6791,6.6791,6.6791,6.6791,6.6791,6.6791,6.6791,6.6791,6.6791,6.6791,6.6791,6.6791,6.6791,6.6791,6.6791,6.6791,6.6791,6.7015,6.7429,6.6994,6.6791,6.6791,6.6791,6.6791,6.6791,6.6791,6.6791,6.6791,6.6791,6.6791,6.6791,6.6791,6.6791,6.6791,6.7062,6.7387,6.7692,6.8132,6.8368,6.8368,6.7083,6.6373,6.6373,6.6068,6.5899,6.5899,6.5628,6.5256,6.4796,6.4796,6.441,6.372,6.372,6.3551,6.326,6.326,6.326,6.326,6.326,6.326,6.326,6.326,6.326,6.326,6.326,6.3565,6.4005,6.4275,6.485,6.5459,6.5459,6.5459,6.5561,6.6,6.6136,6.6237,6.6677,6.6791,6.6791,6.6791,6.6791,6.6791,6.6791,6.6791,6.6791,6.6791,6.6791,6.6791,6.6791,6.6791,6.6791,6.6791,6.6791,6.6791,6.6791,6.6791,6.6791,6.6791,6.6791,6.6791,6.6791,6.6791,6.6791,6.6791,6.6791,6.6791,6.6791,6.6791,6.6791,6.6791,6.6791,6.6791,6.6791,6.6791,6.6791,6.6791,6.6791,6.6791,6.6791,6.6791,6.6791,6.6791,6.6791,6.6791,6.6791,6.6791,6.6791,6.6825,6.7096,6.7252,6.7286,6.7569,6.7726,6.7929,6.8263,6.7349,6.6791,6.6791,6.6791,6.6791,6.6791,6.6791,6.6791,6.6791,6.6791,6.6791,6.6791,6.6859,6.6893,6.6893,6.759,6.8335,6.9045,6.9147,6.9214,6.9214,6.9248,6.9316,6.9316,6.8436,6.7996,6.7996,6.7332,6.6927,6.6791,6.6791,6.6373,6.5615,6.5615,6.5222,6.4613,6.4613,6.4613,6.4613,6.4613,6.4647,6.4681,6.4681,6.4749,6.4816,6.4816,6.485,6.5019,6.573,6.644,6.6994,6.6927,6.6893,6.6893,6.6825,6.6791,6.6791,6.6791,6.6791,6.6791,6.6791,6.6791,6.6791,6.6791,6.6791,6.6791,6.6791,6.6791,6.6791,6.6791,6.6791,6.6791,6.6791,6.6791,6.6791,6.6791,6.6791,6.6791,6.6791,6.6791,6.6791,6.6791,6.6791,6.6791,6.6791,6.6791,6.6791,6.6791,6.6791,6.6791,6.6791,6.6791,6.6791,6.6791,6.6791,6.6791,6.6791,6.6791,6.6791,6.6791,6.6791,6.6791,6.6791,6.6791,6.6791,6.6791,6.6859,6.6893,6.696,6.7726,6.7996,6.8098,6.8842,6.9113,6.9316,6.9323,6.7878,6.6791,6.6791,6.6791,6.6791,6.6791,6.6791,6.6791,6.6791,6.6791,6.6791,6.6791,6.732,6.7658,6.7658,6.8368,6.891,6.9079,6.962,6.9958,6.9958,7.05,7.0816,7.0816,6.9519,6.8842,6.8842,6.8673,6.7996,6.6791,6.6791,6.6102,6.485,6.485,6.4749,6.4613,6.4613,6.4613,6.4613,6.4613,6.4952,6.5459,6.5459,6.5831,6.6318,6.6318,6.6711,6.732,6.8098,6.847,6.8504,6.7861,6.7658,6.7557,6.696,6.6791,6.6791,6.6791,6.6791,6.6791,6.6791,6.6791,6.6791,6.6791,6.6791,6.6791,6.6791,6.6791,6.6791,6.6791,6.6791,6.6791,6.6791,6.6791,6.6791,6.6791,6.6791,6.6791,6.6791,6.6791,6.6791,6.6791,6.6791,6.6791,6.6791,6.6791,6.6791,6.6791,6.6791,6.6791,6.6791,6.6791,6.6791,6.6791,6.6791,6.6791,6.6791,6.6791,6.6791,6.6791,6.6791,6.6791,6.6791,6.6791,6.6791,6.6825,6.7421,6.7658,6.776,6.8538,6.8842,6.8876,6.9045,6.9113,6.9316,7.0832,6.952,6.8343,6.7472,6.732,6.7218,6.6859,6.6791,6.6791,6.6791,6.7117,6.732,6.732,6.7996,6.8605,6.8977,6.9383,6.9755,7.0128,7.05,7.0737,7.0737,7.1086,7.1289,7.1289,7.0534,7.0161,7.0161,7.0161,6.9733,6.8956,6.8956,6.8368,6.7252,6.6914,6.6542,6.6136,6.5797,6.5865,6.617,6.617,6.6643,6.732,6.732,6.7557,6.7895,6.7895,6.8166,6.8538,6.8977,6.9113,6.9045,6.8605,6.847,6.8402,6.803,6.7895,6.7827,6.7455,6.732,6.7252,6.6893,6.6791,6.6791,6.6791,6.6791,6.6791,6.6791,6.6791,6.6791,6.6791,6.6791,6.6791,6.6791,6.6791,6.6791,6.6791,6.6791,6.6791,6.6791,6.6791,6.6791,6.6791,6.6791,6.6791,6.6791,6.6791,6.6791,6.6791,6.6791,6.6791,6.6791,6.6791,6.6791,6.6791,6.6791,6.6791,6.6791,6.6791,6.6791,6.6791,6.6791,6.7015,6.732,6.732,6.7557,6.7929,6.8301,6.847,6.8538,6.9316,6.962,6.9654,7.0026,7.0601,7.1312,7.2333,7.1225,7.009,6.8413,6.7996,6.7692,6.7083,6.7015,6.7015,6.7015,6.7658,6.8098,6.8098,6.8808,6.9586,7.0297,7.0398,7.0635,7.1255,7.1289,7.1289,7.1289,7.1289,7.1289,7.1289,7.1289,7.1289,7.1289,7.1289,7.1222,7.1109,7.1109,7.0737,7.0014,6.9383,6.8741,6.8064,6.7455,6.7557,6.8098,6.8098,6.8571,6.9282,6.9282,6.9383,6.9485,6.9485,6.9485,6.9485,6.9485,6.9485,6.9451,6.9316,6.9282,6.9248,6.9147,6.9113,6.8944,6.8301,6.8098,6.7963,6.7332,6.7197,6.7197,6.7197,6.6994,6.6791,6.6791,6.6791,6.6791,6.6791,6.6791,6.6791,6.6791,6.6791,6.6791,6.6791,6.6791,6.6791,6.6791,6.6791,6.6791,6.6791,6.6791,6.6791,6.6791,6.6791,6.6791,6.6791,6.6791,6.6791,6.6791,6.6927,6.7015,6.7015,6.7096,6.7197,6.7197,6.7197,6.7096,6.6994,6.7129,6.7523,6.8098,6.8098,6.847,6.9113,6.9248,6.9282,6.935,7.0094,7.0398,7.0466,7.121,7.2428,7.368,7.3216,7.1688,7.0242,6.9126,6.8368,6.7861,6.776,6.776,6.776,6.776,6.8436,6.8944,6.8944,6.9586,7.0331,7.1086,7.1154,7.1188,7.1289,7.1289,7.1289,7.1289,7.1289,7.1289,7.1289,7.1289,7.1289,7.1289,7.1289,7.0973,7.0353,7.0353,6.9958,6.9248,6.9147,6.9045,6.8944,6.8842,6.8842,6.8944,6.8944,6.9383,7.0026,7.0026,7.0432,7.0985,7.0985,7.0985,7.0985,7.0985,7.0985,7.0906,7.0263,7.0026,6.9925,6.9282,6.9113,6.9079,6.8977,6.8944,6.891,6.8808,6.8808,6.8808,6.8808,6.776,6.6791,6.6791,6.6791,6.6791,6.6791,6.6791,6.6791,6.6791,6.6791,6.6791,6.6791,6.6791,6.6791,6.6791,6.6791,6.6791,6.6791,6.6791,6.6791,6.6791,6.6791,6.6791,6.6791,6.6791,6.6791,6.6791,6.7421,6.776,6.776,6.8436,6.8808,6.8808,6.8808,6.8436,6.776,6.847,6.8842,6.8944,6.8944,6.9011,6.9147,6.9789,7.0026,7.0094,7.0872,7.1154,7.1222,7.1988,7.3172,7.4458,7.4849,7.3587,7.2235,7.0794,6.9782,6.9045,6.8639,6.8571,6.8571,6.8571,6.9248,6.9722,6.9722,7.0364,7.0939,7.1255,7.1289,7.1289,7.1289,7.1289,7.1289,7.1289,7.1289,7.1289,7.1289,7.1289,7.1289,7.1289,7.1289,7.1142,7.0804,7.0804,7.0635,7.0331,6.9891,6.9722,6.9688,6.9282,6.935,6.9722,6.9722,7.0161,7.0804,7.0804,7.1041,7.1289,7.1289,7.1289,7.1289,7.1289,7.1289,7.1222,7.0939,7.0804,7.077,7.0432,7.0331,7.0263,6.9823,6.9722,6.962,6.9214,6.9113,6.9113,6.9113,6.8571,6.8098,6.8098,6.8098,6.7963,6.7489,6.7421,6.7286,6.6859,6.6791,6.6791,6.6791,6.6791,6.6927,6.7387,6.7421,6.759,6.8064,6.8098,6.8098,6.8098,6.8098,6.8098,6.8098,6.8098,6.8098,6.8098,6.8402,6.8571,6.8571,6.891,6.9113,6.9113,6.9519,6.9316,6.8571,6.8944,6.9316,6.9722,6.9722,6.9958,7.0364,7.0669,7.0804,7.0838,7.1154,7.1289,7.1391,7.2124,7.3071,7.4052]}]]